[[{"header":{"parameterUnit":"m.s-1","parameterCategory":1,"la1":31.0,"la2":29.5877,"lo1":-88.7671,"lo2":-86.6584,"dy":0.0162,"dx":0.0185,"nx":115,"ny":88,"refTime":"2023-09-02T12:00:00:Z","depth":0,"parameterNumber":2,"parameterNumberName":"U-component_of_WINDS"},"data":[0.0,0.0,0.0,0.0,0.0,0.0,0.0,0.0,0.0,0.0,0.0,0.0,0.0,0.0,0.0,0.0,0.0,0.0,0.0,0.0,0.0,0.0,0.0,0.0,0.0,0.0,0.0,0.0,0.0,0.0,0.0,0.0,0.0,0.0,0.0,0.0,0.0,0.0,0.0,0.0,0.0,0.0,0.0,0.0,0.0,0.0,0.0,0.0,0.0,0.0,0.0,0.0,0.0,0.0,0.0,0.0,0.0,0.0,0.0,0.0,0.0,0.0,0.0,0.0,0.0,0.0,0.0,0.0,0.0,0.0,0.0,0.0,0.0,0.0,0.0,0.0,0.0,0.0,0.0,0.0,0.0,0.0,0.0,0.0,0.0,0.0,0.0,0.0,0.0,0.0,0.0,0.0,0.0,0.0,0.0,0.0,0.0,0.0,0.0,0.0,0.0,0.0,0.0,0.0,0.0,0.0,0.0,0.0,0.0,0.0,0.0,0.0,0.0,0.0,0.0,0.0,0.0,0.0,0.0,0.0,0.0,0.0,0.0,0.0,0.0,0.0,0.0,0.0,0.0,0.0,0.0,0.0,0.0,0.0,0.0,0.0,0.0,0.0,0.0,0.0,0.0,0.0,0.0,0.0,0.0,0.0,0.0,0.0,0.0,0.0,0.0,0.0,0.0,0.0,0.0,0.0,0.0,0.0,0.0,0.0,0.0,0.0,0.0,0.0,0.0,0.0,0.0,0.0,0.0,0.0,0.0,0.0,0.0,0.0,0.0,0.0,0.0,0.0,0.0,0.0,0.0,0.0,0.0,0.0,0.0,0.0,0.0,0.0,0.0,0.0,0.0,0.0,0.0,0.0,0.0,0.0,0.0,0.0,0.0,0.0,0.0,0.0,0.0,0.0,0.0,0.0,0.0,0.0,0.0,0.0,0.0,0.0,0.0,0.0,0.0,0.0,0.0,0.0,0.0,0.0,0.0,0.0,0.0,0.0,0.0,0.0,0.0,0.0,0.0,0.0,0.0,0.0,0.0,0.0,0.0,0.0,0.0,0.0,0.0,0.0,0.0,0.0,0.0,0.0,0.0,0.0,0.0,0.0,0.0,0.0,0.0,0.0,0.0,0.0,0.0,0.0,0.0,0.0,0.0,0.0,0.0,0.0,0.0,0.0,0.0,0.0,0.0,0.0,0.0,0.0,0.0,0.0,0.0,0.0,0.0,0.0,0.0,0.0,0.0,0.0,0.0,0.0,0.0,0.0,0.0,0.0,0.0,0.0,0.0,0.0,0.0,0.0,0.0,0.0,0.0,0.0,0.0,0.0,0.0,0.0,0.0,0.0,0.0,0.0,0.0,0.0,0.0,0.0,0.0,0.0,0.0,0.0,0.0,0.0,0.0,0.0,0.0,0.0,0.0,0.0,0.0,0.0,0.0,0.0,0.0,0.0,0.0,0.0,0.0,0.0,0.0,0.0,0.0,0.0,0.0,0.0,0.0,0.0,0.0,0.0,0.0,0.0,0.0,0.0,0.0,0.0,0.0,0.0,0.0,0.0,0.0,0.0,0.0,0.0,0.0,0.0,0.0,0.0,0.0,0.0,0.0,0.0,0.0,0.0,0.0,0.0,0.0,0.0,0.0,0.0,0.0,0.0,0.0,0.0,0.0,0.0,0.0,0.0,0.0,0.0,0.0,0.0,0.0,0.0,0.0,0.0,0.0,0.0,0.0,0.0,0.0,0.0,0.0,0.0,0.0,0.0,0.0,0.0,0.0,0.0,0.0,0.0,0.0,0.0,0.0,0.0,0.0,0.0,0.0,0.0,0.0,0.0,0.0,0.0,0.0,0.0,0.0,0.0,0.0,0.0,0.0,0.0,0.0,0.0,0.0,0.0,0.0,0.0,0.0,0.0,0.0,0.0,0.0,0.0,0.0,0.0,0.0,0.0,0.0,0.0,0.0,0.0,0.0,0.0,0.0,0.0,0.0,0.0,0.0,0.0,0.0,0.0,0.0,0.0,0.0,0.0,0.0,0.0,0.0,0.0,0.0,0.0,0.0,0.0,0.0,0.0,0.0,0.0,0.0,0.0,0.0,0.0,0.0,0.0,0.0,0.0,0.0,0.0,0.0,0.0,0.0,0.0,0.0,0.0,0.0,0.0,0.0,0.0,0.0,0.0,0.0,0.0,0.0,0.0,0.0,0.0,0.0,0.0,0.0,0.0,0.0,0.0,0.0,0.0,0.0,0.0,0.0,0.0,0.0,0.0,0.0,0.0,0.0,0.0,0.0,0.0,0.0,0.0,0.0,0.0,0.0,0.0,0.0,0.0,0.0,0.0,0.0,0.0,0.0,0.0,0.0,0.0,0.0,0.0,0.0,0.0,0.0,0.0,0.0,0.0,0.0,0.0,0.0,0.0,0.0,0.0,0.0,0.0,0.0,0.0,0.0,0.0,0.0,0.0,0.0,0.0,0.0,0.0,0.0,0.0,0.0,0.0,0.0,0.0,0.0,0.0,0.0,0.0,0.0,0.0,0.0,0.0,0.0,0.0,0.0,0.0,0.0,0.0,0.0,0.0,0.0,0.0,0.0,0.0,0.0,0.0,0.0,0.0,0.0,0.0,0.0,0.0,0.0,0.0,0.0,0.0,0.0,0.0,0.0,0.0,0.0,0.0,0.0,0.0,0.0,0.0,0.0,0.0,0.0,0.0,0.0,0.0,0.0,0.0,0.0,0.0,0.0,0.0,0.0,0.0,0.0,0.0,0.0,0.0,0.0,0.0,0.0,0.0,0.0,0.0,0.0,0.0,0.0,0.0,0.0,0.0,0.0,0.0,0.0,0.0,0.0,0.0,0.0,0.0,0.0,0.0,0.0,0.0,0.0,0.0,0.0,0.0,0.0,0.0,0.0,0.0,0.0,0.0,0.0,0.0,0.0,0.0,0.0,0.0,0.0,0.0,0.0,0.0,0.0,0.0,0.0,0.0,0.0,0.0,0.0,0.0,0.0,0.0,0.0,0.0,0.0,0.0,0.0,0.0,0.0,0.0,0.0,0.0,0.0,0.0,0.0,0.0,0.0,0.0,0.0,0.0,0.0,0.0,0.0,0.0,0.0,0.0,0.0,0.0,0.0,0.0,0.0,0.0,0.0,0.0,0.0,0.0,0.0,0.0,0.0,0.0,0.0,0.0,0.0,0.0,0.0,0.0,0.0,0.0,0.0,0.0,0.0,0.0,0.0,0.0,0.0,0.0,0.0,0.0,0.0,0.0,0.0,0.0,0.0,0.0,0.0,0.0,0.0,0.0,0.0,0.0,0.0,0.0,0.0,0.0,0.0,0.0,0.0,0.0,0.0,0.0,0.0,0.0,0.0,0.0,0.0,0.0,0.0,0.0,0.0,0.0,0.0,0.0,0.0,0.0,0.0,0.0,0.0,0.0,0.0,0.0,0.0,0.0,0.0,0.0,0.0,0.0,0.0,0.0,0.0,0.0,0.0,0.0,0.0,0.0,0.0,0.0,0.0,0.0,0.0,0.0,0.0,0.0,0.0,0.0,0.0,0.0,0.0,0.0,0.0,0.0,0.0,0.0,0.0,0.0,0.0,0.0,0.0,0.0,0.0,0.0,0.0,0.0,0.0,0.0,0.0,0.0,0.0,0.0,0.0,0.0,0.0,0.0,0.0,0.0,0.0,0.0,0.0,0.0,0.0,0.0,0.0,0.0,0.0,0.0,0.0,0.0,0.0,0.0,0.0,0.0,0.0,0.0,0.0,0.0,0.0,0.0,0.0,0.0,0.0,0.0,0.0,0.0,0.0,0.0,0.0,0.0,0.0,0.0,0.0,0.0,0.0,0.0,0.0,0.0,0.0,0.0,0.0,0.0,0.0,0.0,0.0,0.0,0.0,0.0,0.0,0.0,0.0,0.0,0.0,0.0,0.0,0.0,0.0,0.0,0.0,0.0,0.0,0.0,0.0,0.0,0.0,0.0,0.0,0.0,0.0,0.0,0.0,0.0,0.0,0.0,0.0,0.0,0.0,0.0,0.0,0.0,0.0,0.0,0.0,0.0,0.0,0.0,0.0,0.0,0.0,0.0,0.0,0.0,0.0,0.0,0.0,0.0,0.0,0.0,0.0,0.0,0.0,0.0,0.0,0.0,0.0,0.0,0.0,0.0,0.0,0.0,0.0,0.0,0.0,0.0,0.0,0.0,0.0,0.0,0.0,0.0,0.0,0.0,0.0,0.0,0.0,0.0,0.0,0.0,0.0,0.0,0.0,0.0,0.0,0.0,-1.0606,0.0,0.0,0.0,0.0,0.0,0.0,0.0,0.0,0.0,0.0,0.0,0.0,0.0,0.0,0.0,0.0,0.0,0.0,0.0,0.0,0.0,0.0,0.0,0.0,0.0,0.0,0.0,0.0,0.0,0.0,0.0,0.0,0.0,0.0,0.0,0.0,0.0,0.0,0.0,0.0,0.0,0.0,0.0,0.0,0.0,0.0,0.0,0.0,0.0,0.0,0.0,0.0,0.0,0.0,0.0,0.0,0.0,0.0,0.0,0.0,0.0,0.0,0.0,0.0,0.0,0.0,0.0,0.0,0.0,0.0,0.0,0.0,0.0,0.0,0.0,0.0,0.0,0.0,0.0,0.0,0.0,0.0,0.0,0.0,0.0,0.0,0.0,0.0,0.0,0.0,0.0,0.0,0.0,0.0,0.0,0.0,0.0,0.0,0.0,0.0,0.0,0.0,0.0,0.0,0.0,0.0,0.0,0.0,0.0,0.0,-1.1601,-1.1015,-1.0979,-1.0871,-1.0613,0.0,0.0,0.0,0.0,0.0,0.0,0.0,0.0,0.0,0.0,0.0,0.0,0.0,0.0,0.0,0.0,0.0,0.0,0.0,0.0,0.0,0.0,0.0,0.0,0.0,0.0,0.0,0.0,0.0,0.0,0.0,0.0,0.0,0.0,0.0,0.0,0.0,0.0,0.0,0.0,0.0,0.0,0.0,0.0,0.0,0.0,0.0,0.0,0.0,0.0,0.0,0.0,0.0,0.0,0.0,0.0,0.0,0.0,0.0,0.0,0.0,0.0,0.0,0.0,0.0,0.0,0.0,0.0,0.0,0.0,0.0,0.0,0.0,0.0,0.0,0.0,0.0,0.0,0.0,0.0,0.0,0.0,0.0,0.0,0.0,0.0,0.0,0.0,0.0,0.0,0.0,0.0,0.0,0.0,0.0,0.0,0.0,0.0,0.0,0.0,0.0,0.0,0.0,0.0,0.0,0.0,0.0,0.0,0.0,0.0,0.0,0.0,-1.0979,-1.0922,-1.0798,0.0,0.0,0.0,0.0,0.0,0.0,0.0,0.0,0.0,0.0,0.0,0.0,0.0,0.0,0.0,0.0,0.0,0.0,0.0,0.0,0.0,0.0,0.0,0.0,0.0,0.0,0.0,0.0,0.0,0.0,0.0,0.0,0.0,0.0,0.0,0.0,0.0,0.0,0.0,0.0,0.0,0.0,0.0,0.0,0.0,0.0,0.0,0.0,0.0,0.0,0.0,0.0,0.0,0.0,0.0,0.0,0.0,0.0,0.0,0.0,0.0,0.0,0.0,0.0,0.0,0.0,0.0,0.0,0.0,0.0,0.0,0.0,0.0,0.0,0.0,0.0,0.0,0.0,0.0,0.0,0.0,0.0,0.0,0.0,0.0,0.0,0.0,0.0,0.0,0.0,0.0,0.0,0.0,0.0,0.0,0.0,0.0,0.0,0.0,0.0,0.0,0.0,0.0,0.0,0.0,0.0,0.0,0.0,0.0,0.0,-1.1316,-1.1009,-1.0995,0.0,-1.1326,0.0,0.0,0.0,0.0,0.0,0.0,0.0,0.0,0.0,0.0,0.0,0.0,0.0,0.0,0.0,0.0,0.0,0.0,0.0,0.0,0.0,0.0,0.0,0.0,0.0,0.0,0.0,0.0,0.0,0.0,0.0,0.0,0.0,0.0,0.0,0.0,0.0,0.0,0.0,0.0,0.0,0.0,0.0,0.0,0.0,0.0,0.0,0.0,0.0,0.0,0.0,0.0,0.0,0.0,0.0,0.0,0.0,0.0,0.0,0.0,0.0,0.0,0.0,0.0,0.0,0.0,0.0,0.0,0.0,0.0,0.0,0.0,0.0,0.0,0.0,0.0,0.0,0.0,0.0,0.0,0.0,0.0,0.0,0.0,0.0,0.0,0.0,0.0,0.0,0.0,0.0,0.0,0.0,0.0,0.0,0.0,0.0,0.0,0.0,0.0,0.0,0.0,0.0,0.0,0.0,0.0,0.0,0.0,0.0,0.0,-1.155,-1.1232,-1.1082,-1.1216,0.0,0.0,0.0,0.0,0.0,0.0,0.0,0.0,0.0,0.0,0.0,0.0,0.0,0.0,0.0,0.0,0.0,0.0,0.0,0.0,0.0,0.0,0.0,0.0,0.0,0.0,0.0,0.0,0.0,0.0,0.0,0.0,0.0,0.0,0.0,0.0,0.0,0.0,0.0,0.0,0.0,0.0,0.0,0.0,0.0,0.0,0.0,0.0,0.0,0.0,0.0,0.0,0.0,0.0,0.0,0.0,0.0,0.0,0.0,0.0,0.0,0.0,0.0,0.0,0.0,0.0,0.0,0.0,0.0,0.0,0.0,0.0,0.0,0.0,0.0,0.0,0.0,0.0,0.0,0.0,0.0,0.0,0.0,0.0,0.0,0.0,0.0,0.0,0.0,0.0,0.0,0.0,0.0,0.0,0.0,0.0,0.0,0.0,0.0,0.0,0.0,0.0,0.0,0.0,0.0,0.0,0.0,0.0,0.0,0.0,-1.1946,-1.1741,-1.1419,-1.1223,-1.1349,-1.1886,0.0,0.0,0.0,0.0,0.0,0.0,0.0,0.0,0.0,0.0,0.0,0.0,0.0,0.0,0.0,0.0,0.0,0.0,0.0,0.0,0.0,0.0,0.0,0.0,0.0,0.0,0.0,0.0,0.0,0.0,0.0,0.0,0.0,0.0,0.0,0.0,0.0,0.0,0.0,0.0,0.0,0.0,0.0,0.0,0.0,0.0,0.0,0.0,0.0,0.0,0.0,0.0,0.0,0.0,0.0,0.0,0.0,0.0,0.0,0.0,0.0,0.0,0.0,0.0,0.0,0.0,0.0,0.0,0.0,0.0,0.0,0.0,0.0,0.0,0.0,0.0,0.0,0.0,0.0,0.0,0.0,0.0,0.0,0.0,0.0,0.0,0.0,0.0,0.0,0.0,0.0,0.0,0.0,0.0,0.0,0.0,0.0,0.0,0.0,0.0,0.0,0.0,0.0,0.0,0.0,0.0,0.0,0.0,-1.2258,-1.2015,-1.1724,-1.1419,-1.1382,-1.1533,0.0,0.0,0.0,0.0,0.0,0.0,0.0,0.0,0.0,0.0,0.0,0.0,0.0,0.0,0.0,0.0,0.0,0.0,0.0,0.0,0.0,0.0,0.0,0.0,0.0,0.0,0.0,0.0,0.0,0.0,0.0,0.0,0.0,0.0,0.0,0.0,0.0,0.0,0.0,0.0,0.0,0.0,0.0,0.0,0.0,0.0,0.0,0.0,0.0,0.0,0.0,0.0,0.0,0.0,0.0,0.0,0.0,0.0,0.0,0.0,0.0,0.0,0.0,0.0,0.0,0.0,0.0,0.0,0.0,0.0,0.0,0.0,0.0,0.0,0.0,0.0,0.0,0.0,0.0,0.0,0.0,0.0,0.0,0.0,0.0,0.0,0.0,0.0,0.0,0.0,0.0,0.0,0.0,0.0,0.0,0.0,0.0,0.0,0.0,0.0,0.0,0.0,0.0,0.0,0.0,0.0,0.0,0.0,0.0,-1.1719,-1.1456,-1.1343,-1.1375,-1.1232,-1.1289,0.0,0.0,0.0,0.0,0.0,0.0,0.0,0.0,0.0,0.0,0.0,0.0,0.0,0.0,0.0,0.0,0.0,0.0,0.0,0.0,0.0,0.0,0.0,0.0,0.0,0.0,0.0,0.0,0.0,0.0,0.0,0.0,0.0,0.0,0.0,0.0,0.0,0.0,0.0,0.0,0.0,0.0,0.0,0.0,0.0,0.0,0.0,0.0,0.0,0.0,0.0,0.0,0.0,0.0,0.0,0.0,0.0,0.0,0.0,0.0,0.0,0.0,0.0,0.0,0.0,0.0,0.0,0.0,0.0,0.0,0.0,0.0,0.0,0.0,0.0,0.0,0.0,0.0,0.0,0.0,0.0,0.0,0.0,0.0,0.0,0.0,0.0,0.0,0.0,0.0,0.0,0.0,0.0,0.0,0.0,0.0,0.0,0.0,0.0,0.0,0.0,0.0,0.0,0.0,0.0,0.0,0.0,0.0,0.0,-1.1395,0.0,-1.1089,-1.1246,-1.1102,-1.1112,0.0,0.0,0.0,0.0,0.0,0.0,0.0,0.0,0.0,0.0,0.0,0.0,0.0,0.0,0.0,0.0,0.0,0.0,0.0,0.0,0.0,0.0,0.0,0.0,0.0,0.0,0.0,0.0,0.0,0.0,0.0,0.0,0.0,0.0,0.0,0.0,0.0,0.0,0.0,0.0,0.0,0.0,0.0,0.0,0.0,0.0,0.0,0.0,0.0,0.0,0.0,0.0,0.0,0.0,0.0,0.0,0.0,0.0,0.0,0.0,0.0,0.0,0.0,0.0,0.0,0.0,0.0,0.0,0.0,0.0,0.0,0.0,0.0,0.0,0.0,0.0,0.0,0.0,0.0,0.0,0.0,0.0,0.0,0.0,0.0,0.0,0.0,0.0,0.0,0.0,0.0,0.0,0.0,0.0,0.0,0.0,0.0,0.0,0.0,0.0,0.0,0.0,0.0,0.0,0.0,0.0,0.0,0.0,-1.1724,-1.1382,-1.1122,-1.0989,-1.1012,-1.0989,-1.1106,0.0,0.0,0.0,0.0,0.0,0.0,0.0,0.0,0.0,0.0,0.0,0.0,0.0,0.0,0.0,0.0,0.0,0.0,0.0,0.0,0.0,0.0,0.0,0.0,0.0,0.0,0.0,0.0,0.0,0.0,0.0,0.0,0.0,0.0,0.0,0.0,0.0,0.0,0.0,0.0,0.0,0.0,0.0,0.0,0.0,0.0,0.0,0.0,0.0,0.0,0.0,0.0,0.0,0.0,0.0,0.0,0.0,0.0,0.0,0.0,0.0,0.0,0.0,0.0,0.0,0.0,0.0,0.0,0.0,0.0,0.0,0.0,0.0,0.0,0.0,0.0,0.0,0.0,0.0,0.0,0.0,0.0,0.0,0.0,0.0,0.0,0.0,0.0,0.0,0.0,0.0,0.0,0.0,0.0,0.0,0.0,0.0,0.0,0.0,0.0,0.0,0.0,0.0,0.0,0.0,0.0,0.0,0.0,0.0,-1.0865,-1.0774,-1.0804,-1.0975,-1.0811,-1.0945,0.0,0.0,0.0,0.0,0.0,0.0,0.0,0.0,0.0,0.0,0.0,0.0,0.0,0.0,0.0,0.0,0.0,0.0,0.0,0.0,0.0,0.0,0.0,0.0,0.0,0.0,0.0,0.0,0.0,0.0,0.0,0.0,0.0,0.0,0.0,0.0,0.0,0.0,0.0,0.0,0.0,0.0,0.0,0.0,0.0,0.0,0.0,0.0,0.0,0.0,0.0,0.0,0.0,0.0,0.0,0.0,0.0,0.0,0.0,0.0,0.0,0.0,0.0,0.0,0.0,0.0,0.0,0.0,0.0,0.0,0.0,0.0,0.0,0.0,0.0,0.0,0.0,0.0,0.0,0.0,0.0,0.0,0.0,0.0,0.0,0.0,0.0,0.0,0.0,0.0,0.0,0.0,0.0,0.0,0.0,0.0,0.0,0.0,0.0,0.0,0.0,0.0,0.0,0.0,0.0,0.0,0.0,0.0,0.0,-1.1115,-1.0952,-1.0985,-1.1132,-1.0992,-1.1109,-1.1553,0.0,0.0,0.0,0.0,0.0,0.0,0.0,0.0,0.0,0.0,0.0,0.0,0.0,0.0,0.0,0.0,0.0,0.0,0.0,0.0,0.0,0.0,0.0,0.0,0.0,0.0,0.0,0.0,0.0,0.0,0.0,0.0,0.0,0.0,0.0,0.0,0.0,0.0,0.0,0.0,0.0,0.0,0.0,0.0,0.0,0.0,0.0,0.0,0.0,0.0,0.0,0.0,0.0,0.0,0.0,0.0,0.0,0.0,0.0,0.0,0.0,0.0,0.0,0.0,0.0,0.0,0.0,0.0,0.0,0.0,0.0,0.0,0.0,0.0,0.0,0.0,0.0,0.0,0.0,0.0,0.0,0.0,0.0,0.0,0.0,0.0,0.0,0.0,0.0,0.0,0.0,0.0,0.0,0.0,0.0,0.0,0.0,0.0,0.0,0.0,0.0,0.0,0.0,0.0,0.0,0.0,0.0,0.0,-1.1915,-1.1637,-1.1472,-1.1459,-1.1419,-1.1577,0.0,0.0,0.0,0.0,0.0,0.0,0.0,0.0,0.0,0.0,0.0,0.0,0.0,0.0,0.0,0.0,0.0,0.0,0.0,0.0,0.0,0.0,0.0,0.0,0.0,0.0,0.0,0.0,0.0,0.0,0.0,0.0,0.0,0.0,0.0,0.0,0.0,0.0,0.0,0.0,0.0,0.0,0.0,0.0,0.0,0.0,0.0,0.0,0.0,0.0,0.0,0.0,0.0,0.0,0.0,0.0,0.0,0.0,0.0,0.0,0.0,0.0,0.0,0.0,0.0,0.0,0.0,0.0,0.0,0.0,0.0,0.0,0.0,0.0,0.0,0.0,0.0,0.0,0.0,0.0,0.0,0.0,0.0,0.0,0.0,0.0,0.0,0.0,0.0,0.0,0.0,0.0,0.0,0.0,0.0,0.0,0.0,0.0,0.0,0.0,0.0,0.0,0.0,0.0,0.0,0.0,0.0,0.0,0.0,-1.2204,-1.2343,-1.2316,-1.2071,-1.1633,-1.1646,0.0,0.0,0.0,0.0,0.0,0.0,0.0,0.0,0.0,0.0,0.0,0.0,0.0,0.0,0.0,0.0,0.0,0.0,0.0,0.0,0.0,0.0,0.0,0.0,0.0,0.0,0.0,0.0,0.0,0.0,0.0,0.0,0.0,0.0,0.0,0.0,0.0,0.0,0.0,0.0,0.0,0.0,0.0,0.0,0.0,0.0,0.0,0.0,0.0,0.0,0.0,0.0,0.0,0.0,0.0,0.0,0.0,0.0,0.0,0.0,0.0,0.0,0.0,0.0,0.0,0.0,0.0,0.0,0.0,0.0,0.0,0.0,0.0,0.0,0.0,0.0,0.0,0.0,0.0,0.0,0.0,0.0,0.0,0.0,0.0,0.0,0.0,0.0,0.0,0.0,0.0,0.0,0.0,0.0,0.0,0.0,0.0,0.0,0.0,0.0,0.0,0.0,0.0,0.0,0.0,0.0,0.0,0.0,-1.2872,-1.2673,-1.2865,-1.2939,-1.2847,-1.2298,-1.2078,0.0,0.0,0.0,0.0,0.0,0.0,0.0,0.0,0.0,0.0,0.0,0.0,0.0,0.0,0.0,0.0,0.0,0.0,0.0,0.0,0.0,0.0,0.0,0.0,0.0,0.0,0.0,0.0,0.0,0.0,0.0,0.0,0.0,0.0,0.0,0.0,0.0,0.0,0.0,0.0,0.0,0.0,0.0,0.0,0.0,0.0,0.0,0.0,0.0,0.0,0.0,0.0,0.0,0.0,0.0,0.0,0.0,0.0,0.0,0.0,0.0,0.0,0.0,0.0,0.0,0.0,0.0,0.0,0.0,0.0,0.0,0.0,0.0,0.0,0.0,0.0,0.0,0.0,0.0,0.0,0.0,0.0,0.0,0.0,0.0,0.0,0.0,0.0,0.0,0.0,0.0,0.0,0.0,0.0,0.0,0.0,0.0,0.0,0.0,0.0,0.0,0.0,0.0,0.0,0.0,0.0,0.0,0.0,-1.3273,-1.328,-1.33,-1.34,-1.3613,-1.3099,-1.2663,0.0,0.0,0.0,0.0,0.0,0.0,0.0,0.0,0.0,0.0,0.0,0.0,0.0,0.0,0.0,0.0,0.0,0.0,0.0,0.0,0.0,0.0,0.0,0.0,0.0,0.0,0.0,0.0,0.0,0.0,0.0,0.0,0.0,0.0,0.0,0.0,0.0,0.0,0.0,0.0,0.0,0.0,0.0,0.0,0.0,0.0,0.0,0.0,0.0,0.0,0.0,0.0,0.0,0.0,0.0,0.0,0.0,0.0,0.0,0.0,0.0,0.0,0.0,0.0,0.0,0.0,0.0,0.0,0.0,0.0,0.0,0.0,0.0,0.0,0.0,0.0,0.0,0.0,0.0,0.0,0.0,0.0,0.0,0.0,0.0,0.0,0.0,0.0,0.0,0.0,0.0,0.0,0.0,0.0,0.0,0.0,0.0,0.0,0.0,0.0,0.0,0.0,0.0,0.0,0.0,0.0,0.0,0.0,-1.364,-1.3895,-1.3901,-1.3928,-1.3988,-1.3226,-1.275,0.0,0.0,0.0,0.0,0.0,0.0,0.0,0.0,0.0,0.0,0.0,0.0,0.0,0.0,0.0,0.0,0.0,0.0,0.0,0.0,0.0,0.0,0.0,0.0,0.0,0.0,0.0,0.0,0.0,0.0,0.0,0.0,0.0,0.0,0.0,0.0,0.0,0.0,0.0,0.0,0.0,0.0,0.0,0.0,0.0,0.0,0.0,0.0,-0.628,0.0,0.0,0.0,0.0,0.0,0.0,0.0,0.0,0.0,0.0,0.0,0.0,0.0,0.0,0.0,0.0,0.0,0.0,0.0,0.0,0.0,0.0,0.0,0.0,0.0,0.0,0.0,0.0,0.0,0.0,0.0,0.0,0.0,0.0,0.0,0.0,0.0,0.0,0.0,0.0,0.0,0.0,0.0,0.0,0.0,0.0,0.0,0.0,0.0,0.0,0.0,0.0,0.0,0.0,0.0,0.0,0.0,0.0,0.0,-1.3907,-1.4088,-1.4243,-1.4295,-1.4262,-1.3447,-1.2938,0.0,0.0,0.0,0.0,0.0,0.0,0.0,0.0,0.0,0.0,0.0,0.0,0.0,0.0,0.0,0.0,0.0,0.0,0.0,0.0,0.0,0.0,0.0,0.0,0.0,0.0,0.0,0.0,0.0,0.0,0.0,0.0,0.0,0.0,0.0,0.0,0.0,0.0,0.0,0.0,0.0,0.0,0.0,0.0,0.0,0.0,0.0,0.0,0.0,0.0,0.0,0.0,0.0,0.0,0.0,0.0,0.0,0.0,0.0,0.0,0.0,0.0,0.0,0.0,0.0,0.0,0.0,0.0,0.0,0.0,0.0,0.0,0.0,0.0,0.0,0.0,0.0,0.0,0.0,0.0,0.0,0.0,0.0,0.0,0.0,0.0,0.0,0.0,0.0,0.0,0.0,0.0,0.0,0.0,0.0,0.0,0.0,0.0,0.0,0.0,0.0,0.0,0.0,0.0,0.0,0.0,0.0,-1.3721,-1.4176,-1.431,-1.4489,-1.4583,-1.4576,-1.3714,-1.3126,-1.2871,0.0,0.0,0.0,0.0,0.0,0.0,0.0,0.0,0.0,0.0,0.0,0.0,0.0,0.0,0.0,0.0,0.0,0.0,0.0,0.0,0.0,0.0,0.0,0.0,0.0,0.0,0.0,0.0,0.0,0.0,0.0,0.0,0.0,0.0,0.0,0.0,0.0,0.0,-0.6045,-0.6216,0.0,0.0,0.0,0.0,0.0,0.0,0.0,0.0,-0.628,0.0,0.0,0.0,0.0,0.0,0.0,0.0,0.0,0.0,0.0,0.0,0.0,0.0,0.0,0.0,0.0,0.0,0.0,0.0,0.0,0.0,0.0,0.0,0.0,0.0,0.0,0.0,0.0,0.0,0.0,0.0,0.0,0.0,0.0,0.0,0.0,0.0,0.0,0.0,0.0,0.0,0.0,0.0,0.0,0.0,0.0,0.0,0.0,0.0,0.0,0.0,0.0,0.0,0.0,0.0,0.0,-1.3869,-1.4029,-1.4442,-1.515,-1.5013,-1.4912,-1.4892,-1.4014,-1.3413,-1.3133,0.0,0.0,0.0,0.0,0.0,0.0,0.0,0.0,0.0,0.0,0.0,0.0,0.0,0.0,0.0,0.0,0.0,0.0,0.0,0.0,0.0,0.0,0.0,0.0,0.0,0.0,0.0,0.0,0.0,0.0,0.0,0.0,0.0,0.0,0.0,0.0,0.0,0.0,0.0,-0.6369,-0.6433,0.0,0.0,0.0,0.0,0.0,0.0,0.0,0.0,-0.628,0.0,0.0,0.0,0.0,0.0,0.0,0.0,0.0,0.0,0.0,0.0,0.0,0.0,0.0,0.0,0.0,0.0,0.0,0.0,0.0,0.0,0.0,0.0,0.0,0.0,0.0,0.0,0.0,0.0,0.0,0.0,0.0,0.0,0.0,0.0,0.0,0.0,0.0,0.0,0.0,0.0,0.0,0.0,0.0,0.0,0.0,0.0,0.0,0.0,0.0,0.0,0.0,0.0,0.0,0.0,-1.3834,-1.4309,-1.4845,-1.5364,-1.5133,-1.5015,-1.4988,-1.3961,-1.3333,0.0,0.0,0.0,0.0,0.0,0.0,0.0,0.0,0.0,0.0,0.0,0.0,0.0,0.0,0.0,0.0,0.0,0.0,0.0,0.0,0.0,0.0,0.0,0.0,0.0,0.0,0.0,0.0,0.0,0.0,0.0,0.0,0.0,0.0,0.0,0.0,0.0,0.0,0.0,0.0,-0.6422,-0.644,-0.632,0.0,0.0,0.0,0.0,0.0,0.0,-0.628,-0.628,0.0,0.0,0.0,0.0,0.0,0.0,0.0,0.0,0.0,0.0,0.0,0.0,0.0,0.0,0.0,0.0,0.0,0.0,0.0,0.0,0.0,0.0,0.0,0.0,0.0,0.0,0.0,0.0,0.0,0.0,0.0,0.0,0.0,0.0,0.0,0.0,0.0,0.0,0.0,0.0,0.0,0.0,0.0,0.0,0.0,0.0,0.0,0.0,0.0,0.0,0.0,0.0,0.0,0.0,0.0,-1.3727,-1.4543,-1.516,-1.5451,-1.5166,-1.5015,-1.4995,-1.3941,-1.336,0.0,0.0,0.0,0.0,0.0,0.0,0.0,0.0,0.0,0.0,0.0,0.0,0.0,0.0,0.0,0.0,0.0,0.0,0.0,0.0,0.0,0.0,0.0,0.0,0.0,0.0,0.0,0.0,0.0,0.0,0.0,0.0,0.0,0.0,0.0,0.0,0.0,0.0,0.0,0.0,0.0,-0.6522,-0.6352,-0.6439,0.0,0.0,0.0,0.0,-0.6344,-0.6368,0.0,0.0,0.0,0.0,0.0,0.0,0.0,0.0,0.0,0.0,0.0,0.0,0.0,0.0,0.0,0.0,0.0,0.0,0.0,0.0,0.0,0.0,0.0,0.0,0.0,0.0,0.0,0.0,0.0,0.0,0.0,0.0,0.0,0.0,0.0,0.0,0.0,0.0,0.0,0.0,0.0,0.0,0.0,0.0,0.0,0.0,0.0,0.0,0.0,0.0,0.0,0.0,0.0,0.0,0.0,0.0,-1.4035,-1.4671,-1.5247,-1.5695,-1.5267,-1.5015,-1.5001,-1.435,-1.3861,0.0,0.0,0.0,0.0,0.0,0.0,0.0,0.0,0.0,0.0,0.0,0.0,0.0,0.0,0.0,0.0,0.0,0.0,0.0,0.0,0.0,0.0,0.0,0.0,0.0,0.0,0.0,0.0,0.0,0.0,0.0,0.0,0.0,0.0,0.0,0.0,0.0,0.0,0.0,0.0,0.0,-0.6752,-0.6528,-0.6501,-0.6443,0.0,0.0,-0.6487,-0.6487,-0.658,0.0,0.0,0.0,0.0,0.0,0.0,0.0,0.0,0.0,0.0,0.0,0.0,0.0,0.0,0.0,0.0,0.0,0.0,0.0,0.0,0.0,0.0,0.0,0.0,0.0,0.0,0.0,0.0,0.0,0.0,0.0,0.0,0.0,0.0,0.0,0.0,0.0,0.0,0.0,0.0,0.0,0.0,0.0,0.0,0.0,0.0,0.0,0.0,0.0,0.0,0.0,0.0,0.0,0.0,0.0,-1.3647,-1.4116,-1.4845,-1.5411,-1.5775,-1.5418,-1.5153,-1.5015,-1.4417,-1.3948,0.0,0.0,0.0,0.0,0.0,0.0,0.0,0.0,0.0,0.0,0.0,0.0,0.0,0.0,0.0,0.0,0.0,0.0,0.0,0.0,0.0,0.0,0.0,0.0,0.0,0.0,0.0,0.0,0.0,0.0,0.0,0.0,0.0,0.0,0.0,0.0,0.0,0.0,0.0,0.0,0.0,0.0,-0.6641,-0.6678,0.0,0.0,0.0,-0.6651,-0.6698,0.0,0.0,0.0,0.0,0.0,0.0,0.0,0.0,0.0,0.0,0.0,0.0,0.0,0.0,0.0,0.0,0.0,0.0,0.0,0.0,0.0,0.0,0.0,0.0,0.0,0.0,0.0,0.0,0.0,0.0,0.0,0.0,0.0,0.0,0.0,0.0,0.0,0.0,0.0,0.0,0.0,0.0,0.0,0.0,0.0,0.0,0.0,0.0,0.0,0.0,0.0,0.0,0.0,0.0,0.0,0.0,0.0,-1.4116,-1.5023,-1.5605,-1.5788,-1.5551,-1.528,-1.5015,-1.4462,0.0,0.0,0.0,0.0,0.0,0.0,0.0,0.0,0.0,0.0,0.0,0.0,0.0,0.0,0.0,0.0,0.0,0.0,0.0,0.0,0.0,0.0,0.0,0.0,0.0,0.0,0.0,-0.9576,0.0,0.0,0.0,0.0,0.0,0.0,0.0,0.0,0.0,0.0,0.0,0.0,0.0,0.0,-0.7097,-0.6898,-0.6945,-0.7006,0.0,0.0,-0.6895,-0.6927,-0.6992,-0.6976,0.0,0.0,0.0,0.0,0.0,0.0,0.0,0.0,0.0,0.0,0.0,0.0,0.0,0.0,0.0,0.0,0.0,0.0,0.0,0.0,0.0,0.0,0.0,0.0,0.0,0.0,0.0,0.0,0.0,0.0,0.0,0.0,0.0,0.0,0.0,0.0,0.0,0.0,0.0,0.0,0.0,0.0,0.0,0.0,0.0,0.0,0.0,0.0,0.0,0.0,0.0,0.0,0.0,0.0,0.0,-1.4122,-1.5217,-1.5781,-1.5795,-1.5521,-1.528,-1.4992,-1.4656,-1.48,0.0,0.0,0.0,0.0,0.0,0.0,0.0,0.0,0.0,0.0,0.0,0.0,0.0,0.0,0.0,0.0,0.0,0.0,0.0,0.0,0.0,0.0,0.0,0.0,0.0,0.0,0.0,0.0,0.0,0.0,0.0,0.0,0.0,0.0,0.0,0.0,0.0,0.0,0.0,0.0,0.0,-0.7372,-0.7352,-0.7359,-0.7311,0.0,0.0,-0.7282,-0.7124,-0.7248,-0.7244,-0.6941,0.0,0.0,0.0,0.0,0.0,0.0,0.0,0.0,0.0,0.0,0.0,0.0,0.0,0.0,0.0,0.0,0.0,0.0,0.0,0.0,0.0,0.0,0.0,0.0,0.0,0.0,0.0,0.0,0.0,0.0,0.0,0.0,0.0,0.0,0.0,0.0,0.0,0.0,0.0,0.0,0.0,0.0,0.0,0.0,0.0,0.0,0.0,0.0,0.0,0.0,0.0,0.0,0.0,-1.5091,-1.5347,-1.5631,-1.5801,-1.5795,-1.5545,-1.5257,-1.4992,-1.4676,-1.4548,0.0,0.0,0.0,0.0,0.0,0.0,0.0,0.0,0.0,0.0,0.0,0.0,0.0,0.0,0.0,0.0,0.0,0.0,0.0,0.0,0.0,0.0,0.0,0.0,0.0,0.0,0.0,0.0,-1.1621,-1.1026,-1.1091,0.0,0.0,0.0,0.0,0.0,0.0,0.0,0.0,0.0,0.0,-0.7536,-0.7536,-0.7536,0.0,0.0,-0.7529,-0.7522,-0.7523,-0.7529,-0.7441,-0.7234,-0.71,0.0,0.0,0.0,0.0,0.0,0.0,0.0,0.0,0.0,0.0,0.0,0.0,0.0,0.0,0.0,0.0,0.0,0.0,0.0,0.0,0.0,0.0,0.0,0.0,0.0,0.0,0.0,0.0,0.0,0.0,0.0,0.0,0.0,0.0,0.0,0.0,0.0,0.0,0.0,0.0,0.0,0.0,0.0,0.0,0.0,0.0,0.0,0.0,0.0,0.0,0.0,0.0,-1.5831,-1.6097,-1.5892,-1.5801,-1.5801,-1.5608,-1.5351,-1.5022,-1.5081,-1.5125,0.0,0.0,0.0,0.0,0.0,0.0,0.0,0.0,0.0,0.0,0.0,0.0,0.0,0.0,0.0,0.0,0.0,0.0,0.0,0.0,0.0,0.0,0.0,0.0,0.0,0.0,0.0,0.0,-1.2064,-1.1649,-1.1649,0.0,0.0,0.0,0.0,0.0,0.0,0.0,0.0,0.0,0.0,-0.7678,-0.7726,-0.7705,-0.7739,-0.7841,-0.7773,-0.7753,-0.778,-0.7729,-0.7594,-0.7404,0.0,0.0,0.0,0.0,0.0,0.0,0.0,0.0,0.0,0.0,0.0,0.0,0.0,0.0,0.0,0.0,0.0,0.0,0.0,0.0,0.0,0.0,0.0,0.0,0.0,0.0,0.0,0.0,0.0,0.0,-2.122,0.0,0.0,0.0,0.0,0.0,0.0,0.0,0.0,0.0,0.0,0.0,0.0,0.0,0.0,0.0,0.0,0.0,0.0,0.0,0.0,0.0,0.0,-1.611,-1.6097,-1.5961,-1.5855,-1.5849,-1.5818,-1.5601,-1.5073,-1.6006,-1.6748,-1.7164,0.0,0.0,0.0,0.0,0.0,0.0,0.0,0.0,0.0,0.0,0.0,0.0,0.0,0.0,0.0,0.0,0.0,0.0,0.0,0.0,0.0,0.0,0.0,0.0,0.0,0.0,-1.4005,-1.4018,-1.3976,0.0,0.0,0.0,0.0,0.0,0.0,0.0,0.0,0.0,0.0,-0.7719,-0.7862,-0.7979,-0.8003,-0.7971,-0.8006,-0.8003,-0.7952,-0.7838,-0.7783,-0.7709,0.0,0.0,0.0,0.0,0.0,0.0,0.0,0.0,0.0,0.0,0.0,0.0,0.0,0.0,0.0,0.0,0.0,0.0,0.0,0.0,0.0,0.0,0.0,0.0,0.0,0.0,0.0,-2.1807,-2.168,0.0,0.0,0.0,0.0,0.0,0.0,0.0,0.0,0.0,0.0,0.0,-2.1864,-2.1131,0.0,0.0,0.0,0.0,0.0,0.0,0.0,0.0,0.0,0.0,0.0,0.0,-1.7241,-1.7465,-1.722,-1.7061,-1.7084,-1.7659,-1.7424,-1.6242,-1.6336,-1.6357,-1.6227,0.0,0.0,0.0,0.0,0.0,0.0,0.0,0.0,0.0,0.0,0.0,0.0,0.0,0.0,0.0,0.0,0.0,0.0,0.0,0.0,0.0,0.0,0.0,0.0,0.0,-1.4109,0.0,0.0,0.0,0.0,0.0,0.0,0.0,0.0,0.0,0.0,0.0,-0.7519,-0.7716,-0.778,-0.7868,-0.7993,-0.7988,-0.7988,0.0,0.0,0.0,0.0,0.0,0.0,0.0,0.0,0.0,0.0,0.0,0.0,0.0,0.0,-0.8045,-0.76,-0.7482,-0.7425,-0.7425,0.0,0.0,0.0,0.0,0.0,0.0,0.0,0.0,0.0,0.0,0.0,0.0,0.0,0.0,0.0,0.0,-2.2109,0.0,0.0,0.0,0.0,0.0,0.0,0.0,0.0,-2.1511,-2.1599,-2.2272,-2.1547,-2.1599,0.0,-2.2324,-2.2079,0.0,0.0,0.0,0.0,0.0,0.0,0.0,0.0,-1.8142,-1.8776,-1.8091,-1.7893,-1.8334,-1.8935,-1.8702,-1.7642,-1.7501,-1.7253,-1.6866,-1.6846,-1.7163,0.0,0.0,0.0,0.0,0.0,0.0,0.0,0.0,0.0,0.0,0.0,0.0,0.0,0.0,0.0,0.0,0.0,0.0,0.0,0.0,0.0,0.0,0.0,-1.4109,0.0,0.0,0.0,0.0,0.0,0.0,0.0,0.0,0.0,-0.9077,-0.8137,-0.7675,-0.7841,-0.7892,-0.7922,-0.8074,0.0,0.0,0.0,0.0,0.0,0.0,0.0,-0.8028,-0.7977,-0.7933,-0.7889,-0.7866,-0.8031,-0.8211,-0.8287,0.0,0.0,-0.7998,-0.7889,-0.7848,-0.7899,-0.7868,-0.7903,-0.8014,-0.7498,-0.7018,0.0,0.0,0.0,0.0,0.0,0.0,0.0,0.0,-2.311,-2.2908,0.0,-2.2519,0.0,0.0,0.0,0.0,0.0,-2.2314,0.0,0.0,-2.2896,-2.3091,-2.3101,-2.3059,-2.3081,-2.3091,-2.3071,-2.2888,-2.2469,-2.1669,0.0,0.0,0.0,0.0,0.0,0.0,-1.8853,-1.9911,-1.8603,-1.8388,-1.9511,-1.9625,-1.9473,-1.9151,-1.9361,-1.9282,-1.8962,-1.8866,-1.8937,-1.8977,-1.9006,0.0,0.0,0.0,0.0,0.0,0.0,0.0,0.0,0.0,0.0,0.0,0.0,0.0,0.0,0.0,0.0,0.0,0.0,0.0,0.0,-1.4095,0.0,0.0,0.0,0.0,0.0,0.0,0.0,0.0,0.0,0.0,-1.1433,-0.9413,-0.8063,-0.8095,0.0,0.0,0.0,0.0,-0.8304,-0.8304,-0.8417,-0.8505,-0.8502,-0.8502,-0.8454,-0.8321,0.0,0.0,-0.8332,-0.8423,-0.8475,-0.8355,-0.8454,-0.8496,-0.8529,-0.8386,-0.8332,-0.8425,-0.8366,-0.8352,-0.8396,-0.7345,-0.6292,-2.4245,0.0,0.0,0.0,0.0,-2.3903,-2.403,-2.401,-2.3708,-2.3545,-2.3389,-2.2762,0.0,0.0,0.0,0.0,0.0,0.0,-2.2842,-2.3398,-2.322,-2.3288,-2.3584,-2.3259,-2.3101,-2.3101,-2.3101,-2.3033,-2.2918,-2.2401,-2.1971,-2.1709,0.0,0.0,0.0,0.0,-2.0156,-2.0463,-2.0323,-2.044,-2.0778,-2.1632,-2.1537,-2.0411,-1.9129,-1.8411,-1.8288,-1.7963,-1.8169,-1.8966,-1.9006,0.0,0.0,0.0,0.0,0.0,0.0,0.0,0.0,0.0,0.0,0.0,0.0,0.0,0.0,0.0,0.0,0.0,0.0,0.0,-1.4347,-1.4396,-1.4482,0.0,0.0,0.0,0.0,0.0,0.0,0.0,0.0,0.0,-1.2113,-1.0469,-0.9508,0.0,0.0,-0.8359,-0.8304,-0.8383,-0.8444,-0.8447,0.0,0.0,0.0,-0.8509,-0.8495,-0.8454,-0.8481,-0.8503,-0.8574,-0.8618,-0.8699,-0.889,-0.8873,-0.8838,-0.8944,-0.8689,-0.8481,-0.8495,-0.8475,-0.8495,-0.8521,-0.7408,-0.6323,-2.5382,-2.4153,-2.4518,-2.4629,-2.456,-2.4463,-2.4512,-2.4639,-2.4219,-2.4043,-2.4014,-2.3464,-2.3249,-2.323,-2.2998,0.0,0.0,0.0,-2.3545,-2.4033,-2.3747,-2.3757,-2.4004,-2.3747,-2.3532,-2.3376,-2.3376,-2.3288,-2.3091,-2.2859,-2.2615,-2.2373,0.0,0.0,-2.1894,-2.1102,-2.0941,-2.1379,-2.1324,-2.1525,-2.2,-2.2721,-2.2594,-2.1552,-2.0401,-1.9698,-1.9537,-1.8696,-1.8739,-1.9811,-1.9315,-1.951,0.0,0.0,0.0,0.0,0.0,0.0,0.0,0.0,0.0,0.0,0.0,-1.4552,-1.4124,0.0,0.0,0.0,-1.4195,-1.4329,-1.4502,-1.4623,0.0,0.0,0.0,0.0,0.0,0.0,0.0,-1.5732,-1.5358,-1.4868,-1.4228,-1.29,-1.1424,-0.9916,-0.9004,-0.8472,-0.8475,0.0,-0.857,-0.8574,-0.8672,-0.8726,-0.8676,-0.876,-0.8866,-0.8866,-0.8866,-0.8893,-0.8954,-0.8974,-0.9039,-0.9209,-0.9174,-0.914,-0.9257,-0.8998,-0.8726,-0.8676,-0.8662,-0.8669,-0.8757,-0.7549,-0.6354,-2.6625,-2.5884,-2.5483,-2.5478,-2.5679,-2.4928,-2.4853,-2.52,-2.4756,-2.4528,-2.4498,-2.4459,-2.4443,-2.4414,-2.4424,0.0,-2.4424,-2.4424,-2.4391,-2.4473,-2.4434,-2.4443,-2.444,-2.4401,-2.4219,-2.386,-2.3848,-2.361,-2.3227,-2.323,-2.322,-2.3179,-2.2471,-2.207,-2.2009,-2.1357,-2.1534,-2.2584,-2.1879,-2.2024,-2.3079,-2.3101,-2.2937,-2.2566,-2.2479,-2.2254,-2.1864,-2.0471,-2.0147,-2.1042,-1.9853,-1.9579,-2.0527,0.0,0.0,0.0,0.0,0.0,0.0,0.0,0.0,0.0,0.0,0.0,0.0,0.0,0.0,0.0,-1.4402,0.0,-1.4567,-1.4859,0.0,0.0,0.0,-1.5431,-1.5431,-1.5691,-1.5965,-1.6264,0.0,0.0,-1.6972,0.0,-1.3562,-0.9578,-0.8867,-0.8749,-0.8868,-0.8818,-0.8743,-0.8754,-0.9012,-0.9113,-0.8974,-0.9157,-0.9352,-0.9352,-0.941,-0.9376,-0.9351,-0.9386,-0.9403,-0.9427,-0.9391,-0.9413,-0.9395,-0.9291,-0.9158,-0.8967,-0.8929,-0.8926,-0.8871,-0.7755,-0.6337,-2.7897,-2.7646,-2.7252,-2.6763,-2.625,-2.6332,-2.643,-2.6514,-2.6103,-2.5732,-2.5386,-2.5068,-2.4727,-2.4424,-2.4424,-2.4424,-2.4424,-2.4424,-2.46,-2.4906,-2.457,-2.46,-2.4916,-2.458,-2.4342,-2.4277,-2.4268,-2.4196,-2.4088,-2.4098,-2.4088,-2.4079,-2.3906,-2.3652,-2.3359,-2.3471,-2.3487,-2.3486,-2.3306,-2.3168,-2.311,-2.3101,-2.3042,-2.2967,-2.2363,-2.2013,-2.1896,-2.0923,-2.0468,-2.0723,-2.0401,-2.0323,-2.0586,-2.0596,0.0,0.0,0.0,0.0,0.0,0.0,0.0,0.0,0.0,-1.5052,-1.4794,0.0,-1.48,0.0,-1.4839,-1.4966,-1.517,-1.5251,0.0,0.0,-1.5661,-1.5701,-1.5701,-1.5992,-1.6192,-1.629,-1.6717,-1.6624,-1.5626,-1.539,-1.4547,-1.2485,-1.1212,-1.0508,-1.0498,-0.9664,-0.9077,-0.9108,-0.9248,-0.9298,-0.9175,-0.9288,-0.941,-0.941,-0.941,-0.941,-0.941,-0.941,-0.9418,-0.952,-0.9456,-0.9439,-0.953,-0.9461,-0.9349,-0.9273,-0.9213,-0.9131,-0.9103,-0.798,-0.6546,-2.8564,-2.8535,-2.8125,-2.7692,-2.7226,-2.7054,-2.7129,-2.7266,-2.6855,-2.6533,-2.6264,-2.584,-2.542,-2.4986,-2.4976,-2.4986,-2.4986,-2.5181,-2.5322,-2.5361,-2.5312,-2.5322,-2.5361,-2.5093,-2.4879,-2.4707,-2.4707,-2.4609,-2.4401,-2.4424,-2.4424,-2.4424,-2.4609,-2.4613,-2.4398,-2.4404,-2.4307,-2.4062,-2.3887,-2.3574,-2.311,-2.3101,-2.3101,-2.3081,-2.251,-2.2168,-2.2158,-2.1328,-2.0947,-2.1162,-2.0987,-2.0859,-2.0869,-2.1065,-2.1084,0.0,0.0,0.0,0.0,0.0,0.0,0.0,0.0,0.0,0.0,0.0,-1.5015,-1.5015,-1.5099,-1.5247,-1.5384,-1.5518,-1.5651,-1.5788,-1.5801,-1.5801,-1.5801,-1.6116,-1.6344,-1.6478,-1.6899,-1.6937,-1.6254,-1.6293,-1.6088,-1.5289,-1.3405,-1.2077,-1.1951,-1.0927,-1.0051,-1.0023,-0.9628,-0.9311,-0.9277,-0.9352,-0.9405,-0.9469,-0.9537,-0.9578,-0.9578,-0.9578,-0.9608,-0.9676,-0.9581,-0.9507,-0.9585,-0.9454,-0.9311,-0.9298,-0.924,-0.9241,-0.9271,-0.8676,-0.7648,-2.8945,-2.8975,-2.8545,-2.8369,-2.831,-2.7519,-2.7393,-2.7751,-2.7344,-2.7148,-2.707,-2.6675,-2.626,-2.5859,-2.5874,-2.5849,-2.5893,-2.624,-2.6191,-2.5835,-2.6152,-2.6103,-2.5708,-2.5708,-2.5527,-2.519,-2.518,-2.4984,-2.4567,-2.4557,-2.4567,-2.4576,-2.4961,-2.518,-2.516,-2.4775,-2.4498,-2.4391,-2.4053,-2.3643,-2.3132,-2.3171,-2.313,-2.3003,-2.2625,-2.2402,-2.2334,-2.1562,-2.1298,-2.17,-2.1337,-2.1152,-2.119,-2.1592,-2.166,0.0,-2.1719,0.0,0.0,0.0,0.0,0.0,0.0,0.0,0.0,-1.5206,-1.5099,-1.5099,-1.5304,-1.5458,-1.5451,-1.5655,-1.5801,-1.5808,-1.5841,-1.5861,-1.5881,-1.6203,-1.6511,-1.674,-1.7046,-1.7334,-1.7502,-1.7615,-1.7615,-1.7259,-1.5476,-1.4019,-1.3701,-1.206,-1.065,-1.0873,-0.9926,-0.9272,-0.9362,-0.9403,-0.9425,-0.9554,-0.9642,-0.9731,-0.973,-0.9707,-0.9751,-0.9741,-0.9635,-0.9571,-0.9581,-0.939,-0.9258,-0.9258,-0.9258,-0.9254,-0.9335,-0.9328,-0.8881,-2.9121,-2.9432,-2.8984,-2.8799,-2.876,-2.8262,-2.8096,-2.82,-2.8076,-2.7861,-2.7536,-2.709,-2.683,-2.6752,-2.6752,-2.6752,-2.6758,-2.6504,-2.6372,-2.626,-2.5962,-2.5771,-2.5693,-2.5708,-2.5645,-2.5591,-2.5581,-2.5552,-2.544,-2.544,-2.5454,-2.5454,-2.5542,-2.5591,-2.5581,0.0,0.0,0.0,-2.4336,-2.3903,-2.314,-2.3454,-2.334,-2.2635,-2.2227,0.0,-2.1464,-2.0996,-2.0762,-2.083,-2.0752,0.0,0.0,0.0,0.0,0.0,0.0,0.0,0.0,0.0,0.0,0.0,-1.8607,-1.7658,-1.7205,-1.6267,-1.5641,-1.5671,-1.5695,-1.5721,-1.5721,-1.5768,-1.5801,-1.5815,-1.6046,-1.6217,-1.623,-1.6678,-1.7033,-1.7086,-1.7347,-1.7541,-1.7595,-1.7615,-1.7615,-1.7582,-1.7114,-1.6797,-1.6658,-1.2636,-0.9739,-0.9536,-0.9349,-0.9233,-0.939,-0.94,-0.9374,-0.9458,-0.9468,-0.9473,-0.9479,-0.9505,-0.9469,-0.9505,-0.9471,-0.9425,-0.9454,-0.94,-0.9339,-0.9366,-0.9356,-0.9339,-0.925,-0.9325,-0.891,-2.956,0.0,-2.9101,-2.8772,0.0,-2.8379,-2.8301,-2.8301,-2.8301,-2.8083,-2.7682,-2.7432,-2.7217,-2.7012,-2.7012,-2.6904,-2.6709,-2.6699,-2.6475,-2.605,-2.6064,-2.5913,-2.5708,-2.5708,-2.5708,-2.5708,-2.5708,-2.5708,-2.5708,-2.5708,-2.5708,-2.5708,-2.5708,-2.5708,-2.5708,-2.5708,-2.5386,-2.4746,-2.4736,-2.4326,-2.3493,-2.3672,-2.3486,-2.283,0.0,0.0,0.0,0.0,0.0,0.0,0.0,0.0,0.0,0.0,0.0,-2.2197,-2.2576,-2.2791,-2.2779,-2.2421,-2.1921,-2.1311,-2.0147,-1.8718,-1.6913,-1.6157,-1.5801,-1.5801,-1.5801,-1.5801,-1.5801,-1.5801,-1.5801,-1.5808,-1.5965,-1.6106,-1.631,-1.6685,-1.7013,-1.7206,-1.7428,-1.7615,-1.7615,-1.7615,-1.7615,-1.7556,-1.6962,-1.6558,-1.624,-1.3546,-1.0857,-0.9349,-0.9045,-0.9072,-0.915,-0.9228,-0.9294,-0.9301,-0.9359,-0.9403,-0.941,-0.941,-0.941,-0.9403,-0.9352,-0.9298,-0.9291,-0.9243,-0.9164,-0.9164,-0.9164,-0.9115,-0.9069,-0.9254,-0.9175,-3.0039,-2.9794,-2.9326,-2.8869,-2.8516,-2.8437,-2.8359,-2.8301,0.0,0.0,0.0,-2.7809,-2.7614,-2.722,-2.7158,-2.6982,-2.6748,-2.6914,-2.6654,-2.6069,-2.6367,-2.6269,-2.5835,-2.5825,-2.5786,-2.5684,-2.5708,-2.5708,-2.5708,-2.5708,-2.5708,-2.5708,-2.5708,-2.5708,-2.5708,-2.5708,-2.5532,-2.5229,-2.5131,-2.4672,-2.3828,-2.3811,-2.3545,-2.2994,-2.2674,-2.248,-2.2402,-2.207,-2.2072,-2.2383,-2.2393,-2.241,-2.2498,-2.281,-2.2867,-2.2645,-2.2918,-2.3101,-2.3091,-2.2906,-2.2589,-2.2173,-2.1235,-1.9298,-1.6038,-1.6015,-1.6045,-1.5825,-1.5801,-1.5801,-1.5801,-1.5801,-1.5801,-1.5801,-1.5855,-1.6032,-1.6319,-1.6613,-1.6946,-1.7239,-1.7468,-1.7615,-1.7615,-1.7615,-1.7615,-1.7477,-1.6717,-1.5636,-1.5257,-1.3814,-1.1773,-0.9903,-0.9231,-0.8919,-0.8929,-0.9035,-0.9138,-0.9148,-0.9243,-0.93,-0.9306,-0.9303,-0.9303,-0.9276,-0.9195,-0.9158,-0.9134,-0.9032,-0.8912,-0.8909,-0.8909,-0.8909,-0.8929,-0.9127,-0.9251,-3.0391,-3.0664,-3.0215,-2.9775,-2.9383,-2.8994,-2.8623,-2.8301,-2.8301,-2.8262,-2.8203,-2.823,-2.8174,-2.8096,-2.777,-2.7761,-2.7969,-2.7324,-2.7148,0.0,-2.707,-2.6709,-2.6309,-2.6299,-2.6079,-2.5737,-2.5708,-2.5708,-2.5708,-2.5708,-2.5708,-2.5708,-2.5708,-2.5708,-2.5708,-2.5708,-2.5679,-2.561,-2.5264,-2.4672,-2.3818,-2.3811,-2.3408,-2.2646,-2.2537,-2.2334,-2.2003,-2.1954,-2.1935,-2.1984,-2.1973,-2.2139,-2.249,-2.2566,-2.2703,-2.2984,-2.3062,-2.3101,-2.3069,-2.2142,-2.0666,-1.8688,-1.8303,-1.7521,-1.6015,-1.6803,-1.6967,-1.5967,-1.5801,-1.5801,-1.5801,-1.5801,-1.5801,-1.5821,-1.6059,-1.6351,-1.6593,-1.6899,-1.7187,-1.7468,-1.7555,-1.7582,-1.7588,-1.7602,-1.7615,-1.7582,-1.7285,-1.6823,-1.547,-1.3097,-1.146,-1.0726,-0.9699,-0.902,-0.8916,-0.8923,-0.8981,-0.894,-0.8998,-0.9007,-0.9039,-0.9011,-0.9007,-0.8983,-0.8973,-0.8956,-0.895,-0.8929,-0.8912,-0.8909,-0.8909,-0.8909,-0.8909,-0.897,-0.8994,-3.0547,-3.0498,-3.0283,-2.9824,-2.918,-2.8769,-2.8476,-2.8301,-2.8301,-2.8301,-2.8301,-2.8301,-2.8301,-2.8262,-2.7878,-2.7637,-2.7588,-2.7172,-2.7002,-2.6998,-2.7002,-2.6904,-2.6738,-2.6728,-2.6479,-2.6113,-2.6069,-2.5942,-2.5713,-2.5708,-2.5708,-2.5708,-2.5708,-2.5708,-2.5708,-2.5708,-2.5708,-2.5708,-2.5513,-2.501,-2.416,-2.4131,-2.3721,-2.2838,-2.283,-2.2752,-2.2557,-2.2547,-2.2547,-2.2547,-2.2547,-2.2656,-2.281,-2.283,-2.2918,-2.3081,-2.3101,-2.3101,-2.3101,-2.1978,-2.0553,-1.8841,-1.868,-1.7832,-1.5944,-1.6322,-1.641,-1.5849,-1.5801,-1.5801,-1.5801,-1.5801,-1.5801,-1.5801,-1.5935,-1.6213,-1.662,-1.6807,-1.7053,-1.7327,-1.7521,-1.7548,-1.7388,-1.7508,-1.7608,-1.7615,-1.7608,-1.7285,-1.6631,-1.4797,-1.2805,-1.1406,-1.0511,-0.9781,-0.9103,-0.8909,-0.8909,-0.8909,-0.8909,-0.8909,-0.8909,-0.8909,-0.8909,-0.8909,-0.8909,-0.8909,-0.8909,-0.8909,-0.8909,-0.8909,-0.8909,-0.8909,-0.8909,-0.8909,-0.8936,-3.0537,-3.0195,-3.0098,-2.9619,-2.8869,-2.8467,-2.8301,-2.8301,-2.8301,-2.8301,-2.8301,-2.8301,-2.8301,-2.8252,-2.7878,-2.7565,-2.7314,-2.7197,-2.7041,-2.6875,-2.7148,-2.7256,-2.7158,-2.7158,-2.6943,-2.6562,-2.6435,-2.6211,-2.5884,-2.5767,-2.5708,-2.5708,-2.5708,-2.5708,-2.5708,-2.5708,-2.5708,-2.5708,-2.5708,-2.5328,-2.46,-2.4385,-2.3923,-2.3327,-2.314,-2.3101,-2.3101,-2.3101,-2.3101,-2.3101,-2.3101,-2.3101,-2.3101,-2.3101,-2.3101,-2.3101,-2.3101,-2.3101,-2.3047,-2.2262,-2.119,-2.0011,-1.9898,-1.8871,-1.6615,-1.6228,-1.6086,-1.5849,-1.5801,-1.5801,-1.5801,-1.5801,-1.5828,-1.5881,-1.5841,-1.6086,-1.6587,-1.6647,-1.6727,-1.704,-1.7327,-1.7394,-1.7207,-1.7327,-1.7488,-1.7495,-1.7561,-1.7615,-1.745,-1.6333,-1.4368,-1.243,-1.1351,-1.0699,-0.9565,-0.9071,-0.8964,-0.8909,-0.8909,-0.8909,-0.8909,-0.8909,-0.8909,-0.8909,-0.8909,-0.8909,-0.8909,-0.8909,-0.8909,-0.8909,-0.8909,-0.8909,-0.8909,-0.8909,-0.896,-3.0234,-3.0137,-2.9823,-2.9355,-2.8859,-2.8476,-2.8301,-2.8301,-2.8301,-2.8301,-2.8301,-2.8301,-2.8301,-2.8232,-2.7878,-2.7848,-2.8093,-2.78,-2.778,-2.8037,-2.8164,-2.8005,-2.7653,-2.7624,-2.7373,-2.6943,-2.6562,-2.6348,-2.623,-2.5884,-2.5708,-2.5708,-2.5708,-2.5708,-2.5708,-2.5708,-2.5708,-2.5708,-2.5708,-2.5508,-2.5024,-2.4271,-2.3831,-2.3763,-2.3318,-2.3101,-2.3101,-2.3101,-2.3101,-2.3101,-2.3101,-2.3101,-2.3101,-2.3101,-2.3101,-2.3101,-2.3101,-2.3101,-2.3091,-2.3003,-2.2337,-2.1302,-2.1025,-2.0034,-1.7793,-1.7505,-1.7014,-1.615,-1.5849,-1.5801,-1.5801,-1.5801,-1.5895,-1.6136,-1.5941,-1.6035,-1.6533,-1.6466,-1.6451,-1.6714,-1.7033,-1.71,-1.6847,-1.7046,-1.7239,-1.7239,-1.7435,-1.7595,-1.7456,-1.6481,-1.5186,-1.3443,-1.2073,-1.112,-1.0558,-0.9722,-0.9154,-0.8992,-0.8909,-0.8909,-0.8909,-0.8909,-0.8909,-0.8909,-0.8909,-0.8909,-0.8909,-0.8909,-0.8909,-0.8909,-0.8909,-0.8909,-0.8909,-0.8909,-0.8991,-2.9824,-2.9833,-2.9676,-2.9316,-2.8887,-2.8467,-2.8301,-2.8301,-2.8301,-2.8301,-2.8301,-2.8301,-2.8301,-2.8262,-2.7878,-2.779,-2.7927,-2.777,-2.778,-2.7976,-2.8164,-2.822,-2.8054,-2.78,-2.7441,-2.7002,-2.6582,-2.6275,-2.5991,-2.5796,-2.5708,-2.5708,-2.5708,-2.5708,-2.5708,-2.5708,-2.5708,-2.5708,-2.5708,-2.5503,-2.5082,-2.4473,-2.4043,-2.3769,-2.3337,-2.3101,-2.3101,-2.3101,-2.3101,-2.3101,-2.3101,-2.3101,-2.3101,-2.3101,-2.3101,-2.3101,-2.3101,-2.3101,-2.3101,-2.2448,-2.1823,-2.1315,-2.0643,-1.9761,-1.8864,-1.8118,-1.7458,-1.6967,-1.6251,-1.5801,-1.5801,-1.5801,-1.5855,-1.5972,-1.5868,-1.5992,-1.6386,-1.6377,-1.6357,-1.6484,-1.6732,-1.6799,-1.6618,-1.6886,-1.7066,-1.7033,-1.7261,-1.7521,-1.7335,-1.6821,-1.6382,-1.5632,-1.372,-1.1451,-1.0311,-1.0186,-0.9719,-0.9151,-0.8909,-0.8909,-0.8902,-0.8909,-0.8909,-0.8909,-0.8909,-0.8909,-0.8909,-0.8909,-0.8909,-0.8909,-0.8909,-0.8909,-0.8909,-0.8909,-0.8998,-2.9412,-2.9375,-2.9305,-2.9061,-2.873,-2.8428,-2.8301,-2.8301,-2.8301,-2.8301,-2.8301,-2.8301,-2.8301,-2.8252,-2.7995,-2.7868,-2.7858,-2.7868,-2.7868,-2.7897,-2.8154,-2.8232,-2.8096,-2.7848,-2.7457,-2.7002,-2.6582,-2.6162,-2.5757,-2.5708,-2.5708,-2.5708,-2.5708,-2.5708,-2.5708,-2.5708,-2.5708,-2.5698,-2.5601,-2.5391,-2.5063,-2.4531,-2.4102,-2.3779,-2.3347,-2.3101,-2.3101,-2.3101,-2.3101,-2.3101,-2.3101,-2.3101,-2.3101,-2.3101,-2.3101,-2.3101,-2.3101,-2.3101,-2.3101,-2.2284,-2.1636,-2.127,-2.044,-1.9693,-1.8993,-1.8203,-1.7575,-1.7061,-1.6315,-1.5801,-1.5801,-1.5801,-1.5835,-1.5901,-1.5868,-1.5952,-1.6257,-1.6244,-1.6139,-1.6197,-1.6413,-1.6538,-1.6411,-1.6645,-1.6819,-1.6705,-1.7007,-1.7288,-1.7004,-1.6689,-1.6388,-1.6606,-1.4297,-1.2226,-1.0379,-0.9853,-0.9923,-0.9312,-0.8787,-0.8835,-0.8858,-0.8869,-0.8909,-0.8909,-0.8909,-0.8909,-0.8909,-0.8909,-0.8909,-0.8909,-0.8909,-0.8909,-0.8909,-0.8909,-0.895,-2.8918,-2.8859,-2.8516,-2.8389,-2.833,-2.8301,-2.8301,-2.8301,-2.8301,-2.8301,-2.8301,-2.8301,-2.8301,-2.8291,-2.8242,-2.8252,-2.8279,-2.8242,-2.8223,-2.8232,-2.8252,-2.8103,-2.7741,-2.7692,-2.7457,-2.6967,-2.6533,-2.6108,-2.5728,-2.5708,-2.5708,-2.5708,-2.5708,-2.5708,-2.5708,-2.5708,-2.5708,-2.5669,-2.5381,-2.5131,-2.5018,-2.4268,-2.3857,-2.375,-2.3347,-2.3101,-2.3101,-2.3101,-2.3101,-2.3101,-2.3101,-2.3101,-2.3101,-2.3101,-2.3101,-2.3101,-2.3101,-2.3101,-2.3101,-2.2906,-2.2403,-2.1511,-2.1069,-2.0206,-1.8365,-1.787,-1.7295,-1.6086,-1.5991,-1.5801,-1.5801,-1.5801,-1.5901,-1.6139,-1.5955,-1.5955,-1.6237,-1.6025,-1.5848,-1.5881,-1.6126,-1.6284,-1.6284,-1.6317,-1.6371,-1.6391,-1.6567,-1.676,-1.6596,-1.562,-1.5132,-1.4836,-1.3903,-1.2769,-1.249,-1.096,-0.927,-0.8624,-0.8686,-0.8706,-0.8747,-0.8794,-0.8855,-0.8909,-0.8909,-0.8909,-0.8909,-0.8909,-0.8909,-0.8909,-0.8909,-0.8909,-0.8909,-0.8909,-0.8933,-2.876,-2.8506,-2.8359,-2.8301,-2.8301,-2.8301,-2.8301,-2.8301,-2.8301,-2.8301,-2.8301,-2.8301,-2.8301,-2.8301,-2.8301,-2.8301,-2.8301,-2.8301,-2.8301,-2.8288,-2.8044,-2.7985,-2.8024,-2.7291,-2.6943,-2.6914,-2.6284,-2.5874,-2.5737,-2.5708,-2.5708,-2.5708,-2.5708,-2.5708,-2.5708,-2.5708,-2.5708,-2.5698,-2.5542,-2.5361,-2.5043,-2.4492,-2.4072,-2.3802,-2.3347,-2.3101,-2.3101,-2.3101,-2.3101,-2.3101,-2.3101,-2.3101,-2.3101,-2.3101,-2.3101,-2.3101,-2.3101,-2.3101,-2.3025,-2.2381,-2.1778,-2.1315,-2.0553,-1.9861,-1.8925,-1.8157,-1.7482,-1.6967,-1.6204,-1.5849,-1.5801,-1.5801,-1.5848,-1.5921,-1.5875,-1.5841,-1.5939,-1.5868,-1.5801,-1.5821,-1.5939,-1.5955,-1.6046,-1.6183,-1.6217,-1.6072,-1.6375,-1.6567,-1.6448,-1.5895,-1.5618,-1.557,-1.4573,-1.3297,-1.2608,-1.1307,-0.9887,-0.9003,-0.8642,-0.8652,-0.8679,-0.8737,-0.877,-0.8872,-0.8892,-0.8909,-0.8909,-0.8909,-0.8909,-0.8909,-0.8909,-0.8909,-0.8909,-0.8909,-0.8909,-2.8555,-2.832,-2.8301,-2.8301,-2.8301,-2.8301,-2.8301,-2.8301,-2.8301,-2.8301,-2.8301,-2.8301,-2.8301,-2.8301,-2.8301,-2.8301,-2.8301,-2.8301,-2.8301,-2.8271,-2.8024,-2.7907,-2.7725,-2.6992,-2.6582,-2.6498,-2.5986,-2.5708,-2.5708,-2.5708,-2.5708,-2.5708,-2.5708,-2.5708,-2.5708,-2.5708,-2.5659,-2.5523,-2.5357,-2.5054,-2.4681,-2.4238,-2.3854,-2.3571,-2.3269,-2.3101,-2.3101,-2.3101,-2.3101,-2.3101,-2.3101,-2.3101,-2.3101,-2.3101,-2.3101,-2.3101,-2.3101,-2.3101,-2.3025,-2.2328,-2.1556,-2.0778,-1.9966,-1.9291,-1.8442,-1.7529,-1.7147,-1.6873,-1.641,-1.5801,-1.5801,-1.5801,-1.5801,-1.5801,-1.5801,-1.5801,-1.5801,-1.5808,-1.5801,-1.5801,-1.5815,-1.5815,-1.5821,-1.6005,-1.6012,-1.5821,-1.6168,-1.6306,-1.6179,-1.6139,-1.6179,-1.6206,-1.493,-1.3834,-1.2929,-1.1639,-0.9886,-0.8868,-0.8469,-0.8506,-0.8567,-0.8632,-0.8703,-0.8808,-0.8872,-0.8896,-0.8909,-0.8909,-0.8906,-0.8902,-0.8909,-0.8909,-0.8909,-0.8909,-0.8909,-2.8301,-2.8301,-2.8301,-2.8301,-2.8301,-2.8301,-2.8301,-2.8301,-2.8301,-2.8301,-2.8301,-2.8301,-2.8301,-2.8301,-2.8301,-2.8301,-2.8301,-2.8301,-2.8301,-2.8281,-2.8223,-2.7822,-2.722,-2.7012,-2.6459,-2.5864,-2.5737,-2.5708,-2.5708,-2.5708,-2.5708,-2.5708,-2.5708,-2.5708,-2.5708,-2.5698,-2.5513,-2.5205,-2.4873,-2.4381,-2.3818,-2.3542,-2.3337,-2.321,-2.313,-2.3101,-2.3101,-2.3101,-2.3101,-2.3101,-2.3101,-2.3101,-2.3101,-2.3101,-2.3101,-2.3101,-2.3101,-2.3091,-2.2982,-2.2765,-2.1489,-1.992,-1.9374,-1.8234,-1.6638,-1.6109,-1.5991,-1.5991,-1.592,-1.5801,-1.5801,-1.5801,-1.5801,-1.5801,-1.5801,-1.5801,-1.5801,-1.5801,-1.5801,-1.5801,-1.5801,-1.5801,-1.5801,-1.5841,-1.5865,-1.5841,-1.5868,-1.5915,-1.5888,-1.5899,-1.5835,-1.568,-1.5171,-1.4465,-1.3292,-1.2009,-1.0146,-0.861,-0.8409,-0.8332,-0.8397,-0.8476,-0.8625,-0.871,-0.8808,-0.8835,-0.8838,-0.8838,-0.8848,-0.8852,-0.8875,-0.8899,-0.8909,-0.8909,-0.8909,-2.8301,-2.8301,-2.8301,-2.8301,-2.8301,-2.8301,-2.8301,-2.8301,-2.8301,-2.8301,-2.8301,-2.8301,-2.8301,-2.8301,-2.8301,-2.8301,-2.8301,-2.8301,-2.8301,-2.8252,-2.8034,-2.79,-2.7725,-2.6992,-2.6289,-2.5762,-2.5708,-2.5708,-2.5708,-2.5708,-2.5708,-2.5708,-2.5708,-2.5708,-2.5708,-2.5708,-2.562,-2.5513,-2.5376,-2.5093,-2.4701,-2.4206,-2.3864,-2.3571,-2.3279,-2.3101,-2.3101,-2.3101,-2.3101,-2.3101,-2.3101,-2.3101,-2.3101,-2.3101,-2.3101,-2.3101,-2.3101,-2.2677,-2.1876,-2.1101,-2.011,-1.8519,-1.7537,-1.6702,-1.5967,-1.5801,-1.5801,-1.5801,-1.5801,-1.5801,-1.5801,-1.5801,-1.5801,-1.5801,-1.5801,-1.5801,-1.5801,-1.5801,-1.5801,-1.5801,-1.5801,-1.5801,-1.5801,-1.5801,-1.5801,-1.5801,-1.5801,-1.5801,-1.5801,-1.5801,-1.5801,-1.5733,-1.5383,-1.509,-1.4084,-1.2975,-1.1419,-0.9567,-0.8787,-0.8267,-0.8265,-0.836,-0.8506,-0.8635,-0.873,-0.8777,-0.8781,-0.8781,-0.8754,-0.8798,-0.8825,-0.8855,-0.8896,-0.8909,-0.8909,-2.8301,-2.8301,-2.8301,-2.8301,-2.8301,-2.8301,-2.8301,-2.8301,-2.8301,-2.8301,-2.8301,-2.8301,-2.8301,-2.8301,-2.8301,-2.8301,-2.8301,-2.8301,-2.8301,-2.8262,-2.8073,-2.8015,-2.7956,-2.6934,-2.6162,-2.5786,-2.5708,-2.5708,-2.5708,-2.5708,-2.5708,-2.5708,-2.5708,-2.5708,-2.5708,-2.5698,-2.565,-2.5503,-2.5459,-2.5195,-2.4668,-2.4326,-2.3984,-2.3562,-2.3237,-2.311,-2.3101,-2.3101,-2.3101,-2.3101,-2.3101,-2.3101,-2.3101,-2.3101,-2.3101,-2.3101,-2.3047,-2.2743,-2.1943,-2.1033,-1.9656,-1.8434,-1.7217,-1.6268,-1.5967,-1.5801,-1.5801,-1.5801,-1.5801,-1.5801,-1.5801,-1.5801,-1.5801,-1.5801,-1.5801,-1.5801,-1.5801,-1.5801,-1.5801,-1.5801,-1.5801,-1.5801,-1.5801,-1.5801,-1.5801,-1.5801,-1.5801,-1.5801,-1.5801,-1.5801,-1.5801,-1.5892,-1.5917,-1.5515,-1.4929,-1.3868,-1.268,-1.0925,-0.932,-0.86,-0.818,-0.8265,-0.8387,-0.8513,-0.8621,-0.8625,-0.8628,-0.8628,-0.8632,-0.8703,-0.8747,-0.8814,-0.8855,-0.8902,-0.8909,-2.8301,-2.8301,-2.8301,-2.8301,-2.8301,-2.8301,-2.8301,-2.8301,-2.8301,-2.8301,-2.8301,-2.8301,-2.8301,-2.8301,-2.8301,-2.8301,-2.8301,-2.8301,-2.8242,-2.8213,-2.8125,-2.7985,-2.7457,-2.6754,-2.6162,-2.5757,-2.5708,-2.5708,-2.5708,-2.5708,-2.5708,-2.5708,-2.5708,-2.5708,-2.5708,-2.5708,-2.5557,-2.5293,-2.517,-2.475,-2.4004,-2.386,-2.3613,-2.3191,-2.312,-2.3101,-2.3101,-2.3101,-2.3101,-2.3101,-2.3101,-2.3101,-2.3101,-2.3101,-2.3101,-2.3101,-2.3101,-2.296,-2.2731,-2.1489,-2.0328,-1.9093,-1.7886,-1.7138,-1.5991,-1.5801,-1.5801,-1.5801,-1.5801,-1.5801,-1.5801,-1.5801,-1.5801,-1.5801,-1.5801,-1.5801,-1.5801,-1.5801,-1.5801,-1.5801,-1.5801,-1.5801,-1.5801,-1.5801,-1.5801,-1.5801,-1.5801,-1.5801,-1.5801,-1.5801,-1.5801,-1.5939,-1.6116,-1.602,-1.546,-1.4535,-1.3387,-1.2358,-1.0437,-0.8994,-0.8237,-0.8211,-0.8345,-0.8464,-0.8522,-0.8515,-0.8515,-0.8529,-0.8516,-0.8567,-0.8632,-0.8737,-0.8814,-0.8855,-0.8909,-2.8301,-2.8301,-2.8301,-2.8301,-2.8301,-2.8301,-2.8301,-2.8301,-2.8301,-2.8301,-2.8301,-2.8301,-2.8301,-2.8301,-2.8301,-2.8301,-2.8271,-2.8271,-2.8122,-2.7888,-2.7848,-2.7418,-2.6861,-2.6539,-2.6152,-2.5757,-2.5708,-2.5708,-2.5708,-2.5708,-2.5708,-2.5708,-2.5708,-2.5708,-2.5708,-2.5708,-2.5645,-2.5503,-2.5239,-2.4857,-2.4316,-2.3945,-2.3574,-2.3171,-2.3101,-2.3101,-2.3101,-2.3101,-2.3101,-2.3101,-2.3101,-2.3101,-2.3101,-2.3101,-2.3101,-2.3101,-2.3069,-2.2699,-2.18,-2.0719,-1.9497,-1.8257,-1.7171,-1.618,-1.5872,-1.5801,-1.5801,-1.5801,-1.5801,-1.5801,-1.5801,-1.5801,-1.5801,-1.5801,-1.5801,-1.5801,-1.5801,-1.5801,-1.5801,-1.5801,-1.5801,-1.5801,-1.5801,-1.5801,-1.5801,-1.5801,-1.5801,-1.5801,-1.5801,-1.5801,-1.5801,-1.5912,-1.6046,-1.6177,-1.5893,-1.4997,-1.419,-1.3516,-1.1696,-0.9361,-0.8661,-0.8194,-0.8319,-0.8478,-0.8454,-0.8444,-0.844,-0.8444,-0.8435,-0.8465,-0.8581,-0.8679,-0.875,-0.8835,-0.8882,-2.8301,-2.8301,-2.8301,-2.8301,-2.8301,-2.8301,-2.8301,-2.8301,-2.8301,-2.8301,-2.8301,-2.8301,-2.8301,-2.8301,-2.8301,-2.8174,-2.8073,-2.8054,-2.7809,-2.7402,-2.7233,-2.6871,-2.65,-2.6402,-2.6162,-2.5747,-2.5708,-2.5708,-2.5708,-2.5708,-2.5708,-2.5708,-2.5708,-2.5708,-2.5708,-2.5708,-2.5708,-2.5659,-2.5435,-2.5137,-2.4697,-2.4277,-2.3848,-2.3435,-2.324,-2.3101,-2.3101,-2.3101,-2.3101,-2.3101,-2.3101,-2.3101,-2.3101,-2.3101,-2.3101,-2.3101,-2.3101,-2.2743,-2.1921,-2.0517,-1.9245,-1.8295,-1.6889,-1.5944,-1.5801,-1.5801,-1.5801,-1.5801,-1.5801,-1.5801,-1.5801,-1.5801,-1.5801,-1.5801,-1.5801,-1.5801,-1.5801,-1.5801,-1.5801,-1.5801,-1.5801,-1.5801,-1.5801,-1.5801,-1.5801,-1.5801,-1.5801,-1.5801,-1.5801,-1.5801,-1.5815,-1.5905,-1.5992,-1.6106,-1.6139,-1.5484,-1.4554,-1.394,-1.2211,-0.995,-0.8989,-0.8328,-0.8303,-0.8423,-0.8396,-0.8383,-0.8393,-0.8396,-0.8406,-0.8464,-0.8547,-0.8662,-0.876,-0.8835,-0.8879,-2.8301,-2.8301,-2.8301,-2.8301,-2.8301,-2.8301,-2.8301,-2.8301,-2.8301,-2.8301,-2.8301,-2.8301,-2.8301,-2.8301,-2.8291,-2.8103,-2.7748,-2.777,-2.7383,-2.6973,-2.6602,-2.6299,-2.6279,-2.624,-2.6064,-2.5747,-2.5708,-2.5708,-2.5708,-2.5708,-2.5708,-2.5708,-2.5708,-2.5708,-2.5708,-2.5708,-2.5708,-2.5664,-2.5562,-2.5342,-2.4965,-2.4492,-2.401,-2.3721,-2.3288,-2.311,-2.3101,-2.3101,-2.3101,-2.3101,-2.3101,-2.3101,-2.3101,-2.3101,-2.3101,-2.3101,-2.3091,-2.3003,-2.258,-2.0809,-1.9497,-1.8841,-1.7124,-1.5896,-1.5872,-1.5801,-1.5801,-1.5801,-1.5801,-1.5801,-1.5801,-1.5801,-1.5801,-1.5801,-1.5801,-1.5801,-1.5801,-1.5801,-1.5801,-1.5801,-1.5801,-1.5801,-1.5801,-1.5801,-1.5801,-1.5801,-1.5801,-1.5801,-1.5801,-1.5801,-1.5801,-1.5821,-1.5945,-1.6066,-1.6066,-1.5938,-1.5036,-1.4105,-1.2211,-1.0313,-0.9278,-0.8675,-0.8434,-0.8376,-0.8355,-0.8362,-0.8386,-0.8386,-0.8396,-0.8461,-0.8557,-0.8693,-0.8787,-0.8845,-0.8909,-2.8301,-2.8301,-2.8301,-2.8301,-2.8301,-2.8301,-2.8301,-2.8301,-2.8301,-2.8301,-2.8301,-2.8301,-2.8301,-2.8291,-2.8262,-2.8066,-2.7673,-2.7585,-2.7301,-2.6523,-2.605,-2.5874,-2.5874,-2.5903,-2.5815,-2.5708,-2.5708,-2.5708,-2.5708,-2.5708,-2.5708,-2.5708,-2.5708,-2.5708,-2.5708,-2.5708,-2.5708,-2.565,-2.543,-2.5244,-2.5043,-2.4437,-2.3975,-2.3782,-2.3347,-2.312,-2.3101,-2.3101,-2.3101,-2.3101,-2.3101,-2.3101,-2.3101,-2.3101,-2.3101,-2.3101,-2.3069,-2.2699,-2.18,-2.1069,-2.0034,-1.8295,-1.7521,-1.688,-1.5872,-1.5801,-1.5801,-1.5801,-1.5801,-1.5801,-1.5801,-1.5801,-1.5801,-1.5801,-1.5801,-1.5801,-1.5801,-1.5801,-1.5801,-1.5801,-1.5801,-1.5801,-1.5801,-1.5801,-1.5801,-1.5801,-1.5801,-1.5801,-1.5801,-1.5801,-1.5801,-1.5801,-1.5848,-1.5972,-1.5959,-1.5898,-1.5373,-1.4526,-1.278,-1.1111,-1.0042,-0.8957,-0.8718,-0.8499,-0.8318,-0.8338,-0.8379,-0.8437,-0.8461,-0.8532,-0.8587,-0.8679,-0.8757,-0.8841,-0.8909,-2.8301,-2.8301,-2.8301,-2.8301,-2.8301,-2.8301,-2.8301,-2.8301,-2.8301,-2.8301,-2.8301,-2.8301,-2.8301,-2.8271,-2.8103,-2.7764,-2.7324,-2.6914,-2.665,-2.6299,-2.5952,-2.5845,-2.5942,-2.5815,-2.5708,-2.5708,-2.5708,-2.5708,-2.5708,-2.5708,-2.5708,-2.5708,-2.5708,-2.5708,-2.5708,-2.5708,-2.5708,-2.5689,-2.5527,-2.5381,-2.5254,-2.4779,-2.4124,-2.3789,-2.3367,-2.3101,-2.3101,-2.3101,-2.3101,-2.3101,-2.3101,-2.3101,-2.3101,-2.3101,-2.3101,-2.3101,-2.3091,-2.2514,-2.1614,-2.0688,-1.961,-1.7847,-1.7178,-1.6527,-1.5991,-1.5801,-1.5801,-1.5801,-1.5801,-1.5801,-1.5801,-1.5801,-1.5801,-1.5801,-1.5801,-1.5801,-1.5801,-1.5801,-1.5801,-1.5801,-1.5801,-1.5801,-1.5801,-1.5801,-1.5801,-1.5801,-1.5801,-1.5801,-1.5801,-1.5801,-1.5801,-1.5801,-1.5801,-1.5821,-1.5821,-1.5774,-1.5638,-1.4908,-1.3884,-1.2417,-1.1201,-1.0025,-0.8954,-0.8635,-0.8303,-0.8349,-0.8389,-0.8428,-0.8452,-0.8461,-0.8512,-0.8625,-0.8723,-0.8821,-0.8882,-2.8301,-2.8301,-2.8301,-2.8301,-2.8301,-2.8301,-2.8301,-2.8301,-2.8301,-2.8301,-2.8301,-2.8301,-2.8301,-2.8223,-2.7995,-2.7519,-2.6924,-2.6215,-2.5981,-2.6143,-2.5874,-2.5884,-2.6045,-2.5864,-2.5708,-2.5708,-2.5708,-2.5708,-2.5708,-2.5708,-2.5708,-2.5708,-2.5708,-2.5708,-2.5708,-2.5708,-2.5708,-2.5698,-2.5669,-2.564,-2.5581,-2.5205,-2.4613,-2.3867,-2.3493,-2.3288,-2.3259,-2.3179,-2.313,-2.3179,-2.314,-2.3101,-2.3101,-2.3101,-2.3101,-2.3101,-2.3101,-2.2315,-2.1101,-2.0237,-1.9337,-1.7707,-1.681,-1.6086,-1.5896,-1.5801,-1.5801,-1.5801,-1.5801,-1.5801,-1.5801,-1.5801,-1.5801,-1.5801,-1.5801,-1.5801,-1.5801,-1.5801,-1.5801,-1.5801,-1.5801,-1.5801,-1.5801,-1.5801,-1.5801,-1.5801,-1.5801,-1.5801,-1.5801,-1.5801,-1.5801,-1.5801,-1.5801,-1.5801,-1.5801,-1.5801,-1.5652,-1.5266,-1.4531,-1.3481,-1.2141,-1.0692,-0.9448,-0.8631,-0.8333,-0.8333,-0.8379,-0.8444,-0.8437,-0.8383,-0.8452,-0.8635,-0.872,-0.8804,-0.8828,-2.8301,-2.8301,-2.8301,-2.8301,-2.8301,-2.8301,-2.8301,-2.8301,-2.8301,-2.8301,-2.8291,-2.8291,-2.8262,-2.8232,-2.8259,-2.7744,-2.6894,-2.6118,-2.5757,-2.5864,-2.5713,-2.5815,-2.5825,-2.5796,-2.5708,-2.5708,-2.5708,-2.5708,-2.5708,-2.5708,-2.5708,-2.5708,-2.5708,-2.5708,-2.5708,-2.5708,-2.5708,-2.5708,-2.5708,-2.5708,-2.561,-2.5273,-2.476,-2.3997,-2.3721,-2.3633,-2.3542,-2.3337,-2.3288,-2.3594,-2.3286,-2.3149,-2.313,-2.313,-2.3101,-2.3069,-2.2938,-2.205,-2.0411,-2.0475,-1.9054,-1.7273,-1.6697,-1.6636,-1.6109,-1.5801,-1.5801,-1.5801,-1.5801,-1.5801,-1.5801,-1.5801,-1.5801,-1.5801,-1.5801,-1.5801,-1.5801,-1.5801,-1.5801,-1.5801,-1.5801,-1.5801,-1.5801,-1.5801,-1.5801,-1.5801,-1.5801,-1.5801,-1.5801,-1.5801,-1.5801,-1.5801,-1.5801,-1.5801,-1.5801,-1.5801,-1.573,-1.5486,-1.4902,-1.422,-1.2823,-1.1165,-0.9958,-0.9148,-0.851,-0.8287,-0.8335,-0.84,-0.8406,-0.833,-0.8482,-0.8655,-0.8665,-0.8676,-0.8716,-2.8301,-2.8301,-2.8301,-2.8301,-2.8301,-2.8301,-2.8301,-2.8301,-2.8301,-2.8301,-2.8223,-2.8112,-2.7995,-2.7936,-2.7705,-2.7266,-2.6635,-2.603,-2.5728,-2.5708,-2.5708,-2.5708,-2.5708,-2.5708,-2.5708,-2.5708,-2.5708,-2.5708,-2.5708,-2.5708,-2.5708,-2.5708,-2.5708,-2.5708,-2.5708,-2.5708,-2.5708,-2.5708,-2.5708,-2.5708,-2.5669,-2.5303,-2.4828,-2.4535,-2.4036,-2.3831,-2.375,-2.3633,-2.3574,-2.3701,-2.3571,-2.3496,-2.3376,-2.3218,-2.3101,-2.3025,-2.2545,-2.1522,-1.9881,-1.9815,-1.8363,-1.6621,-1.6703,-1.6579,-1.6062,-1.5801,-1.5801,-1.5801,-1.5801,-1.5801,-1.5801,-1.5801,-1.5801,-1.5801,-1.5801,-1.5801,-1.5801,-1.5801,-1.5801,-1.5801,-1.5801,-1.5801,-1.5801,-1.5801,-1.5801,-1.5801,-1.5801,-1.5801,-1.5801,-1.5801,-1.5801,-1.5801,-1.5801,-1.5801,-1.5801,-1.5801,-1.5801,-1.5581,-1.5337,-1.4657,-1.3878,-1.2396,-1.0867,-0.9652,-0.9089,-0.8502,-0.8197,-0.8241,-0.8269,-0.8309,-0.8431,-0.852,-0.8506,-0.8513,-0.8584,-2.8301,-2.8301,-2.8301,-2.8301,-2.8301,-2.8301,-2.8301,-2.8301,-2.8301,-2.8301,-2.8232,-2.7917,-2.777,-2.7712,-2.7373,-2.6943,-2.6494,-2.6084,-2.5845,-2.5708,-2.5708,-2.5708,-2.5708,-2.5708,-2.5708,-2.5708,-2.5708,-2.5708,-2.5708,-2.5708,-2.5708,-2.5708,-2.5708,-2.5708,-2.5708,-2.5708,-2.5708,-2.5708,-2.5708,-2.5708,-2.562,-2.5386,-2.516,-2.5106,-2.4427,-2.4114,-2.4163,-2.3984,-2.3926,-2.3916,-2.3828,-2.3721,-2.3613,-2.3308,-2.3101,-2.2906,-2.1956,-2.0886,-1.984,-1.8746,-1.7684,-1.6241,-1.617,-1.6056,-1.5919,-1.5801,-1.5801,-1.5801,-1.5801,-1.5801,-1.5801,-1.5801,-1.5801,-1.5801,-1.5801,-1.5801,-1.5801,-1.5801,-1.5801,-1.5801,-1.5801,-1.5815,-1.5821,-1.5801,-1.5801,-1.5801,-1.5801,-1.5801,-1.5801,-1.5801,-1.5801,-1.5801,-1.5801,-1.5801,-1.5801,-1.5801,-1.5801,-1.573,-1.5605,-1.5242,-1.4657,-1.3854,-1.2266,-1.0643,-0.9472,-0.8913,-0.8525,-0.8113,-0.8125,-0.8192,-0.8333,-0.8364,-0.8316,-0.8431,-0.857,-2.8301,-2.8301,-2.8301,-2.8301,-2.8301,-2.8301,-2.8301,-2.8301,-2.8301,-2.8301,-2.8262,-2.7897,-2.7848,-2.7946,-2.7692,-2.7311,-2.6894,-2.6396,-2.5971,-2.5713,-2.5708,-2.5708,-2.5708,-2.5708,-2.5708,-2.5708,-2.5708,-2.5708,-2.5708,-2.5708,-2.5708,-2.5708,-2.5708,-2.5708,-2.5708,-2.5708,-2.5708,-2.5708,-2.5708,-2.5708,-2.5698,-2.5606,-2.542,-2.519,-2.4955,-2.4818,-2.474,-2.4502,-2.4323,-2.4307,-2.4004,-2.3643,-2.3247,-2.314,-2.3101,-2.2775,-2.1987,-2.0796,-1.9666,-1.8395,-1.7291,-1.6275,-1.6005,-1.5861,-1.5815,-1.5801,-1.5801,-1.5801,-1.5801,-1.5801,-1.5801,-1.5801,-1.5801,-1.5801,-1.5801,-1.5801,-1.5801,-1.5808,-1.5808,-1.5848,-1.5868,-1.5855,-1.5855,-1.5828,-1.5801,-1.5801,-1.5808,-1.5815,-1.5815,-1.5828,-1.5801,-1.5801,-1.5801,-1.5801,-1.5801,-1.5801,-1.5801,-1.5801,-1.5754,-1.5676,-1.5242,-1.4556,-1.3432,-1.1879,-1.0578,-0.9143,-0.8357,-0.8044,-0.8037,-0.8088,-0.8192,-0.8155,-0.8074,-0.826,-0.8514,-2.8301,-2.8301,-2.8301,-2.8301,-2.8301,-2.8301,-2.8301,-2.8301,-2.8301,-2.8301,-2.8154,-2.7568,-2.7412,-2.749,-2.7164,-2.7008,-2.6836,-2.6332,-2.5923,-2.5732,-2.5708,-2.5708,-2.5708,-2.5708,-2.5708,-2.5708,-2.5708,-2.5708,-2.5708,-2.5708,-2.5708,-2.5708,-2.5708,-2.5708,-2.5708,-2.5708,-2.5708,-2.5708,-2.5708,-2.5708,-2.5708,-2.5674,-2.5596,-2.5415,-2.5229,-2.5131,-2.5053,-2.4945,-2.4785,-2.4779,-2.4584,-2.4316,-2.3893,-2.3553,-2.3174,-2.1965,-2.0921,-2.0113,-1.9585,-1.8064,-1.7015,-1.6543,-1.6279,-1.6206,-1.5928,-1.5801,-1.5801,-1.5801,-1.5801,-1.5801,-1.5801,-1.5801,-1.5801,-1.5808,-1.5828,-1.5835,-1.5835,-1.5821,-1.5828,-1.5881,-1.5948,-1.5988,-1.6001,-1.5955,-1.5999,-1.6032,-1.6012,-1.5968,-1.5959,-1.5919,-1.5879,-1.5801,-1.5801,-1.5801,-1.5801,-1.5801,-1.5801,-1.5801,-1.5801,-1.573,-1.5706,-1.4994,-1.3977,-1.2859,-1.1541,-1.0071,-0.8556,-0.7992,-0.7998,-0.8044,-0.8067,-0.8064,-0.8077,-0.8292,-0.8509,-2.8301,-2.8301,-2.8301,-2.8301,-2.8301,-2.8301,-2.8301,-2.8301,-2.8301,-2.8301,-2.8135,-2.7637,-2.7226,-2.6918,-2.6816,-2.6885,-2.6787,-2.6157,-2.5854,-2.5747,-2.5708,-2.5708,-2.5708,-2.5708,-2.5708,-2.5708,-2.5708,-2.5708,-2.5708,-2.5708,-2.5708,-2.5708,-2.5708,-2.5708,-2.5708,-2.5708,-2.5708,-2.5708,-2.5708,-2.5708,-2.5708,-2.5708,-2.5708,-2.5591,-2.5415,-2.5234,-2.5258,-2.5268,-2.5234,-2.5043,-2.5024,-2.4697,-2.4157,-2.3422,-2.2638,-2.1378,-2.0079,-1.9105,-1.8652,-1.7703,-1.6853,-1.666,-1.6573,-1.6286,-1.5895,-1.5801,-1.5801,-1.5801,-1.5801,-1.5801,-1.5801,-1.5801,-1.5801,-1.5841,-1.5888,-1.5901,-1.5941,-1.6035,-1.6128,-1.6235,-1.6313,-1.6286,-1.6266,-1.6148,-1.6172,-1.6226,-1.6206,-1.6166,-1.6119,-1.6072,-1.6025,-1.5985,-1.5985,-1.5945,-1.5815,-1.5815,-1.5808,-1.5801,-1.5801,-1.5815,-1.5774,-1.5495,-1.4768,-1.3599,-1.2297,-1.0916,-0.9377,-0.8667,-0.7992,-0.8019,-0.8071,-0.8094,-0.8184,-0.8389,-0.8536,-2.8301,-2.8301,-2.8301,-2.8301,-2.8301,-2.8301,-2.8301,-2.8301,-2.8301,-2.8252,-2.8164,-2.8115,-2.7412,-2.6826,-2.7008,-2.6998,-2.6455,-2.6377,-2.603,-2.5796,-2.5708,-2.5708,-2.5708,-2.5708,-2.5708,-2.5708,-2.5708,-2.5708,-2.5708,-2.5708,-2.5708,-2.5708,-2.5708,-2.5708,-2.5708,-2.5708,-2.5708,-2.5708,-2.5708,-2.5708,-2.5708,-2.5708,-2.5708,-2.5708,-2.5679,-2.5659,-2.5635,-2.5562,-2.541,-2.5102,-2.5082,-2.4769,-2.4065,-2.3081,-2.2131,-2.1032,-1.9282,-1.8349,-1.7803,-1.7255,-1.6675,-1.6547,-1.6473,-1.6264,-1.5952,-1.5828,-1.5808,-1.5828,-1.5841,-1.5801,-1.5801,-1.5801,-1.5808,-1.5928,-1.6059,-1.6166,-1.6266,-1.6415,-1.6508,-1.6633,-1.6627,-1.656,-1.6645,-1.6553,-1.6493,-1.6571,-1.6605,-1.6547,-1.6386,-1.6319,-1.6277,-1.6237,-1.6237,-1.6112,-1.5868,-1.5821,-1.5808,-1.5801,-1.5801,-1.5835,-1.5838,-1.5486,-1.5228,-1.4049,-1.2695,-1.1459,-1.0192,-0.9026,-0.8203,-0.8092,-0.8081,-0.8115,-0.8255,-0.8431,-0.8574,-2.8301,-2.8301,-2.8301,-2.8301,-2.8301,-2.8301,-2.8301,-2.8301,-2.8291,-2.7969,-2.7568,-2.7751,-2.737,-2.6754,-2.6621,-2.6763,-2.6367,-2.6084,-2.5884,-2.5776,-2.5708,-2.5708,-2.5708,-2.5708,-2.5708,-2.5708,-2.5708,-2.5708,-2.5708,-2.5708,-2.5708,-2.5708,-2.5708,-2.5708,-2.5708,-2.5747,-2.5728,-2.5708,-2.5708,-2.5708,-2.5708,-2.5708,-2.5708,-2.5708,-2.5708,-2.5708,-2.5659,-2.5439,-2.5278,-2.516,-2.5121,-2.474,-2.409,-2.295,-2.1865,-2.0863,-1.8918,-1.7875,-1.7393,-1.69,-1.6625,-1.6593,-1.6478,-1.625,-1.6092,-1.5959,-1.5972,-1.5972,-1.5888,-1.5808,-1.5801,-1.5815,-1.5885,-1.6059,-1.6233,-1.6417,-1.6571,-1.6734,-1.6867,-1.6947,-1.6847,-1.674,-1.6879,-1.6986,-1.6933,-1.6899,-1.6926,-1.6919,-1.6759,-1.6605,-1.6538,-1.6438,-1.6417,-1.6317,-1.6079,-1.5952,-1.5815,-1.5801,-1.5808,-1.5881,-1.5928,-1.5818,-1.5347,-1.4213,-1.3027,-1.1648,-1.0323,-0.906,-0.8387,-0.819,-0.8125,-0.8148,-0.8323,-0.8503,-0.8635,-2.8301,-2.8301,-2.8301,-2.8301,-2.8301,-2.8301,-2.8301,-2.8301,-2.8301,-2.79,-2.7236,-2.7536,-2.7223,-2.6607,-2.6421,-2.6299,-2.6143,-2.5884,-2.5757,-2.5708,-2.5708,-2.5708,-2.5708,-2.5708,-2.5708,-2.5708,-2.5708,-2.5708,-2.5708,-2.5708,-2.5708,-2.5708,-2.5718,-2.5757,-2.5932,-2.5903,-2.5854,-2.5737,-2.5708,-2.5708,-2.5708,-2.5708,-2.5708,-2.5708,-2.5708,-2.5708,-2.5659,-2.5493,-2.5391,-2.5332,-2.5264,-2.5049,-2.4216,-2.3137,-2.1759,-2.0384,-1.8903,-1.7556,-1.7136,-1.6979,-1.6834,-1.6872,-1.66,-1.6484,-1.6333,-1.6146,-1.6106,-1.6203,-1.6005,-1.5815,-1.5835,-1.5895,-1.6025,-1.6237,-1.6585,-1.6797,-1.6886,-1.704,-1.7167,-1.7267,-1.7167,-1.712,-1.7167,-1.7294,-1.726,-1.7173,-1.7086,-1.712,-1.7107,-1.6953,-1.6819,-1.6692,-1.6571,-1.6444,-1.6304,-1.6039,-1.5808,-1.5801,-1.5835,-1.5999,-1.6025,-1.5915,-1.5826,-1.5142,-1.379,-1.1971,-1.0571,-0.9449,-0.8755,-0.818,-0.8238,-0.8323,-0.8411,-0.8587,-0.8679,-2.8301,-2.8301,-2.8301,-2.8301,-2.8301,-2.8301,-2.8301,-2.8301,-2.8291,-2.7998,-2.7575,-2.7614,-2.7154,-2.65,-2.6279,-2.6123,-2.5864,-2.5747,-2.5708,-2.5708,-2.5708,-2.5708,-2.5708,-2.5708,-2.5708,-2.5708,-2.5708,-2.5708,-2.5708,-2.5708,-2.5708,-2.5854,-2.5981,-2.6059,-2.6357,-2.6387,-2.6172,-2.5796,-2.5767,-2.5767,-2.5708,-2.5708,-2.5708,-2.5708,-2.5708,-2.5708,-2.5669,-2.5532,-2.5449,-2.5425,-2.5478,-2.5283,-2.4858,-2.2633,-2.1307,-2.0653,-1.8232,-1.6977,-1.6792,-1.7026,-1.7125,-1.7085,-1.6792,-1.6653,-1.6627,-1.646,-1.6344,-1.6471,-1.6146,-1.5921,-1.5948,-1.6092,-1.6246,-1.6498,-1.6878,-1.7092,-1.7173,-1.7274,-1.7388,-1.7441,-1.7528,-1.7575,-1.7568,-1.7575,-1.7561,-1.7468,-1.7326,-1.7293,-1.7294,-1.7274,-1.7113,-1.6892,-1.6732,-1.6585,-1.638,-1.6008,-1.5815,-1.5808,-1.5925,-1.6099,-1.6146,-1.6079,-1.595,-1.5825,-1.4113,-1.1907,-1.0841,-0.9937,-0.9099,-0.8336,-0.8442,-0.853,-0.8594,-0.8665,-0.876,-2.8301,-2.8301,-2.8301,-2.8301,-2.8301,-2.8301,-2.8301,-2.8301,-2.8242,-2.79,-2.7334,-2.7236,-2.6758,-2.6157,-2.5952,-2.5864,-2.5747,-2.5708,-2.5708,-2.5708,-2.5708,-2.5708,-2.5708,-2.5708,-2.5708,-2.5708,-2.5708,-2.5708,-2.5708,-2.5757,-2.5942,-2.6143,-2.6572,-2.6763,-2.6592,-2.6572,-2.6602,-2.626,-2.6152,-2.603,-2.5747,-2.5708,-2.5708,-2.5708,-2.5708,-2.5708,-2.5689,-2.5532,-2.542,-2.541,-2.541,-2.5317,-2.476,-2.2677,-2.1312,-2.0652,-1.8745,-1.7203,-1.718,-1.7301,-1.7199,-1.7119,-1.6953,-1.6852,-1.6953,-1.672,-1.6725,-1.6739,-1.6486,-1.6373,-1.6473,-1.6493,-1.6652,-1.6872,-1.7166,-1.7274,-1.7381,-1.7481,-1.7568,-1.7561,-1.7608,-1.7615,-1.7615,-1.7615,-1.7615,-1.7615,-1.7454,-1.734,-1.7326,-1.7421,-1.7381,-1.7093,-1.6892,-1.6714,-1.65,-1.6202,-1.5995,-1.5961,-1.6106,-1.6286,-1.6286,-1.6273,-1.631,-1.6308,-1.4073,-1.1839,-1.0847,-0.9876,-0.9042,-0.8526,-0.8628,-0.8655,-0.8655,-0.8716,-0.8845,-2.8301,-2.8301,-2.8301,-2.8301,-2.8301,-2.8301,-2.8301,-2.8262,-2.8161,-2.7744,-2.7285,-2.6963,-2.6533,-2.6055,-2.5776,-2.5708,-2.5708,-2.5708,-2.5708,-2.5708,-2.5708,-2.5708,-2.5708,-2.5708,-2.5708,-2.5708,-2.5708,-2.5708,-2.5728,-2.5884,-2.6176,-2.668,-2.7301,-2.7262,-2.7057,-2.6973,-2.6777,-2.6406,-2.6182,-2.5942,-2.5767,-2.5708,-2.5708,-2.5708,-2.5708,-2.5708,-2.564,-2.5488,-2.5283,-2.5307,-2.5283,-2.5293,-2.4535,-2.3126,-2.1662,-2.0838,-1.9203,-1.7681,-1.7474,-1.7461,-1.7367,-1.7334,-1.7046,-1.7053,-1.72,-1.7046,-1.7013,-1.6999,-1.6892,-1.6774,-1.6727,-1.6754,-1.6966,-1.7213,-1.7314,-1.7441,-1.7501,-1.7595,-1.7615,-1.7615,-1.7615,-1.7615,-1.7615,-1.7615,-1.7615,-1.7615,-1.7595,-1.7461,-1.7367,-1.7461,-1.7555,-1.7327,-1.7093,-1.6946,-1.6765,-1.65,-1.6282,-1.6135,-1.6306,-1.6545,-1.6632,-1.6633,-1.6732,-1.6426,-1.4153,-1.2138,-1.0775,-0.975,-0.8963,-0.8672,-0.8784,-0.8774,-0.8706,-0.8781,-0.8899,-2.8301,-2.8301,-2.8301,-2.8301,-2.8301,-2.8301,-2.8281,-2.8249,-2.7848,-2.7633,-2.7571,-2.6689,-2.6328,-2.624,-2.5874,-2.5718,-2.5708,-2.5708,-2.5708,-2.5708,-2.5708,-2.5708,-2.5708,-2.5708,-2.5708,-2.5708,-2.5708,-2.5718,-2.5767,-2.6211,-2.6621,-2.6992,-2.7526,-2.7575,-2.7477,-2.7252,-2.6953,-2.668,-2.6303,-2.6089,-2.5913,-2.5747,-2.5718,-2.5708,-2.5708,-2.5708,-2.5679,-2.562,-2.562,-2.564,-2.5659,-2.5596,-2.4771,-2.3084,-2.2181,-2.0778,-1.8679,-1.7975,-1.7588,-1.7548,-1.7555,-1.7501,-1.7327,-1.7394,-1.7408,-1.7321,-1.7267,-1.7187,-1.708,-1.6914,-1.682,-1.7013,-1.7187,-1.7334,-1.7461,-1.7535,-1.7582,-1.7615,-1.7615,-1.7615,-1.7615,-1.7615,-1.7615,-1.7615,-1.7642,-1.7615,-1.7615,-1.7595,-1.7501,-1.7515,-1.7582,-1.7535,-1.7327,-1.7199,-1.6998,-1.6707,-1.6567,-1.6375,-1.6593,-1.6812,-1.6906,-1.6959,-1.6946,-1.6208,-1.4205,-1.2441,-1.091,-0.9808,-0.8943,-0.8831,-0.8889,-0.8862,-0.8777,-0.8821,-0.8909,-2.8301,-2.8301,-2.8301,-2.8301,-2.8301,-2.8291,-2.8125,-2.7839,-2.7393,-2.706,-2.6728,-2.6504,-2.6221,-2.5893,-2.5757,-2.5718,-2.5708,-2.5708,-2.5708,-2.5708,-2.5708,-2.5708,-2.5708,-2.5708,-2.5708,-2.5708,-2.5708,-2.5718,-2.5884,-2.6396,-2.6826,-2.708,-2.7725,-2.7868,-2.7731,-2.7565,-2.7399,-2.71,-2.6654,-2.6387,-2.6059,-2.5854,-2.5776,-2.5708,-2.5708,-2.5708,-2.5708,-2.5708,-2.5708,-2.5708,-2.5708,-2.543,-2.4122,-2.2558,-2.1262,-1.8928,-1.791,-1.7608,-1.7615,-1.7615,-1.7615,-1.7615,-1.7508,-1.7528,-1.7561,-1.7528,-1.7448,-1.7367,-1.7321,-1.7201,-1.7168,-1.7314,-1.7408,-1.7474,-1.7561,-1.7582,-1.7615,-1.7615,-1.7615,-1.7615,-1.7615,-1.7615,-1.7615,-1.7675,-1.7662,-1.7642,-1.7628,-1.7648,-1.7628,-1.7635,-1.7608,-1.7575,-1.7474,-1.7326,-1.7152,-1.6881,-1.6767,-1.6693,-1.6894,-1.706,-1.7107,-1.714,-1.7146,-1.6099,-1.4273,-1.2551,-1.0917,-0.9888,-0.8883,-0.8858,-0.8902,-0.8882,-0.8844,-0.8896,-0.8926,-2.8301,-2.8301,-2.8301,-2.8301,-2.8232,-2.793,-2.7653,-2.7383,-2.7129,-2.6777,-2.6387,-2.6201,-2.5962,-2.5767,-2.5718,-2.5708,-2.5708,-2.5708,-2.5708,-2.5708,-2.5708,-2.5708,-2.5708,-2.5708,-2.5708,-2.5708,-2.5708,-2.5708,-2.5923,-2.6518,-2.7025,-2.7353,-2.7998,-2.7966,-2.7848,-2.78,-2.7692,-2.7314,-2.6943,-2.666,-2.6338,-2.5962,-2.5776,-2.5728,-2.5728,-2.5708,-2.5708,-2.5708,-2.5708,-2.5708,-2.5708,-2.5069,-2.3583,-2.1954,-2.0128,-1.812,-1.7687,-1.7615,-1.7615,-1.7615,-1.7615,-1.7615,-1.7615,-1.7608,-1.7602,-1.7582,-1.7575,-1.7548,-1.7575,-1.7588,-1.7595,-1.7608,-1.7608,-1.7608,-1.7608,-1.7608,-1.7615,-1.7615,-1.7615,-1.7615,-1.7615,-1.7615,-1.7648,-1.7695,-1.7769,-1.7802,-1.7822,-1.7829,-1.7756,-1.7662,-1.7648,-1.7595,-1.7515,-1.7394,-1.7247,-1.7187,-1.7121,-1.7108,-1.7215,-1.7347,-1.7347,-1.7237,-1.7133,-1.5993,-1.4445,-1.2796,-1.125,-0.9844,-0.8892,-0.8909,-0.8912,-0.8902,-0.8892,-0.8899,-0.8936,-2.8301,-2.8301,-2.8301,-2.8301,-2.8184,-2.7513,-2.7168,-2.7021,-2.7021,-2.6758,-2.6309,-2.5893,-2.5747,-2.5708,-2.5708,-2.5708,-2.5708,-2.5708,-2.5708,-2.5708,-2.5708,-2.5708,-2.5708,-2.5708,-2.5708,-2.5708,-2.5708,-2.5718,-2.5932,-2.642,-2.7041,-2.7604,-2.7881,-2.7858,-2.7624,-2.7917,-2.779,-2.737,-2.7012,-2.6709,-2.6416,-2.605,-2.5713,-2.5776,-2.5747,-2.5708,-2.5708,-2.5708,-2.5708,-2.5708,-2.5528,-2.502,-2.3076,-2.0896,-1.8942,-1.8146,-1.7661,-1.7615,-1.7615,-1.7615,-1.7615,-1.7615,-1.7615,-1.7615,-1.7615,-1.7615,-1.7615,-1.7615,-1.7615,-1.7615,-1.7615,-1.7615,-1.7615,-1.7615,-1.7615,-1.7615,-1.7615,-1.7615,-1.7615,-1.7615,-1.7615,-1.7635,-1.7762,-1.7822,-1.7956,-1.8002,-1.8049,-1.8049,-1.7989,-1.7869,-1.7722,-1.7682,-1.7575,-1.7535,-1.7575,-1.7528,-1.7535,-1.7562,-1.7575,-1.7548,-1.7488,-1.7311,-1.7107,-1.6033,-1.4881,-1.3263,-1.1697,-1.0217,-0.9078,-0.8909,-0.8912,-0.8923,-0.8929,-0.8956,-0.9008,-2.8301,-2.8301,-2.8301,-2.8301,-2.8271,-2.8076,-2.7578,-2.7031,-2.7012,-2.6592,-2.5952,-2.5767,-2.5728,-2.5757,-2.5718,-2.5708,-2.5708,-2.5708,-2.5708,-2.5708,-2.5708,-2.5708,-2.5728,-2.5767,-2.5728,-2.5708,-2.5708,-2.5718,-2.5854,-2.6279,-2.6602,-2.6787,-2.7226,-2.7412,-2.7379,-2.7725,-2.7751,-2.7344,-2.733,-2.7047,-2.6748,-2.6196,-2.5791,-2.5923,-2.5962,-2.5737,-2.5708,-2.5708,-2.5708,-2.5708,-2.5708,-2.4452,-2.2257,-1.9602,-1.8173,-1.7654,-1.7615,-1.7615,-1.7615,-1.7615,-1.7615,-1.7615,-1.7615,-1.7615,-1.7615,-1.7615,-1.7615,-1.7615,-1.7615,-1.7615,-1.7615,-1.7615,-1.7615,-1.7615,-1.7615,-1.7615,-1.7615,-1.7615,-1.7615,-1.7615,-1.7615,-1.7716,-1.7849,-1.8016,-1.8136,-1.8243,-1.835,-1.8377,-1.8364,-1.825,-1.7963,-1.7876,-1.7689,-1.7662,-1.7776,-1.7822,-1.7796,-1.7769,-1.7756,-1.7689,-1.7642,-1.7477,-1.7259,-1.6472,-1.5384,-1.3689,-1.1973,-1.0312,-0.9441,-0.913,-0.8987,-0.9027,-0.91,-0.9158,-0.9158,-2.8301,-2.8301,-2.8301,-2.8301,-2.8271,-2.8122,-2.7627,-2.7035,-2.6816,-2.6342,-2.5776,-2.5718,-2.5806,-2.5884,-2.5806,-2.5728,-2.5728,-2.5708,-2.5708,-2.5708,-2.5708,-2.5708,-2.5757,-2.5884,-2.5825,-2.5786,-2.5728,-2.5737,-2.5786,-2.6172,-2.6465,-2.666,-2.7031,-2.7275,-2.7334,-2.7692,-2.7741,-2.7383,-2.7614,-2.7448,-2.7031,-2.643,-2.5952,-2.603,-2.5874,-2.5684,-2.5708,-2.5708,-2.5708,-2.5118,-2.4535,-2.2876,-2.0837,-1.8857,-1.7845,-1.7608,-1.7615,-1.7615,-1.7615,-1.7615,-1.7615,-1.7615,-1.7615,-1.7615,-1.7615,-1.7615,-1.7615,-1.7615,-1.7615,-1.7615,-1.7615,-1.7615,-1.7615,-1.7615,-1.7615,-1.7615,-1.7615,-1.7615,-1.7615,-1.7615,-1.7675,-1.7849,-1.8035,-1.8389,-1.8496,-1.8576,-1.8671,-1.8684,-1.8671,-1.8637,-1.8343,-1.815,-1.8063,-1.8023,-1.8143,-1.8103,-1.7956,-1.7936,-1.7976,-1.7903,-1.7836,-1.7702,-1.7371,-1.6607,-1.5531,-1.401,-1.2289,-1.0568,-0.9645,-0.928,-0.9191,-0.9184,-0.926,-0.9318,-0.9359,-2.8301,-2.8291,-2.8232,-2.8242,-2.8249,-2.7878,-2.7422,-2.6986,-2.6641,-2.6225,-2.5845,-2.5757,-2.6006,-2.6123,-2.6025,-2.5874,-2.5825,-2.5913,-2.5854,-2.5718,-2.5708,-2.5708,-2.5864,-2.6079,-2.603,-2.5903,-2.5776,-2.5713,-2.5713,-2.6137,-2.6572,-2.6973,-2.7295,-2.7614,-2.778,-2.7917,-2.7897,-2.7637,-2.7588,-2.7487,-2.707,-2.6631,-2.625,-2.5932,-2.5713,-2.5718,-2.5708,-2.5708,-2.5708,-2.4402,-2.3026,-2.138,-2.0007,-1.8506,-1.7943,-1.7615,-1.7615,-1.7615,-1.7615,-1.7615,-1.7615,-1.7615,-1.7615,-1.7615,-1.7615,-1.7615,-1.7615,-1.7615,-1.7615,-1.7615,-1.7615,-1.7615,-1.7615,-1.7615,-1.7615,-1.7622,-1.7622,-1.7648,-1.7675,-1.7682,-1.7842,-1.7995,-1.8289,-1.8623,-1.881,-1.889,-1.8943,-1.895,-1.8971,-1.8925,-1.8764,-1.8677,-1.8652,-1.8611,-1.8564,-1.837,-1.8203,-1.8303,-1.8317,-1.8163,-1.7934,-1.7463,-1.7056,-1.6723,-1.5526,-1.353,-1.2263,-1.0725,-1.0018,-0.9361,-0.9313,-0.9293,-0.9395,-0.9488,-0.9554,-2.8301,-2.8271,-2.7966,-2.8005,-2.8184,-2.7858,-2.7412,-2.7025,-2.6914,-2.665,-2.6191,-2.5874,-2.5952,-2.6412,-2.6328,-2.6201,-2.604,-2.6143,-2.5952,-2.5732,-2.5718,-2.5708,-2.5806,-2.605,-2.6269,-2.6152,-2.5893,-2.5728,-2.5713,-2.6108,-2.6435,-2.6621,-2.6947,-2.7324,-2.7738,-2.7858,-2.7956,-2.7842,-2.7851,-2.7773,-2.708,-2.6689,-2.6426,-2.6162,-2.5903,-2.5786,-2.5708,-2.5708,-2.5045,-2.3642,-2.1735,-2.029,-1.922,-1.833,-1.7793,-1.7615,-1.7615,-1.7615,-1.7615,-1.7615,-1.7615,-1.7615,-1.7615,-1.7615,-1.7615,-1.7615,-1.7615,-1.7622,-1.7622,-1.7635,-1.7635,-1.7615,-1.7615,-1.7615,-1.7615,-1.7642,-1.7662,-1.7762,-1.7836,-1.7956,-1.811,-1.8283,-1.8423,-1.8758,-1.9025,-1.9112,-1.9241,-1.9247,-1.9227,-1.9207,-1.916,-1.914,-1.912,-1.9018,-1.8885,-1.8611,-1.847,-1.8597,-1.8637,-1.8456,-1.7942,-1.6941,-1.6535,-1.6396,-1.4526,-1.2299,-1.1187,-1.0782,-1.0048,-0.9445,-0.9391,-0.942,-0.951,-0.9598,-0.9666]},{"header":{"parameterUnit":"m.s-1","parameterCategory":1,"la1":31.0,"la2":29.5877,"lo1":-88.7671,"lo2":-86.6584,"dy":0.0162,"dx":0.0185,"nx":115,"ny":88,"refTime":"2023-09-02T12:00:00:Z","depth":0,"parameterNumber":3,"parameterNumberName":"V-component_of_WINDS"},"data":[0.0,0.0,0.0,0.0,0.0,0.0,0.0,0.0,0.0,0.0,0.0,0.0,0.0,0.0,0.0,0.0,0.0,0.0,0.0,0.0,0.0,0.0,0.0,0.0,0.0,0.0,0.0,0.0,0.0,0.0,0.0,0.0,0.0,0.0,0.0,0.0,0.0,0.0,0.0,0.0,0.0,0.0,0.0,0.0,0.0,0.0,0.0,0.0,0.0,0.0,0.0,0.0,0.0,0.0,0.0,0.0,0.0,0.0,0.0,0.0,0.0,0.0,0.0,0.0,0.0,0.0,0.0,0.0,0.0,0.0,0.0,0.0,0.0,0.0,0.0,0.0,0.0,0.0,0.0,0.0,0.0,0.0,0.0,0.0,0.0,0.0,0.0,0.0,0.0,0.0,0.0,0.0,0.0,0.0,0.0,0.0,0.0,0.0,0.0,0.0,0.0,0.0,0.0,0.0,0.0,0.0,0.0,0.0,0.0,0.0,0.0,0.0,0.0,0.0,0.0,0.0,0.0,0.0,0.0,0.0,0.0,0.0,0.0,0.0,0.0,0.0,0.0,0.0,0.0,0.0,0.0,0.0,0.0,0.0,0.0,0.0,0.0,0.0,0.0,0.0,0.0,0.0,0.0,0.0,0.0,0.0,0.0,0.0,0.0,0.0,0.0,0.0,0.0,0.0,0.0,0.0,0.0,0.0,0.0,0.0,0.0,0.0,0.0,0.0,0.0,0.0,0.0,0.0,0.0,0.0,0.0,0.0,0.0,0.0,0.0,0.0,0.0,0.0,0.0,0.0,0.0,0.0,0.0,0.0,0.0,0.0,0.0,0.0,0.0,0.0,0.0,0.0,0.0,0.0,0.0,0.0,0.0,0.0,0.0,0.0,0.0,0.0,0.0,0.0,0.0,0.0,0.0,0.0,0.0,0.0,0.0,0.0,0.0,0.0,0.0,0.0,0.0,0.0,0.0,0.0,0.0,0.0,0.0,0.0,0.0,0.0,0.0,0.0,0.0,0.0,0.0,0.0,0.0,0.0,0.0,0.0,0.0,0.0,0.0,0.0,0.0,0.0,0.0,0.0,0.0,0.0,0.0,0.0,0.0,0.0,0.0,0.0,0.0,0.0,0.0,0.0,0.0,0.0,0.0,0.0,0.0,0.0,0.0,0.0,0.0,0.0,0.0,0.0,0.0,0.0,0.0,0.0,0.0,0.0,0.0,0.0,0.0,0.0,0.0,0.0,0.0,0.0,0.0,0.0,0.0,0.0,0.0,0.0,0.0,0.0,0.0,0.0,0.0,0.0,0.0,0.0,0.0,0.0,0.0,0.0,0.0,0.0,0.0,0.0,0.0,0.0,0.0,0.0,0.0,0.0,0.0,0.0,0.0,0.0,0.0,0.0,0.0,0.0,0.0,0.0,0.0,0.0,0.0,0.0,0.0,0.0,0.0,0.0,0.0,0.0,0.0,0.0,0.0,0.0,0.0,0.0,0.0,0.0,0.0,0.0,0.0,0.0,0.0,0.0,0.0,0.0,0.0,0.0,0.0,0.0,0.0,0.0,0.0,0.0,0.0,0.0,0.0,0.0,0.0,0.0,0.0,0.0,0.0,0.0,0.0,0.0,0.0,0.0,0.0,0.0,0.0,0.0,0.0,0.0,0.0,0.0,0.0,0.0,0.0,0.0,0.0,0.0,0.0,0.0,0.0,0.0,0.0,0.0,0.0,0.0,0.0,0.0,0.0,0.0,0.0,0.0,0.0,0.0,0.0,0.0,0.0,0.0,0.0,0.0,0.0,0.0,0.0,0.0,0.0,0.0,0.0,0.0,0.0,0.0,0.0,0.0,0.0,0.0,0.0,0.0,0.0,0.0,0.0,0.0,0.0,0.0,0.0,0.0,0.0,0.0,0.0,0.0,0.0,0.0,0.0,0.0,0.0,0.0,0.0,0.0,0.0,0.0,0.0,0.0,0.0,0.0,0.0,0.0,0.0,0.0,0.0,0.0,0.0,0.0,0.0,0.0,0.0,0.0,0.0,0.0,0.0,0.0,0.0,0.0,0.0,0.0,0.0,0.0,0.0,0.0,0.0,0.0,0.0,0.0,0.0,0.0,0.0,0.0,0.0,0.0,0.0,0.0,0.0,0.0,0.0,0.0,0.0,0.0,0.0,0.0,0.0,0.0,0.0,0.0,0.0,0.0,0.0,0.0,0.0,0.0,0.0,0.0,0.0,0.0,0.0,0.0,0.0,0.0,0.0,0.0,0.0,0.0,0.0,0.0,0.0,0.0,0.0,0.0,0.0,0.0,0.0,0.0,0.0,0.0,0.0,0.0,0.0,0.0,0.0,0.0,0.0,0.0,0.0,0.0,0.0,0.0,0.0,0.0,0.0,0.0,0.0,0.0,0.0,0.0,0.0,0.0,0.0,0.0,0.0,0.0,0.0,0.0,0.0,0.0,0.0,0.0,0.0,0.0,0.0,0.0,0.0,0.0,0.0,0.0,0.0,0.0,0.0,0.0,0.0,0.0,0.0,0.0,0.0,0.0,0.0,0.0,0.0,0.0,0.0,0.0,0.0,0.0,0.0,0.0,0.0,0.0,0.0,0.0,0.0,0.0,0.0,0.0,0.0,0.0,0.0,0.0,0.0,0.0,0.0,0.0,0.0,0.0,0.0,0.0,0.0,0.0,0.0,0.0,0.0,0.0,0.0,0.0,0.0,0.0,0.0,0.0,0.0,0.0,0.0,0.0,0.0,0.0,0.0,0.0,0.0,0.0,0.0,0.0,0.0,0.0,0.0,0.0,0.0,0.0,0.0,0.0,0.0,0.0,0.0,0.0,0.0,0.0,0.0,0.0,0.0,0.0,0.0,0.0,0.0,0.0,0.0,0.0,0.0,0.0,0.0,0.0,0.0,0.0,0.0,0.0,0.0,0.0,0.0,0.0,0.0,0.0,0.0,0.0,0.0,0.0,0.0,0.0,0.0,0.0,0.0,0.0,0.0,0.0,0.0,0.0,0.0,0.0,0.0,0.0,0.0,0.0,0.0,0.0,0.0,0.0,0.0,0.0,0.0,0.0,0.0,0.0,0.0,0.0,0.0,0.0,0.0,0.0,0.0,0.0,0.0,0.0,0.0,0.0,0.0,0.0,0.0,0.0,0.0,0.0,0.0,0.0,0.0,0.0,0.0,0.0,0.0,0.0,0.0,0.0,0.0,0.0,0.0,0.0,0.0,0.0,0.0,0.0,0.0,0.0,0.0,0.0,0.0,0.0,0.0,0.0,0.0,0.0,0.0,0.0,0.0,0.0,0.0,0.0,0.0,0.0,0.0,0.0,0.0,0.0,0.0,0.0,0.0,0.0,0.0,0.0,0.0,0.0,0.0,0.0,0.0,0.0,0.0,0.0,0.0,0.0,0.0,0.0,0.0,0.0,0.0,0.0,0.0,0.0,0.0,0.0,0.0,0.0,0.0,0.0,0.0,0.0,0.0,0.0,0.0,0.0,0.0,0.0,0.0,0.0,0.0,0.0,0.0,0.0,0.0,0.0,0.0,0.0,0.0,0.0,0.0,0.0,0.0,0.0,0.0,0.0,0.0,0.0,0.0,0.0,0.0,0.0,0.0,0.0,0.0,0.0,0.0,0.0,0.0,0.0,0.0,0.0,0.0,0.0,0.0,0.0,0.0,0.0,0.0,0.0,0.0,0.0,0.0,0.0,0.0,0.0,0.0,0.0,0.0,0.0,0.0,0.0,0.0,0.0,0.0,0.0,0.0,0.0,0.0,0.0,0.0,0.0,0.0,0.0,0.0,0.0,0.0,0.0,0.0,0.0,0.0,0.0,0.0,0.0,0.0,0.0,0.0,0.0,0.0,0.0,0.0,0.0,0.0,0.0,0.0,0.0,0.0,0.0,0.0,0.0,0.0,0.0,0.0,0.0,0.0,0.0,0.0,0.0,0.0,0.0,0.0,0.0,0.0,0.0,0.0,0.0,0.0,0.0,0.0,0.0,0.0,0.0,0.0,0.0,0.0,0.0,0.0,0.0,0.0,0.0,0.0,0.0,0.0,0.0,0.0,0.0,0.0,0.0,0.0,0.0,0.0,0.0,0.0,0.0,0.0,0.0,0.0,0.0,0.0,0.0,0.0,0.0,0.0,0.0,0.0,0.0,0.0,0.0,0.0,0.0,0.0,0.0,0.0,0.0,0.0,0.0,0.0,0.0,0.0,0.0,0.0,0.0,0.0,0.0,0.0,0.0,0.0,0.0,0.0,0.0,0.0,0.0,2.9042,0.0,0.0,0.0,0.0,0.0,0.0,0.0,0.0,0.0,0.0,0.0,0.0,0.0,0.0,0.0,0.0,0.0,0.0,0.0,0.0,0.0,0.0,0.0,0.0,0.0,0.0,0.0,0.0,0.0,0.0,0.0,0.0,0.0,0.0,0.0,0.0,0.0,0.0,0.0,0.0,0.0,0.0,0.0,0.0,0.0,0.0,0.0,0.0,0.0,0.0,0.0,0.0,0.0,0.0,0.0,0.0,0.0,0.0,0.0,0.0,0.0,0.0,0.0,0.0,0.0,0.0,0.0,0.0,0.0,0.0,0.0,0.0,0.0,0.0,0.0,0.0,0.0,0.0,0.0,0.0,0.0,0.0,0.0,0.0,0.0,0.0,0.0,0.0,0.0,0.0,0.0,0.0,0.0,0.0,0.0,0.0,0.0,0.0,0.0,0.0,0.0,0.0,0.0,0.0,0.0,0.0,0.0,0.0,0.0,0.0,3.1818,3.0265,3.0216,2.9818,2.906,0.0,0.0,0.0,0.0,0.0,0.0,0.0,0.0,0.0,0.0,0.0,0.0,0.0,0.0,0.0,0.0,0.0,0.0,0.0,0.0,0.0,0.0,0.0,0.0,0.0,0.0,0.0,0.0,0.0,0.0,0.0,0.0,0.0,0.0,0.0,0.0,0.0,0.0,0.0,0.0,0.0,0.0,0.0,0.0,0.0,0.0,0.0,0.0,0.0,0.0,0.0,0.0,0.0,0.0,0.0,0.0,0.0,0.0,0.0,0.0,0.0,0.0,0.0,0.0,0.0,0.0,0.0,0.0,0.0,0.0,0.0,0.0,0.0,0.0,0.0,0.0,0.0,0.0,0.0,0.0,0.0,0.0,0.0,0.0,0.0,0.0,0.0,0.0,0.0,0.0,0.0,0.0,0.0,0.0,0.0,0.0,0.0,0.0,0.0,0.0,0.0,0.0,0.0,0.0,0.0,0.0,0.0,0.0,0.0,0.0,0.0,0.0,3.0216,3.0008,2.9616,0.0,0.0,0.0,0.0,0.0,0.0,0.0,0.0,0.0,0.0,0.0,0.0,0.0,0.0,0.0,0.0,0.0,0.0,0.0,0.0,0.0,0.0,0.0,0.0,0.0,0.0,0.0,0.0,0.0,0.0,0.0,0.0,0.0,0.0,0.0,0.0,0.0,0.0,0.0,0.0,0.0,0.0,0.0,0.0,0.0,0.0,0.0,0.0,0.0,0.0,0.0,0.0,0.0,0.0,0.0,0.0,0.0,0.0,0.0,0.0,0.0,0.0,0.0,0.0,0.0,0.0,0.0,0.0,0.0,0.0,0.0,0.0,0.0,0.0,0.0,0.0,0.0,0.0,0.0,0.0,0.0,0.0,0.0,0.0,0.0,0.0,0.0,0.0,0.0,0.0,0.0,0.0,0.0,0.0,0.0,0.0,0.0,0.0,0.0,0.0,0.0,0.0,0.0,0.0,0.0,0.0,0.0,0.0,0.0,0.0,3.1091,3.0246,3.021,0.0,3.117,0.0,0.0,0.0,0.0,0.0,0.0,0.0,0.0,0.0,0.0,0.0,0.0,0.0,0.0,0.0,0.0,0.0,0.0,0.0,0.0,0.0,0.0,0.0,0.0,0.0,0.0,0.0,0.0,0.0,0.0,0.0,0.0,0.0,0.0,0.0,0.0,0.0,0.0,0.0,0.0,0.0,0.0,0.0,0.0,0.0,0.0,0.0,0.0,0.0,0.0,0.0,0.0,0.0,0.0,0.0,0.0,0.0,0.0,0.0,0.0,0.0,0.0,0.0,0.0,0.0,0.0,0.0,0.0,0.0,0.0,0.0,0.0,0.0,0.0,0.0,0.0,0.0,0.0,0.0,0.0,0.0,0.0,0.0,0.0,0.0,0.0,0.0,0.0,0.0,0.0,0.0,0.0,0.0,0.0,0.0,0.0,0.0,0.0,0.0,0.0,0.0,0.0,0.0,0.0,0.0,0.0,0.0,0.0,0.0,0.0,3.1733,3.0913,3.0448,3.0815,0.0,0.0,0.0,0.0,0.0,0.0,0.0,0.0,0.0,0.0,0.0,0.0,0.0,0.0,0.0,0.0,0.0,0.0,0.0,0.0,0.0,0.0,0.0,0.0,0.0,0.0,0.0,0.0,0.0,0.0,0.0,0.0,0.0,0.0,0.0,0.0,0.0,0.0,0.0,0.0,0.0,0.0,0.0,0.0,0.0,0.0,0.0,0.0,0.0,0.0,0.0,0.0,0.0,0.0,0.0,0.0,0.0,0.0,0.0,0.0,0.0,0.0,0.0,0.0,0.0,0.0,0.0,0.0,0.0,0.0,0.0,0.0,0.0,0.0,0.0,0.0,0.0,0.0,0.0,0.0,0.0,0.0,0.0,0.0,0.0,0.0,0.0,0.0,0.0,0.0,0.0,0.0,0.0,0.0,0.0,0.0,0.0,0.0,0.0,0.0,0.0,0.0,0.0,0.0,0.0,0.0,0.0,0.0,0.0,0.0,3.2711,3.2204,3.1427,3.0834,3.1182,3.2546,0.0,0.0,0.0,0.0,0.0,0.0,0.0,0.0,0.0,0.0,0.0,0.0,0.0,0.0,0.0,0.0,0.0,0.0,0.0,0.0,0.0,0.0,0.0,0.0,0.0,0.0,0.0,0.0,0.0,0.0,0.0,0.0,0.0,0.0,0.0,0.0,0.0,0.0,0.0,0.0,0.0,0.0,0.0,0.0,0.0,0.0,0.0,0.0,0.0,0.0,0.0,0.0,0.0,0.0,0.0,0.0,0.0,0.0,0.0,0.0,0.0,0.0,0.0,0.0,0.0,0.0,0.0,0.0,0.0,0.0,0.0,0.0,0.0,0.0,0.0,0.0,0.0,0.0,0.0,0.0,0.0,0.0,0.0,0.0,0.0,0.0,0.0,0.0,0.0,0.0,0.0,0.0,0.0,0.0,0.0,0.0,0.0,0.0,0.0,0.0,0.0,0.0,0.0,0.0,0.0,0.0,0.0,0.0,3.3678,3.2956,3.221,3.1427,3.1378,3.1739,0.0,0.0,0.0,0.0,0.0,0.0,0.0,0.0,0.0,0.0,0.0,0.0,0.0,0.0,0.0,0.0,0.0,0.0,0.0,0.0,0.0,0.0,0.0,0.0,0.0,0.0,0.0,0.0,0.0,0.0,0.0,0.0,0.0,0.0,0.0,0.0,0.0,0.0,0.0,0.0,0.0,0.0,0.0,0.0,0.0,0.0,0.0,0.0,0.0,0.0,0.0,0.0,0.0,0.0,0.0,0.0,0.0,0.0,0.0,0.0,0.0,0.0,0.0,0.0,0.0,0.0,0.0,0.0,0.0,0.0,0.0,0.0,0.0,0.0,0.0,0.0,0.0,0.0,0.0,0.0,0.0,0.0,0.0,0.0,0.0,0.0,0.0,0.0,0.0,0.0,0.0,0.0,0.0,0.0,0.0,0.0,0.0,0.0,0.0,0.0,0.0,0.0,0.0,0.0,0.0,0.0,0.0,0.0,0.0,3.2253,3.1476,3.1164,3.136,3.0913,3.1017,0.0,0.0,0.0,0.0,0.0,0.0,0.0,0.0,0.0,0.0,0.0,0.0,0.0,0.0,0.0,0.0,0.0,0.0,0.0,0.0,0.0,0.0,0.0,0.0,0.0,0.0,0.0,0.0,0.0,0.0,0.0,0.0,0.0,0.0,0.0,0.0,0.0,0.0,0.0,0.0,0.0,0.0,0.0,0.0,0.0,0.0,0.0,0.0,0.0,0.0,0.0,0.0,0.0,0.0,0.0,0.0,0.0,0.0,0.0,0.0,0.0,0.0,0.0,0.0,0.0,0.0,0.0,0.0,0.0,0.0,0.0,0.0,0.0,0.0,0.0,0.0,0.0,0.0,0.0,0.0,0.0,0.0,0.0,0.0,0.0,0.0,0.0,0.0,0.0,0.0,0.0,0.0,0.0,0.0,0.0,0.0,0.0,0.0,0.0,0.0,0.0,0.0,0.0,0.0,0.0,0.0,0.0,0.0,0.0,3.1415,0.0,3.0467,3.095,3.0503,3.0583,0.0,0.0,0.0,0.0,0.0,0.0,0.0,0.0,0.0,0.0,0.0,0.0,0.0,0.0,0.0,0.0,0.0,0.0,0.0,0.0,0.0,0.0,0.0,0.0,0.0,0.0,0.0,0.0,0.0,0.0,0.0,0.0,0.0,0.0,0.0,0.0,0.0,0.0,0.0,0.0,0.0,0.0,0.0,0.0,0.0,0.0,0.0,0.0,0.0,0.0,0.0,0.0,0.0,0.0,0.0,0.0,0.0,0.0,0.0,0.0,0.0,0.0,0.0,0.0,0.0,0.0,0.0,0.0,0.0,0.0,0.0,0.0,0.0,0.0,0.0,0.0,0.0,0.0,0.0,0.0,0.0,0.0,0.0,0.0,0.0,0.0,0.0,0.0,0.0,0.0,0.0,0.0,0.0,0.0,0.0,0.0,0.0,0.0,0.0,0.0,0.0,0.0,0.0,0.0,0.0,0.0,0.0,0.0,3.221,3.1378,3.0558,3.0191,3.0204,3.0191,3.0564,0.0,0.0,0.0,0.0,0.0,0.0,0.0,0.0,0.0,0.0,0.0,0.0,0.0,0.0,0.0,0.0,0.0,0.0,0.0,0.0,0.0,0.0,0.0,0.0,0.0,0.0,0.0,0.0,0.0,0.0,0.0,0.0,0.0,0.0,0.0,0.0,0.0,0.0,0.0,0.0,0.0,0.0,0.0,0.0,0.0,0.0,0.0,0.0,0.0,0.0,0.0,0.0,0.0,0.0,0.0,0.0,0.0,0.0,0.0,0.0,0.0,0.0,0.0,0.0,0.0,0.0,0.0,0.0,0.0,0.0,0.0,0.0,0.0,0.0,0.0,0.0,0.0,0.0,0.0,0.0,0.0,0.0,0.0,0.0,0.0,0.0,0.0,0.0,0.0,0.0,0.0,0.0,0.0,0.0,0.0,0.0,0.0,0.0,0.0,0.0,0.0,0.0,0.0,0.0,0.0,0.0,0.0,0.0,0.0,2.98,2.95,2.9635,3.0155,2.9653,3.002,0.0,0.0,0.0,0.0,0.0,0.0,0.0,0.0,0.0,0.0,0.0,0.0,0.0,0.0,0.0,0.0,0.0,0.0,0.0,0.0,0.0,0.0,0.0,0.0,0.0,0.0,0.0,0.0,0.0,0.0,0.0,0.0,0.0,0.0,0.0,0.0,0.0,0.0,0.0,0.0,0.0,0.0,0.0,0.0,0.0,0.0,0.0,0.0,0.0,0.0,0.0,0.0,0.0,0.0,0.0,0.0,0.0,0.0,0.0,0.0,0.0,0.0,0.0,0.0,0.0,0.0,0.0,0.0,0.0,0.0,0.0,0.0,0.0,0.0,0.0,0.0,0.0,0.0,0.0,0.0,0.0,0.0,0.0,0.0,0.0,0.0,0.0,0.0,0.0,0.0,0.0,0.0,0.0,0.0,0.0,0.0,0.0,0.0,0.0,0.0,0.0,0.0,0.0,0.0,0.0,0.0,0.0,0.0,0.0,3.0436,3.0038,3.013,3.0638,3.0149,3.0522,3.1794,0.0,0.0,0.0,0.0,0.0,0.0,0.0,0.0,0.0,0.0,0.0,0.0,0.0,0.0,0.0,0.0,0.0,0.0,0.0,0.0,0.0,0.0,0.0,0.0,0.0,0.0,0.0,0.0,0.0,0.0,0.0,0.0,0.0,0.0,0.0,0.0,0.0,0.0,0.0,0.0,0.0,0.0,0.0,0.0,0.0,0.0,0.0,0.0,0.0,0.0,0.0,0.0,0.0,0.0,0.0,0.0,0.0,0.0,0.0,0.0,0.0,0.0,0.0,0.0,0.0,0.0,0.0,0.0,0.0,0.0,0.0,0.0,0.0,0.0,0.0,0.0,0.0,0.0,0.0,0.0,0.0,0.0,0.0,0.0,0.0,0.0,0.0,0.0,0.0,0.0,0.0,0.0,0.0,0.0,0.0,0.0,0.0,0.0,0.0,0.0,0.0,0.0,0.0,0.0,0.0,0.0,0.0,0.0,3.2681,3.1971,3.1574,3.1537,3.1427,3.1806,0.0,0.0,0.0,0.0,0.0,0.0,0.0,0.0,0.0,0.0,0.0,0.0,0.0,0.0,0.0,0.0,0.0,0.0,0.0,0.0,0.0,0.0,0.0,0.0,0.0,0.0,0.0,0.0,0.0,0.0,0.0,0.0,0.0,0.0,0.0,0.0,0.0,0.0,0.0,0.0,0.0,0.0,0.0,0.0,0.0,0.0,0.0,0.0,0.0,0.0,0.0,0.0,0.0,0.0,0.0,0.0,0.0,0.0,0.0,0.0,0.0,0.0,0.0,0.0,0.0,0.0,0.0,0.0,0.0,0.0,0.0,0.0,0.0,0.0,0.0,0.0,0.0,0.0,0.0,0.0,0.0,0.0,0.0,0.0,0.0,0.0,0.0,0.0,0.0,0.0,0.0,0.0,0.0,0.0,0.0,0.0,0.0,0.0,0.0,0.0,0.0,0.0,0.0,0.0,0.0,0.0,0.0,0.0,0.0,3.3532,3.3855,3.3782,3.3164,3.2015,3.2051,0.0,0.0,0.0,0.0,0.0,0.0,0.0,0.0,0.0,0.0,0.0,0.0,0.0,0.0,0.0,0.0,0.0,0.0,0.0,0.0,0.0,0.0,0.0,0.0,0.0,0.0,0.0,0.0,0.0,0.0,0.0,0.0,0.0,0.0,0.0,0.0,0.0,0.0,0.0,0.0,0.0,0.0,0.0,0.0,0.0,0.0,0.0,0.0,0.0,0.0,0.0,0.0,0.0,0.0,0.0,0.0,0.0,0.0,0.0,0.0,0.0,0.0,0.0,0.0,0.0,0.0,0.0,0.0,0.0,0.0,0.0,0.0,0.0,0.0,0.0,0.0,0.0,0.0,0.0,0.0,0.0,0.0,0.0,0.0,0.0,0.0,0.0,0.0,0.0,0.0,0.0,0.0,0.0,0.0,0.0,0.0,0.0,0.0,0.0,0.0,0.0,0.0,0.0,0.0,0.0,0.0,0.0,0.0,3.5305,3.4878,3.5286,3.5488,3.5356,3.3788,3.3183,0.0,0.0,0.0,0.0,0.0,0.0,0.0,0.0,0.0,0.0,0.0,0.0,0.0,0.0,0.0,0.0,0.0,0.0,0.0,0.0,0.0,0.0,0.0,0.0,0.0,0.0,0.0,0.0,0.0,0.0,0.0,0.0,0.0,0.0,0.0,0.0,0.0,0.0,0.0,0.0,0.0,0.0,0.0,0.0,0.0,0.0,0.0,0.0,0.0,0.0,0.0,0.0,0.0,0.0,0.0,0.0,0.0,0.0,0.0,0.0,0.0,0.0,0.0,0.0,0.0,0.0,0.0,0.0,0.0,0.0,0.0,0.0,0.0,0.0,0.0,0.0,0.0,0.0,0.0,0.0,0.0,0.0,0.0,0.0,0.0,0.0,0.0,0.0,0.0,0.0,0.0,0.0,0.0,0.0,0.0,0.0,0.0,0.0,0.0,0.0,0.0,0.0,0.0,0.0,0.0,0.0,0.0,0.0,3.6468,3.6549,3.6541,3.6879,3.7529,3.5929,3.4674,0.0,0.0,0.0,0.0,0.0,0.0,0.0,0.0,0.0,0.0,0.0,0.0,0.0,0.0,0.0,0.0,0.0,0.0,0.0,0.0,0.0,0.0,0.0,0.0,0.0,0.0,0.0,0.0,0.0,0.0,0.0,0.0,0.0,0.0,0.0,0.0,0.0,0.0,0.0,0.0,0.0,0.0,0.0,0.0,0.0,0.0,0.0,0.0,0.0,0.0,0.0,0.0,0.0,0.0,0.0,0.0,0.0,0.0,0.0,0.0,0.0,0.0,0.0,0.0,0.0,0.0,0.0,0.0,0.0,0.0,0.0,0.0,0.0,0.0,0.0,0.0,0.0,0.0,0.0,0.0,0.0,0.0,0.0,0.0,0.0,0.0,0.0,0.0,0.0,0.0,0.0,0.0,0.0,0.0,0.0,0.0,0.0,0.0,0.0,0.0,0.0,0.0,0.0,0.0,0.0,0.0,0.0,0.0,3.754,3.8175,3.8193,3.8267,3.8432,3.6215,3.4912,0.0,0.0,0.0,0.0,0.0,0.0,0.0,0.0,0.0,0.0,0.0,0.0,0.0,0.0,0.0,0.0,0.0,0.0,0.0,0.0,0.0,0.0,0.0,0.0,0.0,0.0,0.0,0.0,0.0,0.0,0.0,0.0,0.0,0.0,0.0,0.0,0.0,0.0,0.0,0.0,0.0,0.0,0.0,0.0,0.0,0.0,0.0,0.0,3.5503,0.0,0.0,0.0,0.0,0.0,0.0,0.0,0.0,0.0,0.0,0.0,0.0,0.0,0.0,0.0,0.0,0.0,0.0,0.0,0.0,0.0,0.0,0.0,0.0,0.0,0.0,0.0,0.0,0.0,0.0,0.0,0.0,0.0,0.0,0.0,0.0,0.0,0.0,0.0,0.0,0.0,0.0,0.0,0.0,0.0,0.0,0.0,0.0,0.0,0.0,0.0,0.0,0.0,0.0,0.0,0.0,0.0,0.0,0.0,3.8274,3.8707,3.9066,3.9276,3.9184,3.6883,3.5426,0.0,0.0,0.0,0.0,0.0,0.0,0.0,0.0,0.0,0.0,0.0,0.0,0.0,0.0,0.0,0.0,0.0,0.0,0.0,0.0,0.0,0.0,0.0,0.0,0.0,0.0,0.0,0.0,0.0,0.0,0.0,0.0,0.0,0.0,0.0,0.0,0.0,0.0,0.0,0.0,0.0,0.0,0.0,0.0,0.0,0.0,0.0,0.0,0.0,0.0,0.0,0.0,0.0,0.0,0.0,0.0,0.0,0.0,0.0,0.0,0.0,0.0,0.0,0.0,0.0,0.0,0.0,0.0,0.0,0.0,0.0,0.0,0.0,0.0,0.0,0.0,0.0,0.0,0.0,0.0,0.0,0.0,0.0,0.0,0.0,0.0,0.0,0.0,0.0,0.0,0.0,0.0,0.0,0.0,0.0,0.0,0.0,0.0,0.0,0.0,0.0,0.0,0.0,0.0,0.0,0.0,0.0,3.7635,3.8883,3.925,3.9808,4.0065,4.0047,3.7742,3.6064,3.5243,0.0,0.0,0.0,0.0,0.0,0.0,0.0,0.0,0.0,0.0,0.0,0.0,0.0,0.0,0.0,0.0,0.0,0.0,0.0,0.0,0.0,0.0,0.0,0.0,0.0,0.0,0.0,0.0,0.0,0.0,0.0,0.0,0.0,0.0,0.0,0.0,0.0,0.0,3.4395,3.5138,0.0,0.0,0.0,0.0,0.0,0.0,0.0,0.0,3.5503,0.0,0.0,0.0,0.0,0.0,0.0,0.0,0.0,0.0,0.0,0.0,0.0,0.0,0.0,0.0,0.0,0.0,0.0,0.0,0.0,0.0,0.0,0.0,0.0,0.0,0.0,0.0,0.0,0.0,0.0,0.0,0.0,0.0,0.0,0.0,0.0,0.0,0.0,0.0,0.0,0.0,0.0,0.0,0.0,0.0,0.0,0.0,0.0,0.0,0.0,0.0,0.0,0.0,0.0,0.0,0.0,3.8039,3.8479,3.968,4.1625,4.1177,4.0901,4.0846,3.8568,3.6916,3.6083,0.0,0.0,0.0,0.0,0.0,0.0,0.0,0.0,0.0,0.0,0.0,0.0,0.0,0.0,0.0,0.0,0.0,0.0,0.0,0.0,0.0,0.0,0.0,0.0,0.0,0.0,0.0,0.0,0.0,0.0,0.0,0.0,0.0,0.0,0.0,0.0,0.0,0.0,0.0,3.6003,3.625,0.0,0.0,0.0,0.0,0.0,0.0,0.0,0.0,3.5503,0.0,0.0,0.0,0.0,0.0,0.0,0.0,0.0,0.0,0.0,0.0,0.0,0.0,0.0,0.0,0.0,0.0,0.0,0.0,0.0,0.0,0.0,0.0,0.0,0.0,0.0,0.0,0.0,0.0,0.0,0.0,0.0,0.0,0.0,0.0,0.0,0.0,0.0,0.0,0.0,0.0,0.0,0.0,0.0,0.0,0.0,0.0,0.0,0.0,0.0,0.0,0.0,0.0,0.0,0.0,3.801,3.9313,4.0718,4.2213,4.1507,4.1113,4.104,3.8358,3.6696,0.0,0.0,0.0,0.0,0.0,0.0,0.0,0.0,0.0,0.0,0.0,0.0,0.0,0.0,0.0,0.0,0.0,0.0,0.0,0.0,0.0,0.0,0.0,0.0,0.0,0.0,0.0,0.0,0.0,0.0,0.0,0.0,0.0,0.0,0.0,0.0,0.0,0.0,0.0,0.0,3.6192,3.6407,3.5615,0.0,0.0,0.0,0.0,0.0,0.0,3.5503,3.5503,0.0,0.0,0.0,0.0,0.0,0.0,0.0,0.0,0.0,0.0,0.0,0.0,0.0,0.0,0.0,0.0,0.0,0.0,0.0,0.0,0.0,0.0,0.0,0.0,0.0,0.0,0.0,0.0,0.0,0.0,0.0,0.0,0.0,0.0,0.0,0.0,0.0,0.0,0.0,0.0,0.0,0.0,0.0,0.0,0.0,0.0,0.0,0.0,0.0,0.0,0.0,0.0,0.0,0.0,0.0,3.7779,3.9955,4.158,4.2451,4.1599,4.1113,4.1058,3.8303,3.6707,0.0,0.0,0.0,0.0,0.0,0.0,0.0,0.0,0.0,0.0,0.0,0.0,0.0,0.0,0.0,0.0,0.0,0.0,0.0,0.0,0.0,0.0,0.0,0.0,0.0,0.0,0.0,0.0,0.0,0.0,0.0,0.0,0.0,0.0,0.0,0.0,0.0,0.0,0.0,0.0,0.0,3.6869,3.5907,3.6288,0.0,0.0,0.0,0.0,3.575,3.5885,0.0,0.0,0.0,0.0,0.0,0.0,0.0,0.0,0.0,0.0,0.0,0.0,0.0,0.0,0.0,0.0,0.0,0.0,0.0,0.0,0.0,0.0,0.0,0.0,0.0,0.0,0.0,0.0,0.0,0.0,0.0,0.0,0.0,0.0,0.0,0.0,0.0,0.0,0.0,0.0,0.0,0.0,0.0,0.0,0.0,0.0,0.0,0.0,0.0,0.0,0.0,0.0,0.0,0.0,0.0,0.0,3.856,4.0241,4.1819,4.3194,4.1874,4.1113,4.1077,3.936,3.8083,0.0,0.0,0.0,0.0,0.0,0.0,0.0,0.0,0.0,0.0,0.0,0.0,0.0,0.0,0.0,0.0,0.0,0.0,0.0,0.0,0.0,0.0,0.0,0.0,0.0,0.0,0.0,0.0,0.0,0.0,0.0,0.0,0.0,0.0,0.0,0.0,0.0,0.0,0.0,0.0,0.0,3.8415,3.6788,3.6635,3.6427,0.0,0.0,3.6558,3.6558,3.7196,0.0,0.0,0.0,0.0,0.0,0.0,0.0,0.0,0.0,0.0,0.0,0.0,0.0,0.0,0.0,0.0,0.0,0.0,0.0,0.0,0.0,0.0,0.0,0.0,0.0,0.0,0.0,0.0,0.0,0.0,0.0,0.0,0.0,0.0,0.0,0.0,0.0,0.0,0.0,0.0,0.0,0.0,0.0,0.0,0.0,0.0,0.0,0.0,0.0,0.0,0.0,0.0,0.0,0.0,0.0,3.7558,3.8718,4.0718,4.2341,4.3414,4.2359,4.1562,4.1113,3.9544,3.8322,0.0,0.0,0.0,0.0,0.0,0.0,0.0,0.0,0.0,0.0,0.0,0.0,0.0,0.0,0.0,0.0,0.0,0.0,0.0,0.0,0.0,0.0,0.0,0.0,0.0,0.0,0.0,0.0,0.0,0.0,0.0,0.0,0.0,0.0,0.0,0.0,0.0,0.0,0.0,0.0,0.0,0.0,3.7661,3.7873,0.0,0.0,0.0,3.76,3.8107,0.0,0.0,0.0,0.0,0.0,0.0,0.0,0.0,0.0,0.0,0.0,0.0,0.0,0.0,0.0,0.0,0.0,0.0,0.0,0.0,0.0,0.0,0.0,0.0,0.0,0.0,0.0,0.0,0.0,0.0,0.0,0.0,0.0,0.0,0.0,0.0,0.0,0.0,0.0,0.0,0.0,0.0,0.0,0.0,0.0,0.0,0.0,0.0,0.0,0.0,0.0,0.0,0.0,0.0,0.0,0.0,0.0,3.8718,4.1277,4.2873,4.3451,4.2727,4.1911,4.1113,3.9735,0.0,0.0,0.0,0.0,0.0,0.0,0.0,0.0,0.0,0.0,0.0,0.0,0.0,0.0,0.0,0.0,0.0,0.0,0.0,0.0,0.0,0.0,0.0,0.0,0.0,0.0,0.0,3.6943,0.0,0.0,0.0,0.0,0.0,0.0,0.0,0.0,0.0,0.0,0.0,0.0,0.0,0.0,4.0377,3.9123,3.9511,3.9858,0.0,0.0,3.9104,3.9534,3.9781,3.9565,0.0,0.0,0.0,0.0,0.0,0.0,0.0,0.0,0.0,0.0,0.0,0.0,0.0,0.0,0.0,0.0,0.0,0.0,0.0,0.0,0.0,0.0,0.0,0.0,0.0,0.0,0.0,0.0,0.0,0.0,0.0,0.0,0.0,0.0,0.0,0.0,0.0,0.0,0.0,0.0,0.0,0.0,0.0,0.0,0.0,0.0,0.0,0.0,0.0,0.0,0.0,0.0,0.0,0.0,0.0,3.8799,4.1809,4.3433,4.3469,4.2717,4.1911,4.1122,4.0267,3.9193,0.0,0.0,0.0,0.0,0.0,0.0,0.0,0.0,0.0,0.0,0.0,0.0,0.0,0.0,0.0,0.0,0.0,0.0,0.0,0.0,0.0,0.0,0.0,0.0,0.0,0.0,0.0,0.0,0.0,0.0,0.0,0.0,0.0,0.0,0.0,0.0,0.0,0.0,0.0,0.0,0.0,4.1677,4.1562,4.16,4.1331,0.0,0.0,4.1296,4.0531,4.1104,4.1085,3.9492,0.0,0.0,0.0,0.0,0.0,0.0,0.0,0.0,0.0,0.0,0.0,0.0,0.0,0.0,0.0,0.0,0.0,0.0,0.0,0.0,0.0,0.0,0.0,0.0,0.0,0.0,0.0,0.0,0.0,0.0,0.0,0.0,0.0,0.0,0.0,0.0,0.0,0.0,0.0,0.0,0.0,0.0,0.0,0.0,0.0,0.0,0.0,0.0,0.0,0.0,0.0,0.0,0.0,3.8495,3.8961,4.1948,4.3488,4.3469,4.2708,4.1919,4.1122,4.0322,3.9433,0.0,0.0,0.0,0.0,0.0,0.0,0.0,0.0,0.0,0.0,0.0,0.0,0.0,0.0,0.0,0.0,0.0,0.0,0.0,0.0,0.0,0.0,0.0,0.0,0.0,0.0,0.0,0.0,3.8009,3.8613,3.8919,0.0,0.0,0.0,0.0,0.0,0.0,0.0,0.0,0.0,0.0,4.26,4.26,4.26,0.0,0.0,4.2701,4.2662,4.2801,4.2701,4.22,4.1027,4.0396,0.0,0.0,0.0,0.0,0.0,0.0,0.0,0.0,0.0,0.0,0.0,0.0,0.0,0.0,0.0,0.0,0.0,0.0,0.0,0.0,0.0,0.0,0.0,0.0,0.0,0.0,0.0,0.0,0.0,0.0,0.0,0.0,0.0,0.0,0.0,0.0,0.0,0.0,0.0,0.0,0.0,0.0,0.0,0.0,0.0,0.0,0.0,0.0,0.0,0.0,0.0,0.0,3.8577,3.9102,4.2017,4.3488,4.3488,4.2955,4.2176,4.1132,4.0402,3.9467,0.0,0.0,0.0,0.0,0.0,0.0,0.0,0.0,0.0,0.0,0.0,0.0,0.0,0.0,0.0,0.0,0.0,0.0,0.0,0.0,0.0,0.0,0.0,0.0,0.0,0.0,0.0,0.0,3.8854,3.9327,3.9327,0.0,0.0,0.0,0.0,0.0,0.0,0.0,0.0,0.0,0.0,4.3547,4.3816,4.384,4.4032,4.4609,4.4224,4.397,4.4263,4.3835,4.3066,4.1989,0.0,0.0,0.0,0.0,0.0,0.0,0.0,0.0,0.0,0.0,0.0,0.0,0.0,0.0,0.0,0.0,0.0,0.0,0.0,0.0,0.0,0.0,0.0,0.0,0.0,0.0,0.0,0.0,0.0,0.0,3.6846,0.0,0.0,0.0,0.0,0.0,0.0,0.0,0.0,0.0,0.0,0.0,0.0,0.0,0.0,0.0,0.0,0.0,0.0,0.0,0.0,0.0,0.0,3.9075,3.9164,4.1991,4.3489,4.347,4.3461,4.2646,4.1134,4.057,3.9337,3.7338,0.0,0.0,0.0,0.0,0.0,0.0,0.0,0.0,0.0,0.0,0.0,0.0,0.0,0.0,0.0,0.0,0.0,0.0,0.0,0.0,0.0,0.0,0.0,0.0,0.0,0.0,3.8675,3.8712,3.8727,0.0,0.0,0.0,0.0,0.0,0.0,0.0,0.0,0.0,0.0,4.3778,4.4586,4.5398,4.5532,4.5498,4.5552,4.5532,4.5244,4.4451,4.4282,4.372,0.0,0.0,0.0,0.0,0.0,0.0,0.0,0.0,0.0,0.0,0.0,0.0,0.0,0.0,0.0,0.0,0.0,0.0,0.0,0.0,0.0,0.0,0.0,0.0,0.0,0.0,0.0,3.777,3.755,0.0,0.0,0.0,0.0,0.0,0.0,0.0,0.0,0.0,0.0,0.0,3.7917,3.8219,0.0,0.0,0.0,0.0,0.0,0.0,0.0,0.0,0.0,0.0,0.0,0.0,3.8953,3.9516,4.1765,4.2967,4.2958,4.2048,4.1235,4.0518,3.9806,3.8887,3.7712,0.0,0.0,0.0,0.0,0.0,0.0,0.0,0.0,0.0,0.0,0.0,0.0,0.0,0.0,0.0,0.0,0.0,0.0,0.0,0.0,0.0,0.0,0.0,0.0,0.0,3.8699,0.0,0.0,0.0,0.0,0.0,0.0,0.0,0.0,0.0,0.0,0.0,4.2643,4.3758,4.4124,4.4624,4.5475,4.5594,4.5594,0.0,0.0,0.0,0.0,0.0,0.0,0.0,0.0,0.0,0.0,0.0,0.0,0.0,0.0,4.5624,4.3104,4.2431,4.2243,4.2243,0.0,0.0,0.0,0.0,0.0,0.0,0.0,0.0,0.0,0.0,0.0,0.0,0.0,0.0,0.0,0.0,3.8294,0.0,0.0,0.0,0.0,0.0,0.0,0.0,0.0,3.8857,3.8965,3.8674,3.8971,3.8965,0.0,3.8667,3.829,0.0,0.0,0.0,0.0,0.0,0.0,0.0,0.0,3.9016,3.9365,4.1544,4.2606,4.2354,4.1489,4.0801,4.0334,3.9136,3.8134,3.7387,3.7396,3.723,0.0,0.0,0.0,0.0,0.0,0.0,0.0,0.0,0.0,0.0,0.0,0.0,0.0,0.0,0.0,0.0,0.0,0.0,0.0,0.0,0.0,0.0,0.0,3.8699,0.0,0.0,0.0,0.0,0.0,0.0,0.0,0.0,0.0,4.2818,4.2987,4.3528,4.4609,4.4759,4.5071,4.5936,0.0,0.0,0.0,0.0,0.0,0.0,0.0,4.5528,4.524,4.4989,4.4739,4.4466,4.5547,4.6567,4.6851,0.0,0.0,4.5216,4.46,4.4509,4.4797,4.4624,4.4677,4.5451,4.4807,4.4153,0.0,0.0,0.0,0.0,0.0,0.0,0.0,0.0,4.013,3.9728,0.0,3.9005,0.0,0.0,0.0,0.0,0.0,3.865,0.0,0.0,3.9757,4.0096,4.0113,4.0091,4.0079,4.0096,4.0062,3.9694,3.8966,3.7579,0.0,0.0,0.0,0.0,0.0,0.0,3.9306,3.8868,4.1296,4.2352,4.1782,4.1729,4.1347,4.0549,3.8622,3.7238,3.6523,3.6485,3.6426,3.6406,3.6412,0.0,0.0,0.0,0.0,0.0,0.0,0.0,0.0,0.0,0.0,0.0,0.0,0.0,0.0,0.0,0.0,0.0,0.0,0.0,0.0,3.8726,0.0,0.0,0.0,0.0,0.0,0.0,0.0,0.0,0.0,0.0,4.2391,4.4164,4.5581,4.5615,0.0,0.0,0.0,0.0,4.6947,4.6947,4.7582,4.8082,4.8062,4.8062,4.7793,4.7043,0.0,0.0,4.7101,4.762,4.7908,4.7235,4.7793,4.8182,4.8216,4.7408,4.7101,4.7778,4.7293,4.7216,4.7922,4.7897,4.7791,4.2046,0.0,0.0,0.0,0.0,4.1454,4.1674,4.164,4.1115,4.0781,4.051,3.9474,0.0,0.0,0.0,0.0,0.0,0.0,3.9563,4.0527,4.0269,4.0388,4.0849,4.0337,4.0113,4.0113,4.0113,3.9994,3.9745,3.8848,3.8103,3.7601,0.0,0.0,0.0,0.0,3.9665,3.9573,4.0761,4.1335,4.1167,4.0791,4.0399,3.9951,3.8737,3.7958,3.7757,3.7242,3.6793,3.6433,3.6412,0.0,0.0,0.0,0.0,0.0,0.0,0.0,0.0,0.0,0.0,0.0,0.0,0.0,0.0,0.0,0.0,0.0,0.0,0.0,3.9486,3.9551,3.979,0.0,0.0,0.0,0.0,0.0,0.0,0.0,0.0,0.0,4.4717,4.5009,4.5462,0.0,0.0,4.7255,4.6947,4.7389,4.7735,4.7755,0.0,0.0,0.0,4.8101,4.8024,4.7793,4.7947,4.8221,4.8625,4.8875,4.9336,5.0255,5.0159,5.0125,5.0563,4.912,4.7947,4.8024,4.7908,4.8024,4.8793,4.8658,4.8437,4.4073,4.1941,4.252,4.2658,4.254,4.2371,4.2455,4.2675,4.1948,4.1644,4.1593,4.0692,4.032,4.0286,3.9834,0.0,0.0,0.0,4.0781,4.1627,4.1183,4.12,4.1576,4.1183,4.0811,4.054,4.054,4.0388,4.0096,3.9643,3.922,3.8751,0.0,0.0,3.7922,3.917,3.9698,3.953,4.0423,4.0803,4.0571,4.0262,3.9885,3.9437,3.8879,3.8451,3.8138,3.7601,3.7076,3.6582,3.647,3.6167,0.0,0.0,0.0,0.0,0.0,0.0,0.0,0.0,0.0,0.0,0.0,3.8473,3.8673,0.0,0.0,0.0,3.9001,3.9368,3.9845,4.0175,0.0,0.0,0.0,0.0,0.0,0.0,0.0,4.3222,4.4288,4.5339,4.6178,4.6222,4.6468,4.7412,4.7852,4.8048,4.7908,0.0,4.8606,4.8625,4.9183,4.949,4.9202,4.9683,5.012,5.012,5.012,5.0274,5.0779,5.0894,5.126,5.2063,5.2029,5.1837,5.2332,5.087,4.949,4.9202,4.9125,4.9322,4.9822,4.9585,4.9516,4.6174,4.4888,4.4082,4.413,4.4533,4.323,4.3047,4.3592,4.2878,4.2536,4.2486,4.2418,4.2337,4.2286,4.2303,0.0,4.2303,4.2303,4.23,4.2388,4.232,4.2337,4.2384,4.2317,4.1948,4.1275,4.1305,4.0946,4.0333,4.0286,4.0269,4.0248,3.892,3.8227,3.8217,3.9387,3.9713,3.9216,4.0348,4.0669,4.0125,4.0113,3.9779,3.9136,3.8983,3.8594,3.7917,3.7556,3.7155,3.6723,3.647,3.6107,3.5644,0.0,0.0,0.0,0.0,0.0,0.0,0.0,0.0,0.0,0.0,0.0,0.0,0.0,0.0,0.0,3.957,0.0,4.0092,4.0755,0.0,0.0,0.0,4.2396,4.2396,4.3112,4.3864,4.4608,0.0,0.0,4.6948,0.0,4.8186,4.9273,4.8731,4.8534,4.9346,4.9534,4.9586,4.9644,5.0947,5.1683,5.0894,5.1933,5.287,5.287,5.3197,5.3005,5.3029,5.3063,5.3159,5.3294,5.326,5.3217,5.328,5.2524,5.1774,5.1015,5.0803,5.0784,5.0794,5.0936,5.1152,4.8259,4.7885,4.7143,4.6297,4.5466,4.5667,4.5836,4.5923,4.5213,4.457,4.4025,4.342,4.2828,4.2303,4.2303,4.2303,4.2303,4.2303,4.2608,4.3085,4.2557,4.2608,4.3102,4.2574,4.2215,4.2049,4.2033,4.1961,4.1775,4.1792,4.1775,4.1758,4.1407,4.0967,4.046,4.1274,4.1354,4.0679,4.0985,4.0794,4.013,4.0113,4.0011,3.9829,3.8734,3.8079,3.7877,3.6701,3.5994,3.5893,3.583,3.5739,3.5611,3.5628,0.0,0.0,0.0,0.0,0.0,0.0,0.0,0.0,0.0,4.0392,4.0508,0.0,4.0526,0.0,4.07,4.1048,4.168,4.1901,0.0,0.0,4.3102,4.3212,4.3212,4.3938,4.4488,4.4681,4.5773,4.6782,4.7475,4.8168,4.8816,4.9384,4.9548,4.9702,4.9924,5.0748,5.1313,5.1327,5.2115,5.2563,5.187,5.2505,5.3197,5.3197,5.3197,5.3197,5.3197,5.3197,5.3414,5.3991,5.3626,5.353,5.4049,5.3486,5.2851,5.2587,5.2082,5.162,5.1625,5.2226,5.2838,4.9475,4.9424,4.8714,4.7904,4.7158,4.6919,4.6989,4.7225,4.6515,4.5957,4.5548,4.4756,4.4028,4.3332,4.3315,4.3332,4.3332,4.367,4.3859,4.3927,4.3842,4.3859,4.3927,4.3518,4.3146,4.2794,4.2794,4.2625,4.2317,4.2303,4.2303,4.2303,4.2625,4.2577,4.2205,4.2269,4.21,4.1677,4.1373,4.0832,4.013,4.0113,4.0113,4.0079,3.8988,3.8396,3.8379,3.6941,3.6282,3.6608,3.6304,3.6129,3.6146,3.6439,3.6473,0.0,0.0,0.0,0.0,0.0,0.0,0.0,0.0,0.0,0.0,0.0,4.1113,4.1113,4.1415,4.1819,4.2268,4.2635,4.3002,4.3451,4.3488,4.3488,4.3488,4.4204,4.4828,4.5195,4.6351,4.7335,4.7883,4.8344,4.87,4.8957,4.9486,4.9827,4.9897,5.0591,5.1111,5.1116,5.1947,5.264,5.2447,5.287,5.3337,5.3703,5.4087,5.4318,5.4318,5.4318,5.4491,5.4876,5.4337,5.3914,5.4357,5.3447,5.264,5.2563,5.2236,5.2077,5.2409,5.2907,5.3361,5.0135,5.0185,4.9441,4.9137,4.9035,4.7665,4.7445,4.8005,4.7361,4.7022,4.6887,4.6145,4.5483,4.4902,4.4871,4.4886,4.4905,4.5449,4.5365,4.4804,4.5297,4.5213,4.4584,4.4584,4.4215,4.3575,4.3558,4.322,4.2604,4.2587,4.2604,4.2621,4.3234,4.3558,4.3524,4.2912,4.2486,4.23,4.166,4.095,4.0117,4.0185,4.0163,3.9943,3.9237,3.8802,3.8684,3.7393,3.6936,3.7538,3.7004,3.6682,3.6795,3.7398,3.7516,0.0,3.7618,0.0,0.0,0.0,0.0,0.0,0.0,0.0,0.0,4.1356,4.1415,4.1415,4.2047,4.247,4.2451,4.3084,4.3488,4.3506,4.3598,4.3653,4.3708,4.4443,4.5287,4.5993,4.6755,4.7544,4.8169,4.8315,4.8315,4.8402,4.8898,4.9295,4.9405,4.9992,5.051,5.0343,5.1215,5.225,5.2928,5.3159,5.3453,5.4184,5.4684,5.5362,5.5184,5.5228,5.5299,5.5241,5.4645,5.428,5.4337,5.3082,5.2173,5.2173,5.2173,5.2313,5.2774,5.3073,5.3249,5.0439,5.0914,5.0202,4.9881,4.9813,4.8951,4.8663,4.8783,4.8629,4.8257,4.7633,4.6921,4.653,4.6394,4.6394,4.6394,4.6346,4.5906,4.5621,4.5483,4.5024,4.475,4.4615,4.4584,4.453,4.4381,4.4364,4.4313,4.4175,4.4175,4.4144,4.4144,4.4296,4.4381,4.4364,0.0,0.0,0.0,4.2151,4.1454,4.018,4.0675,4.0426,3.9254,3.8497,0.0,3.7224,3.6321,3.587,3.6033,3.5898,0.0,0.0,0.0,0.0,0.0,0.0,0.0,0.0,0.0,0.0,0.0,4.1915,4.2175,4.2383,4.2794,4.3047,4.3057,4.3194,4.3267,4.3267,4.3396,4.3488,4.3524,4.4085,4.448,4.4516,4.5746,4.6718,4.6865,4.7581,4.8113,4.826,4.8315,4.8315,4.8306,4.8412,4.8523,4.855,5.0212,5.145,5.1607,5.17,5.2197,5.3082,5.314,5.3164,5.3467,5.3524,5.3722,5.376,5.3736,5.3703,5.3736,5.3544,5.3453,5.3447,5.314,5.2794,5.2947,5.289,5.2794,5.2294,5.2717,5.3244,5.12,0.0,5.0405,4.9897,0.0,4.9154,4.9018,4.9018,4.9018,4.858,4.7887,4.7513,4.7141,4.6786,4.6786,4.6599,4.6261,4.6244,4.5855,4.5176,4.5145,4.4939,4.4584,4.4584,4.4584,4.4584,4.4584,4.4584,4.4584,4.4584,4.4584,4.4584,4.4584,4.4584,4.4584,4.4584,4.4025,4.2861,4.2844,4.2134,4.0743,4.1001,4.0679,3.9592,0.0,0.0,0.0,0.0,0.0,0.0,0.0,0.0,0.0,0.0,0.0,3.8447,3.9153,3.9525,3.9554,4.0139,4.0636,4.0938,4.1479,4.2165,4.3005,4.3357,4.3488,4.3488,4.3488,4.3488,4.3488,4.3488,4.3488,4.3506,4.3864,4.425,4.4737,4.5764,4.6663,4.7113,4.7801,4.8315,4.8315,4.8315,4.8315,4.8316,4.8486,4.8604,4.8712,4.9792,5.0806,5.1224,5.1298,5.1452,5.1895,5.2337,5.2544,5.2582,5.2909,5.3159,5.3197,5.3197,5.3197,5.3159,5.287,5.2563,5.2524,5.2255,5.1972,5.1972,5.1972,5.1861,5.1433,5.2313,5.3219,5.2029,5.1539,5.0794,5.0066,4.939,4.9255,4.912,4.9018,0.0,0.0,0.0,4.8107,4.7768,4.7206,4.7039,4.6735,4.6329,4.6616,4.6225,4.521,4.5669,4.55,4.4804,4.4787,4.4719,4.4598,4.4584,4.4584,4.4584,4.4584,4.4584,4.4584,4.4584,4.4584,4.4584,4.4584,4.4279,4.3643,4.3474,4.2679,4.1271,4.1191,4.0781,3.9926,3.9322,3.8937,3.8802,3.8227,3.8181,3.8768,3.8785,3.8865,3.9017,3.9559,3.9706,3.9271,3.9745,4.0113,4.0096,4.0179,4.0336,4.0521,4.0955,4.186,4.3401,4.341,4.3419,4.3479,4.3488,4.3488,4.3488,4.3488,4.3488,4.3488,4.3635,4.4048,4.4837,4.5645,4.648,4.7204,4.7911,4.8315,4.8315,4.8315,4.8315,4.8344,4.855,4.8847,4.8947,4.9394,5.0,5.0503,5.0729,5.0745,5.0803,5.1241,5.1659,5.1717,5.2255,5.2741,5.2779,5.276,5.276,5.2606,5.2145,5.1774,5.164,5.1221,5.0707,5.0688,5.0688,5.0688,5.0803,5.176,5.2631,5.2638,5.3112,5.2334,5.1572,5.0829,5.0219,4.9576,4.9018,4.9018,4.8951,4.8849,4.8834,4.8798,4.8663,4.8039,4.8022,4.8443,4.7327,4.7022,0.0,4.6887,4.6261,4.5568,4.5551,4.5227,4.4635,4.4584,4.4584,4.4584,4.4584,4.4584,4.4584,4.4584,4.4584,4.4584,4.4584,4.4533,4.4415,4.3758,4.2679,4.1255,4.1191,4.0544,3.9225,3.9085,3.8684,3.8063,3.7978,3.7944,3.8029,3.8058,3.8345,3.8954,3.9136,3.9372,3.991,4.0045,4.0113,4.0108,4.0516,4.1223,4.2221,4.241,4.276,4.341,4.3069,4.3004,4.3427,4.3488,4.3488,4.3488,4.3488,4.3488,4.3543,4.4121,4.4847,4.559,4.6351,4.714,4.7911,4.8233,4.8306,4.8241,4.8278,4.8315,4.8306,4.8392,4.8513,4.888,4.9528,5.0012,5.0195,5.0483,5.0668,5.0726,5.0765,5.0933,5.0861,5.1029,5.1246,5.126,5.1265,5.1246,5.1111,5.1053,5.0957,5.0919,5.0803,5.0707,5.0688,5.0688,5.0688,5.0688,5.1034,5.1169,5.2909,5.2824,5.2452,5.1657,5.0541,4.983,4.9323,4.9018,4.9018,4.9018,4.9018,4.9018,4.9018,4.8951,4.8225,4.7868,4.7784,4.7122,4.6769,4.6703,4.6769,4.6599,4.6312,4.6295,4.592,4.5229,4.521,4.499,4.4649,4.4584,4.4584,4.4584,4.4584,4.4584,4.4584,4.4584,4.4584,4.4584,4.4245,4.3318,4.1847,4.1796,4.1085,3.9656,3.9592,3.9457,3.9119,3.9102,3.9102,3.9102,3.9102,3.9242,3.9559,3.9592,3.9745,4.0079,4.0113,4.0113,4.0113,4.0583,4.1279,4.2131,4.2203,4.2589,4.3436,4.3295,4.3241,4.347,4.3488,4.3488,4.3488,4.3488,4.3488,4.3488,4.3855,4.4544,4.5663,4.6177,4.6773,4.7526,4.8058,4.8131,4.7691,4.8021,4.8296,4.8315,4.8296,4.8392,4.8559,4.9067,4.9624,5.0025,5.026,5.0467,5.0653,5.0688,5.0688,5.0688,5.0688,5.0688,5.0688,5.0688,5.0688,5.0688,5.0688,5.0688,5.0688,5.0688,5.0688,5.0688,5.0688,5.0688,5.0688,5.0688,5.0842,5.2892,5.23,5.2131,5.1302,5.0066,4.9306,4.9018,4.9018,4.9018,4.9018,4.9018,4.9018,4.9018,4.8934,4.8225,4.7684,4.731,4.7107,4.6836,4.6549,4.7022,4.7208,4.7039,4.7039,4.6667,4.6007,4.5788,4.5399,4.4888,4.4685,4.4584,4.4584,4.4584,4.4584,4.4584,4.4584,4.4584,4.4584,4.4584,4.3924,4.2608,4.2236,4.1487,4.0455,4.018,4.0113,4.0113,4.0113,4.0113,4.0113,4.0113,4.0113,4.0113,4.0113,4.0113,4.0113,4.0113,4.0113,4.0121,4.0473,4.0978,4.1545,4.1599,4.2075,4.3142,4.333,4.3383,4.347,4.3488,4.3488,4.3488,4.3488,4.3561,4.3708,4.3598,4.4195,4.5571,4.5736,4.5957,4.6737,4.7526,4.7709,4.7195,4.7526,4.7966,4.7984,4.8168,4.8315,4.8354,4.8639,4.9195,4.974,5.0037,5.0201,5.0528,5.0639,5.0678,5.0688,5.0688,5.0688,5.0688,5.0688,5.0688,5.0688,5.0688,5.0688,5.0688,5.0688,5.0688,5.0688,5.0688,5.0688,5.0688,5.0688,5.0976,5.2367,5.2198,5.159,5.0845,5.0049,4.9323,4.9018,4.9018,4.9018,4.9018,4.9018,4.9018,4.9018,4.89,4.8225,4.8174,4.8597,4.809,4.8056,4.8562,4.8781,4.8445,4.7836,4.7785,4.7411,4.6667,4.6007,4.5635,4.5432,4.4888,4.4584,4.4584,4.4584,4.4584,4.4584,4.4584,4.4584,4.4584,4.4584,4.4181,4.3288,4.1986,4.1225,4.1106,4.0438,4.0113,4.0113,4.0113,4.0113,4.0113,4.0113,4.0113,4.0113,4.0113,4.0113,4.0113,4.0113,4.0113,4.0096,4.0146,4.0454,4.092,4.1041,4.1534,4.2627,4.2788,4.2986,4.3339,4.347,4.3488,4.3488,4.3488,4.3745,4.4259,4.3873,4.413,4.5424,4.5241,4.5122,4.592,4.6718,4.6902,4.6287,4.6755,4.7204,4.7204,4.7902,4.826,4.8206,4.8466,4.8907,4.9415,4.9808,5.0029,5.021,5.0458,5.0624,5.0673,5.0688,5.0688,5.0688,5.0688,5.0688,5.0688,5.0688,5.0688,5.0688,5.0688,5.0688,5.0688,5.0688,5.0688,5.0688,5.0688,5.0991,5.1657,5.1607,5.1336,5.0777,5.0033,4.9306,4.9018,4.9018,4.9018,4.9018,4.9018,4.9018,4.9018,4.8951,4.8225,4.8073,4.831,4.8039,4.8056,4.8394,4.8781,4.8817,4.8529,4.809,4.753,4.6769,4.6041,4.5452,4.5074,4.4736,4.4584,4.4584,4.4584,4.4584,4.4584,4.4584,4.4584,4.4584,4.4584,4.4228,4.3389,4.2388,4.1644,4.117,4.0472,4.0113,4.0113,4.0113,4.0113,4.0113,4.0113,4.0113,4.0113,4.0113,4.0113,4.0113,4.0113,4.0113,4.0113,4.0392,4.0667,4.0891,4.1235,4.1664,4.2121,4.249,4.2807,4.3004,4.3322,4.3488,4.3488,4.3488,4.3635,4.3883,4.3671,4.3938,4.5021,4.492,4.4865,4.5214,4.5893,4.6076,4.5581,4.6315,4.681,4.6718,4.7425,4.8058,4.771,4.7749,4.8087,4.8561,4.8548,4.8992,4.9983,5.0347,5.0439,5.0605,5.0688,5.0688,5.0649,5.0688,5.0688,5.0688,5.0688,5.0688,5.0688,5.0688,5.0688,5.0688,5.0688,5.0688,5.0688,5.0688,5.1029,5.088,5.0879,5.0694,5.0271,4.9763,4.9238,4.9018,4.9018,4.9018,4.9018,4.9018,4.9018,4.9018,4.8934,4.8428,4.8208,4.8191,4.8208,4.8208,4.8259,4.8765,4.89,4.8663,4.8174,4.7498,4.6769,4.6041,4.5314,4.4668,4.4584,4.4584,4.4584,4.4584,4.4584,4.4584,4.4584,4.4584,4.4567,4.4398,4.3978,4.3355,4.2489,4.1745,4.1187,4.0489,4.0113,4.0113,4.0113,4.0113,4.0113,4.0113,4.0113,4.0113,4.0113,4.0113,4.0113,4.0113,4.0113,4.0113,4.0461,4.0745,4.0914,4.1335,4.1697,4.2041,4.2432,4.2759,4.2967,4.3277,4.3488,4.3488,4.3488,4.3579,4.3763,4.3671,4.3828,4.459,4.4553,4.4342,4.4425,4.5094,4.536,4.5012,4.5654,4.6131,4.5819,4.6728,4.7498,4.6957,4.6884,4.7176,4.772,4.7504,4.814,4.9629,4.9677,4.9743,4.994,4.9995,5.0265,5.0399,5.0457,5.0688,5.0688,5.0688,5.0688,5.0688,5.0688,5.0688,5.0688,5.0688,5.0688,5.0688,5.0688,5.0919,5.015,5.0049,4.939,4.9171,4.9069,4.9018,4.9018,4.9018,4.9018,4.9018,4.9018,4.9018,4.9018,4.9001,4.8917,4.8934,4.8918,4.8917,4.8883,4.89,4.8934,4.8614,4.7988,4.7904,4.7498,4.6766,4.5957,4.5277,4.4618,4.4584,4.4584,4.4584,4.4584,4.4584,4.4584,4.4584,4.4584,4.4516,4.3961,4.3474,4.3223,4.2033,4.1322,4.1136,4.0489,4.0113,4.0113,4.0113,4.0113,4.0113,4.0113,4.0113,4.0113,4.0113,4.0113,4.0113,4.0113,4.0113,4.0113,4.0179,4.0417,4.0832,4.1018,4.1429,4.2362,4.2616,4.2873,4.3383,4.3418,4.3488,4.3488,4.3488,4.3763,4.4342,4.391,4.391,4.4535,4.403,4.3616,4.3708,4.4305,4.4663,4.4663,4.4755,4.4902,4.4957,4.5516,4.6049,4.6066,4.6262,4.6486,4.6786,4.7316,4.818,4.8294,4.8684,4.8537,4.8755,4.9418,4.9534,4.9764,5.0034,5.038,5.0688,5.0688,5.0688,5.0688,5.0688,5.0688,5.0688,5.0688,5.0688,5.0688,5.0688,5.0822,4.9813,4.9373,4.912,4.9018,4.9018,4.9018,4.9018,4.9018,4.9018,4.9018,4.9018,4.9018,4.9018,4.9018,4.9018,4.9018,4.9018,4.9018,4.9018,4.8935,4.8512,4.8411,4.8479,4.721,4.6667,4.6616,4.5582,4.4871,4.4635,4.4584,4.4584,4.4584,4.4584,4.4584,4.4584,4.4584,4.4584,4.4567,4.4296,4.3927,4.3321,4.2422,4.1694,4.1174,4.0489,4.0113,4.0113,4.0113,4.0113,4.0113,4.0113,4.0113,4.0113,4.0113,4.0113,4.0113,4.0113,4.0113,4.0133,4.0429,4.0691,4.0891,4.1279,4.1639,4.2072,4.2452,4.2798,4.3004,4.3339,4.347,4.3488,4.3488,4.3616,4.3818,4.369,4.3598,4.3791,4.3671,4.3488,4.3543,4.3791,4.391,4.4085,4.4388,4.448,4.4158,4.5066,4.5516,4.5268,4.5279,4.552,4.5867,4.5783,4.5804,4.6646,4.7902,4.8594,4.8726,4.9009,4.9067,4.9221,4.9548,4.9899,5.0476,5.0592,5.0688,5.0688,5.0688,5.0688,5.0688,5.0688,5.0688,5.0688,5.0688,5.0688,4.9458,4.9052,4.9018,4.9018,4.9018,4.9018,4.9018,4.9018,4.9018,4.9018,4.9018,4.9018,4.9018,4.9018,4.9018,4.9018,4.9018,4.9018,4.9018,4.8968,4.8479,4.8276,4.802,4.6752,4.6041,4.5954,4.5122,4.4584,4.4584,4.4584,4.4584,4.4584,4.4584,4.4584,4.4584,4.4584,4.4499,4.4262,4.3975,4.345,4.2696,4.1982,4.1369,4.0878,4.0354,4.0113,4.0113,4.0113,4.0113,4.0113,4.0113,4.0113,4.0113,4.0113,4.0113,4.0113,4.0113,4.0113,4.0133,4.0436,4.0809,4.1167,4.1567,4.1906,4.2286,4.2715,4.2912,4.3041,4.3241,4.3488,4.3488,4.3488,4.3488,4.3488,4.3488,4.3488,4.3488,4.3506,4.3488,4.3488,4.3524,4.3524,4.3543,4.3975,4.3993,4.3543,4.4497,4.48,4.4452,4.4342,4.4452,4.4982,4.4866,4.5073,4.5747,4.6898,4.7398,4.7559,4.8029,4.824,4.8586,4.8952,4.9514,5.0111,5.0476,5.0611,5.0688,5.0688,5.0668,5.0649,5.0688,5.0688,5.0688,5.0688,5.0688,4.9018,4.9018,4.9018,4.9018,4.9018,4.9018,4.9018,4.9018,4.9018,4.9018,4.9018,4.9018,4.9018,4.9018,4.9018,4.9018,4.9018,4.9018,4.9018,4.8984,4.8883,4.8189,4.7206,4.6786,4.5887,4.4855,4.4635,4.4584,4.4584,4.4584,4.4584,4.4584,4.4584,4.4584,4.4584,4.4567,4.4245,4.3656,4.3081,4.2283,4.1255,4.0828,4.0472,4.0252,4.0163,4.0113,4.0113,4.0113,4.0113,4.0113,4.0113,4.0113,4.0113,4.0113,4.0113,4.0113,4.0113,4.0096,4.0159,4.0237,4.0844,4.1589,4.1846,4.2376,4.3133,4.3375,4.3418,4.3418,4.3444,4.3488,4.3488,4.3488,4.3488,4.3488,4.3488,4.3488,4.3488,4.3488,4.3488,4.3488,4.3488,4.3488,4.3488,4.3598,4.3589,4.3598,4.3671,4.38,4.3726,4.3681,4.3579,4.3822,4.4373,4.5018,4.5419,4.5815,4.5884,4.6038,4.665,4.7101,4.7625,4.8067,4.8913,4.9553,5.0111,5.0265,5.0284,5.0284,5.0341,5.0361,5.0495,5.063,5.0688,5.0688,5.0688,4.9018,4.9018,4.9018,4.9018,4.9018,4.9018,4.9018,4.9018,4.9018,4.9018,4.9018,4.9018,4.9018,4.9018,4.9018,4.9018,4.9018,4.9018,4.9018,4.8934,4.8496,4.8325,4.802,4.6752,4.5534,4.4733,4.4584,4.4584,4.4584,4.4584,4.4584,4.4584,4.4584,4.4584,4.4584,4.4584,4.4432,4.4245,4.4009,4.3518,4.273,4.1978,4.1386,4.0878,4.0371,4.0113,4.0113,4.0113,4.0113,4.0113,4.0113,4.0113,4.0113,4.0113,4.0113,4.0113,4.0113,4.0286,4.066,4.1024,4.1519,4.2274,4.2733,4.3087,4.3427,4.3488,4.3488,4.3488,4.3488,4.3488,4.3488,4.3488,4.3488,4.3488,4.3488,4.3488,4.3488,4.3488,4.3488,4.3488,4.3488,4.3488,4.3488,4.3488,4.3488,4.3488,4.3488,4.3488,4.3488,4.3488,4.3488,4.3596,4.4361,4.4936,4.5098,4.5531,4.5906,4.5868,4.6143,4.6438,4.6874,4.7413,4.824,4.8971,4.951,4.9779,4.9798,4.9798,4.9803,5.0053,5.0207,5.038,5.0611,5.0688,5.0688,4.9018,4.9018,4.9018,4.9018,4.9018,4.9018,4.9018,4.9018,4.9018,4.9018,4.9018,4.9018,4.9018,4.9018,4.9018,4.9018,4.9018,4.9018,4.9018,4.8951,4.8563,4.8462,4.836,4.665,4.5314,4.4719,4.4584,4.4584,4.4584,4.4584,4.4584,4.4584,4.4584,4.4584,4.4584,4.4567,4.4482,4.4228,4.4096,4.3639,4.2726,4.2134,4.1542,4.0861,4.035,4.013,4.0113,4.0113,4.0113,4.0113,4.0113,4.0113,4.0113,4.0113,4.0113,4.0113,4.0121,4.0249,4.0625,4.1059,4.1736,4.2332,4.2884,4.3294,4.3427,4.3488,4.3488,4.3488,4.3488,4.3488,4.3488,4.3488,4.3488,4.3488,4.3488,4.3488,4.3488,4.3488,4.3488,4.3488,4.3488,4.3488,4.3488,4.3488,4.3488,4.3488,4.3488,4.3488,4.3488,4.3488,4.3488,4.3663,4.4256,4.4584,4.4619,4.5185,4.5918,4.5946,4.5939,4.6119,4.6394,4.6874,4.7567,4.8279,4.8894,4.8913,4.8933,4.8933,4.8952,4.9356,4.9764,5.0149,5.038,5.0649,5.0688,4.9018,4.9018,4.9018,4.9018,4.9018,4.9018,4.9018,4.9018,4.9018,4.9018,4.9018,4.9018,4.9018,4.9018,4.9018,4.9018,4.9018,4.9018,4.8917,4.8866,4.8714,4.8411,4.7498,4.628,4.5314,4.4668,4.4584,4.4584,4.4584,4.4584,4.4584,4.4584,4.4584,4.4584,4.4584,4.4584,4.4265,4.3809,4.3541,4.2814,4.1576,4.1275,4.0899,4.0218,4.0146,4.0113,4.0113,4.0113,4.0113,4.0113,4.0113,4.0113,4.0113,4.0113,4.0113,4.0113,4.0113,4.0171,4.0279,4.0844,4.1391,4.2018,4.2588,4.2957,4.3418,4.3488,4.3488,4.3488,4.3488,4.3488,4.3488,4.3488,4.3488,4.3488,4.3488,4.3488,4.3488,4.3488,4.3488,4.3488,4.3488,4.3488,4.3488,4.3488,4.3488,4.3488,4.3488,4.3488,4.3488,4.3488,4.3488,4.3791,4.4204,4.4468,4.4583,4.5406,4.6022,4.5722,4.5778,4.6004,4.6126,4.6567,4.7178,4.7851,4.8178,4.8139,4.8139,4.8216,4.8298,4.8586,4.911,4.9707,5.0149,5.038,5.0688,4.9018,4.9018,4.9018,4.9018,4.9018,4.9018,4.9018,4.9018,4.9018,4.9018,4.9018,4.9018,4.9018,4.9018,4.9018,4.9018,4.8968,4.8968,4.8648,4.8242,4.8174,4.743,4.6466,4.5908,4.5297,4.4668,4.4584,4.4584,4.4584,4.4584,4.4584,4.4584,4.4584,4.4584,4.4584,4.4584,4.453,4.4228,4.366,4.3,4.2117,4.1474,4.0832,4.0185,4.0113,4.0113,4.0113,4.0113,4.0113,4.0113,4.0113,4.0113,4.0113,4.0113,4.0113,4.0113,4.0108,4.0274,4.0679,4.1218,4.181,4.243,4.2902,4.3348,4.3462,4.3488,4.3488,4.3488,4.3488,4.3488,4.3488,4.3488,4.3488,4.3488,4.3488,4.3488,4.3488,4.3488,4.3488,4.3488,4.3488,4.3488,4.3488,4.3488,4.3488,4.3488,4.3488,4.3488,4.3488,4.3488,4.3488,4.3718,4.4085,4.437,4.4804,4.5646,4.5965,4.5536,4.5634,4.601,4.6167,4.6471,4.7182,4.7928,4.7793,4.7735,4.7716,4.7735,4.7836,4.8009,4.8663,4.938,4.9784,5.0106,5.0534,4.9018,4.9018,4.9018,4.9018,4.9018,4.9018,4.9018,4.9018,4.9018,4.9018,4.9018,4.9018,4.9018,4.9018,4.9018,4.8798,4.8563,4.8529,4.8107,4.7462,4.7109,4.6483,4.5841,4.5672,4.5314,4.4651,4.4584,4.4584,4.4584,4.4584,4.4584,4.4584,4.4584,4.4584,4.4584,4.4584,4.4584,4.4499,4.411,4.3538,4.2777,4.2049,4.1305,4.0641,4.0303,4.0113,4.0113,4.0113,4.0113,4.0113,4.0113,4.0113,4.0113,4.0113,4.0113,4.0113,4.0113,4.0249,4.0636,4.1319,4.1927,4.2392,4.3014,4.3436,4.3488,4.3488,4.3488,4.3488,4.3488,4.3488,4.3488,4.3488,4.3488,4.3488,4.3488,4.3488,4.3488,4.3488,4.3488,4.3488,4.3488,4.3488,4.3488,4.3488,4.3488,4.3488,4.3488,4.3488,4.3488,4.3488,4.3524,4.3699,4.3938,4.425,4.4342,4.4967,4.5297,4.4979,4.5277,4.5707,4.6244,4.6486,4.7086,4.762,4.7466,4.7389,4.7447,4.7466,4.7524,4.7851,4.8471,4.9125,4.9683,5.0106,5.0515,4.9018,4.9018,4.9018,4.9018,4.9018,4.9018,4.9018,4.9018,4.9018,4.9018,4.9018,4.9018,4.9018,4.9018,4.9001,4.8614,4.7939,4.8039,4.7428,4.6718,4.6075,4.5551,4.5517,4.5449,4.5145,4.4651,4.4584,4.4584,4.4584,4.4584,4.4584,4.4584,4.4584,4.4584,4.4584,4.4584,4.4584,4.4564,4.433,4.3893,4.3186,4.2422,4.164,4.1085,4.0388,4.013,4.0113,4.0113,4.0113,4.0113,4.0113,4.0113,4.0113,4.0113,4.0113,4.0113,4.0096,4.0146,4.0319,4.1173,4.181,4.2131,4.2921,4.3453,4.3462,4.3488,4.3488,4.3488,4.3488,4.3488,4.3488,4.3488,4.3488,4.3488,4.3488,4.3488,4.3488,4.3488,4.3488,4.3488,4.3488,4.3488,4.3488,4.3488,4.3488,4.3488,4.3488,4.3488,4.3488,4.3488,4.3488,4.3543,4.3809,4.414,4.414,4.4165,4.4295,4.4313,4.4791,4.5346,4.6246,4.6661,4.7082,4.7351,4.7235,4.7274,4.7408,4.7408,4.7466,4.7832,4.8529,4.9298,4.9995,5.0322,5.0688,4.9018,4.9018,4.9018,4.9018,4.9018,4.9018,4.9018,4.9018,4.9018,4.9018,4.9018,4.9018,4.9018,4.9001,4.8951,4.8612,4.787,4.7718,4.7227,4.594,4.5176,4.4871,4.4871,4.4922,4.477,4.4584,4.4584,4.4584,4.4584,4.4584,4.4584,4.4584,4.4584,4.4584,4.4584,4.4584,4.4584,4.4482,4.4045,4.3724,4.3321,4.2273,4.1525,4.114,4.0489,4.0146,4.0113,4.0113,4.0113,4.0113,4.0113,4.0113,4.0113,4.0113,4.0113,4.0113,4.0108,4.0274,4.0679,4.1018,4.1534,4.2392,4.276,4.3059,4.3462,4.3488,4.3488,4.3488,4.3488,4.3488,4.3488,4.3488,4.3488,4.3488,4.3488,4.3488,4.3488,4.3488,4.3488,4.3488,4.3488,4.3488,4.3488,4.3488,4.3488,4.3488,4.3488,4.3488,4.3488,4.3488,4.3488,4.3488,4.3616,4.3883,4.3846,4.3827,4.3869,4.3971,4.4388,4.4875,4.5767,4.6349,4.6613,4.6853,4.7024,4.7139,4.737,4.7697,4.7832,4.8235,4.8543,4.9221,4.9822,5.0303,5.0688,4.9018,4.9018,4.9018,4.9018,4.9018,4.9018,4.9018,4.9018,4.9018,4.9018,4.9018,4.9018,4.9018,4.8968,4.8614,4.8088,4.7327,4.6616,4.616,4.5551,4.5007,4.4821,4.499,4.477,4.4584,4.4584,4.4584,4.4584,4.4584,4.4584,4.4584,4.4584,4.4584,4.4584,4.4584,4.4584,4.4584,4.455,4.4215,4.3961,4.3741,4.2865,4.1732,4.1204,4.0523,4.0113,4.0113,4.0113,4.0113,4.0113,4.0113,4.0113,4.0113,4.0113,4.0113,4.0113,4.0096,4.0356,4.0756,4.1212,4.1757,4.2625,4.292,4.3196,4.3418,4.3488,4.3488,4.3488,4.3488,4.3488,4.3488,4.3488,4.3488,4.3488,4.3488,4.3488,4.3488,4.3488,4.3488,4.3488,4.3488,4.3488,4.3488,4.3488,4.3488,4.3488,4.3488,4.3488,4.3488,4.3488,4.3488,4.3488,4.3488,4.3543,4.3543,4.356,4.363,4.3761,4.4035,4.4491,4.5135,4.557,4.5932,4.645,4.7086,4.7197,4.7428,4.7798,4.7932,4.7832,4.812,4.8913,4.963,5.0188,5.0534,4.9018,4.9018,4.9018,4.9018,4.9018,4.9018,4.9018,4.9018,4.9018,4.9018,4.9018,4.9018,4.9018,4.8883,4.8428,4.7665,4.6633,4.5464,4.5058,4.528,4.4871,4.4888,4.5111,4.4855,4.4584,4.4584,4.4584,4.4584,4.4584,4.4584,4.4584,4.4584,4.4584,4.4584,4.4584,4.4584,4.4584,4.4567,4.4516,4.4465,4.4364,4.3656,4.2577,4.1339,4.0743,4.0388,4.0337,4.0248,4.0163,4.0248,4.018,4.0113,4.0113,4.0113,4.0113,4.0113,4.0113,4.0466,4.1024,4.1435,4.1885,4.2684,4.3087,4.3383,4.3453,4.3488,4.3488,4.3488,4.3488,4.3488,4.3488,4.3488,4.3488,4.3488,4.3488,4.3488,4.3488,4.3488,4.3488,4.3488,4.3488,4.3488,4.3488,4.3488,4.3488,4.3488,4.3488,4.3488,4.3488,4.3488,4.3488,4.3488,4.3488,4.3488,4.3488,4.3488,4.3521,4.3637,4.3826,4.418,4.4628,4.5077,4.5674,4.6709,4.7259,4.7259,4.737,4.7735,4.7697,4.7389,4.7932,4.8971,4.961,5.0091,5.0226,4.9018,4.9018,4.9018,4.9018,4.9018,4.9018,4.9018,4.9018,4.9018,4.9018,4.9001,4.9001,4.8951,4.89,4.8884,4.8054,4.6583,4.5294,4.4668,4.4855,4.4649,4.477,4.4787,4.4736,4.4584,4.4584,4.4584,4.4584,4.4584,4.4584,4.4584,4.4584,4.4584,4.4584,4.4584,4.4584,4.4584,4.4584,4.4584,4.4584,4.4415,4.3775,4.2831,4.1512,4.1085,4.0933,4.0828,4.0472,4.0388,4.0865,4.0434,4.0197,4.0163,4.0163,4.0113,4.0108,4.0184,4.0611,4.1503,4.1405,4.1992,4.2819,4.3215,4.3196,4.3375,4.3488,4.3488,4.3488,4.3488,4.3488,4.3488,4.3488,4.3488,4.3488,4.3488,4.3488,4.3488,4.3488,4.3488,4.3488,4.3488,4.3488,4.3488,4.3488,4.3488,4.3488,4.3488,4.3488,4.3488,4.3488,4.3488,4.3488,4.3488,4.3488,4.3488,4.3488,4.3513,4.358,4.3742,4.3927,4.4355,4.4781,4.5505,4.6252,4.6771,4.6851,4.712,4.7485,4.7524,4.724,4.8105,4.9086,4.9144,4.9202,4.9433,4.9018,4.9018,4.9018,4.9018,4.9018,4.9018,4.9018,4.9018,4.9018,4.9018,4.8883,4.8631,4.8428,4.8326,4.7986,4.7225,4.6191,4.5142,4.4618,4.4584,4.4584,4.4584,4.4584,4.4584,4.4584,4.4584,4.4584,4.4584,4.4584,4.4584,4.4584,4.4584,4.4584,4.4584,4.4584,4.4584,4.4584,4.4584,4.4584,4.4584,4.4516,4.3826,4.2949,4.2442,4.158,4.1225,4.1136,4.0933,4.0832,4.1052,4.0878,4.0696,4.054,4.0316,4.0113,4.0133,4.036,4.107,4.2213,4.2373,4.3065,4.3871,4.3798,4.3615,4.3538,4.3488,4.3488,4.3488,4.3488,4.3488,4.3488,4.3488,4.3488,4.3488,4.3488,4.3488,4.3488,4.3488,4.3488,4.3488,4.3488,4.3488,4.3488,4.3488,4.3488,4.3488,4.3488,4.3488,4.3488,4.3488,4.3488,4.3488,4.3488,4.3488,4.3488,4.3488,4.3488,4.3546,4.3612,4.3804,4.4016,4.4416,4.4834,4.5411,4.5826,4.6296,4.649,4.674,4.6894,4.7124,4.7817,4.8317,4.824,4.8279,4.8682,4.9018,4.9018,4.9018,4.9018,4.9018,4.9018,4.9018,4.9018,4.9018,4.9018,4.89,4.8293,4.8039,4.7938,4.7411,4.6667,4.5889,4.5179,4.4821,4.4584,4.4584,4.4584,4.4584,4.4584,4.4584,4.4584,4.4584,4.4584,4.4584,4.4584,4.4584,4.4584,4.4584,4.4584,4.4584,4.4584,4.4584,4.4584,4.4584,4.4584,4.4432,4.4025,4.3524,4.3375,4.2256,4.1715,4.18,4.1542,4.1441,4.1424,4.1271,4.1085,4.0899,4.0422,4.0113,4.0179,4.0595,4.155,4.2426,4.3176,4.3496,4.4096,4.4351,4.4039,4.3736,4.3488,4.3488,4.3488,4.3488,4.3488,4.3488,4.3488,4.3488,4.3488,4.3488,4.3488,4.3488,4.3488,4.3488,4.3488,4.3488,4.3524,4.3543,4.3488,4.3488,4.3488,4.3488,4.3488,4.3488,4.3488,4.3488,4.3488,4.3488,4.3488,4.3488,4.3488,4.3488,4.3513,4.3538,4.3646,4.3804,4.4024,4.4513,4.5089,4.529,4.5721,4.5855,4.6009,4.6225,4.661,4.7259,4.7432,4.7163,4.7817,4.8606,4.9018,4.9018,4.9018,4.9018,4.9018,4.9018,4.9018,4.9018,4.9018,4.9018,4.8951,4.8259,4.8174,4.8343,4.7904,4.7244,4.6583,4.572,4.5041,4.4649,4.4584,4.4584,4.4584,4.4584,4.4584,4.4584,4.4584,4.4584,4.4584,4.4584,4.4584,4.4584,4.4584,4.4584,4.4584,4.4584,4.4584,4.4584,4.4584,4.4584,4.4567,4.4462,4.4028,4.3575,4.3169,4.2932,4.2797,4.2439,4.2181,4.21,4.1576,4.095,4.0367,4.018,4.0113,4.0254,4.0601,4.1202,4.2055,4.2945,4.3548,4.4042,4.3975,4.3653,4.3524,4.3488,4.3488,4.3488,4.3488,4.3488,4.3488,4.3488,4.3488,4.3488,4.3488,4.3488,4.3488,4.3506,4.3506,4.3616,4.3671,4.3635,4.3635,4.3561,4.3488,4.3488,4.3506,4.3524,4.3524,4.3561,4.3488,4.3488,4.3488,4.3488,4.3488,4.3488,4.3488,4.3488,4.3505,4.3512,4.3646,4.39,4.4542,4.5021,4.5144,4.5317,4.5647,4.5763,4.5725,4.6013,4.661,4.6398,4.5936,4.6994,4.8437,4.9018,4.9018,4.9018,4.9018,4.9018,4.9018,4.9018,4.9018,4.9018,4.9018,4.8765,4.775,4.7479,4.7614,4.6991,4.672,4.6481,4.5667,4.4956,4.4682,4.4584,4.4584,4.4584,4.4584,4.4584,4.4584,4.4584,4.4584,4.4584,4.4584,4.4584,4.4584,4.4584,4.4584,4.4584,4.4584,4.4584,4.4584,4.4584,4.4584,4.4584,4.4581,4.4445,4.4076,4.3643,4.3474,4.3338,4.3152,4.2929,4.2865,4.2527,4.2117,4.1437,4.1002,4.0701,4.0613,4.1116,4.1756,4.2544,4.3677,4.4327,4.4693,4.4727,4.4525,4.3836,4.3488,4.3488,4.3488,4.3488,4.3488,4.3488,4.3488,4.3488,4.3506,4.3561,4.3579,4.3579,4.3543,4.3561,4.3708,4.3892,4.4002,4.4038,4.391,4.3956,4.4048,4.3993,4.3947,4.3846,4.3736,4.3626,4.3488,4.3488,4.3488,4.3488,4.3488,4.3488,4.3488,4.3488,4.3513,4.3522,4.3855,4.4415,4.4752,4.4827,4.508,4.5471,4.5614,4.5652,4.5763,4.5898,4.5879,4.5956,4.7028,4.8259,4.9018,4.9018,4.9018,4.9018,4.9018,4.9018,4.9018,4.9018,4.9018,4.9018,4.8731,4.7868,4.7158,4.6682,4.6447,4.6566,4.6397,4.5362,4.4838,4.4651,4.4584,4.4584,4.4584,4.4584,4.4584,4.4584,4.4584,4.4584,4.4584,4.4584,4.4584,4.4584,4.4584,4.4584,4.4584,4.4584,4.4584,4.4584,4.4584,4.4584,4.4584,4.4584,4.4584,4.4381,4.4076,4.3707,4.3693,4.371,4.3707,4.3321,4.3288,4.2777,4.1894,4.1503,4.1157,4.1122,4.1512,4.2227,4.3089,4.4162,4.5453,4.5773,4.5535,4.4745,4.3745,4.3488,4.3488,4.3488,4.3488,4.3488,4.3488,4.3488,4.3488,4.3598,4.3726,4.3763,4.3873,4.413,4.4387,4.4681,4.4819,4.4745,4.469,4.4442,4.4433,4.458,4.4525,4.4415,4.4287,4.4158,4.403,4.392,4.392,4.3809,4.3524,4.3524,4.3506,4.3488,4.3488,4.3524,4.356,4.3681,4.4056,4.4308,4.4626,4.5144,4.5708,4.5649,4.5614,4.5768,4.5917,4.6052,4.6413,4.7428,4.8255,4.9018,4.9018,4.9018,4.9018,4.9018,4.9018,4.9018,4.9018,4.9018,4.8934,4.8781,4.8697,4.7479,4.6464,4.672,4.6703,4.5821,4.5686,4.5142,4.4736,4.4584,4.4584,4.4584,4.4584,4.4584,4.4584,4.4584,4.4584,4.4584,4.4584,4.4584,4.4584,4.4584,4.4584,4.4584,4.4584,4.4584,4.4584,4.4584,4.4584,4.4584,4.4584,4.4584,4.4584,4.4533,4.4499,4.4513,4.433,4.4012,4.3423,4.3389,4.2848,4.1946,4.1962,4.1786,4.1783,4.2189,4.2901,4.3721,4.4444,4.5123,4.5461,4.5259,4.4608,4.3828,4.3561,4.3506,4.3561,4.3598,4.3488,4.3488,4.3488,4.3506,4.3836,4.4121,4.4415,4.469,4.5176,4.5433,4.57,4.5681,4.5498,4.5654,4.548,4.5314,4.5452,4.5544,4.5461,4.5021,4.4837,4.4645,4.4535,4.4535,4.4268,4.3671,4.3543,4.3506,4.3488,4.3488,4.3579,4.3662,4.3808,4.3837,4.4474,4.492,4.5432,4.5854,4.5898,4.5933,4.5893,4.5975,4.6167,4.6817,4.7817,4.8625,4.9018,4.9018,4.9018,4.9018,4.9018,4.9018,4.9018,4.9018,4.9001,4.8443,4.775,4.8005,4.7346,4.628,4.6109,4.6297,4.5669,4.5179,4.4888,4.4702,4.4584,4.4584,4.4584,4.4584,4.4584,4.4584,4.4584,4.4584,4.4584,4.4584,4.4584,4.4584,4.4584,4.4584,4.4584,4.4651,4.4618,4.4584,4.4584,4.4584,4.4584,4.4584,4.4584,4.4584,4.4584,4.4584,4.4499,4.4062,4.3727,4.3524,4.3457,4.2797,4.2202,4.2545,4.2739,4.2716,4.325,4.3966,4.4872,4.5352,4.5599,4.559,4.5195,4.4571,4.4213,4.3846,4.3883,4.3883,4.3726,4.3506,4.3488,4.3524,4.3644,4.4121,4.4599,4.503,4.5452,4.5975,4.6342,4.6562,4.6287,4.5993,4.6296,4.659,4.6443,4.6351,4.6425,4.6406,4.5966,4.5544,4.536,4.5085,4.503,4.4755,4.4176,4.3828,4.3524,4.3488,4.3506,4.3708,4.3836,4.3606,4.3795,4.4484,4.4967,4.5142,4.5504,4.6071,4.6238,4.6154,4.6225,4.636,4.7201,4.8221,4.8971,4.9018,4.9018,4.9018,4.9018,4.9018,4.9018,4.9018,4.9018,4.9018,4.8325,4.7175,4.7633,4.7092,4.6027,4.5706,4.5551,4.528,4.4888,4.4668,4.4584,4.4584,4.4584,4.4584,4.4584,4.4584,4.4584,4.4584,4.4584,4.4584,4.4584,4.4584,4.4584,4.4601,4.4668,4.4973,4.4922,4.4838,4.4635,4.4584,4.4584,4.4584,4.4584,4.4584,4.4584,4.4584,4.4584,4.4499,4.4212,4.3978,4.3876,4.3758,4.3386,4.3185,4.3286,4.3821,4.409,4.4533,4.5291,4.6139,4.6571,4.625,4.6278,4.5608,4.5214,4.4874,4.436,4.425,4.4443,4.3975,4.3524,4.3579,4.3745,4.403,4.4535,4.5489,4.5993,4.6315,4.6737,4.7085,4.7361,4.7085,4.6957,4.7085,4.7434,4.7342,4.7104,4.6865,4.6957,4.692,4.6498,4.6131,4.5782,4.5452,4.5104,4.4718,4.4066,4.3506,4.3488,4.3579,4.3956,4.403,4.38,4.3853,4.4527,4.4842,4.4775,4.5226,4.5932,4.6249,4.6394,4.6721,4.7201,4.7702,4.8702,4.938,4.9018,4.9018,4.9018,4.9018,4.9018,4.9018,4.9018,4.9018,4.9001,4.8494,4.7701,4.7768,4.6974,4.5841,4.5517,4.5246,4.4855,4.4651,4.4584,4.4584,4.4584,4.4584,4.4584,4.4584,4.4584,4.4584,4.4584,4.4584,4.4584,4.4584,4.4584,4.4838,4.5058,4.5193,4.5652,4.5703,4.5331,4.4736,4.4685,4.4685,4.4584,4.4584,4.4584,4.4584,4.4584,4.4584,4.4516,4.4279,4.4079,4.4093,4.413,4.3792,4.3383,4.4299,4.4671,4.4417,4.5339,4.5865,4.6058,4.67,4.6892,4.6782,4.6058,4.5755,4.5681,4.5223,4.4828,4.5177,4.436,4.3818,4.3892,4.4213,4.4635,4.525,4.6214,4.6801,4.7104,4.7379,4.7691,4.7838,4.8076,4.8205,4.8186,4.8205,4.8168,4.7911,4.7443,4.7351,4.7434,4.7379,4.6938,4.6333,4.5893,4.5489,4.5002,4.4057,4.3524,4.3506,4.3754,4.4232,4.436,4.4176,4.4348,4.4766,4.4761,4.4731,4.5263,4.5889,4.6541,4.7278,4.7875,4.8375,4.874,4.9144,4.9841,4.9018,4.9018,4.9018,4.9018,4.9018,4.9018,4.9018,4.9018,4.8917,4.8325,4.7344,4.7175,4.6346,4.5362,4.5007,4.4855,4.4651,4.4584,4.4584,4.4584,4.4584,4.4584,4.4584,4.4584,4.4584,4.4584,4.4584,4.4584,4.4584,4.4668,4.499,4.528,4.6024,4.6297,4.6058,4.6024,4.6075,4.5483,4.5297,4.5142,4.4651,4.4584,4.4584,4.4584,4.4584,4.4584,4.455,4.4279,4.4028,4.4012,4.4012,4.3795,4.3708,4.4627,4.5317,4.5514,4.6395,4.6947,4.7122,4.7452,4.7094,4.6874,4.6498,4.6223,4.6498,4.5938,4.5874,4.5911,4.5296,4.4984,4.5259,4.5314,4.5672,4.6278,4.7003,4.7379,4.7672,4.7948,4.8186,4.8168,4.8296,4.8315,4.8315,4.8315,4.8315,4.8315,4.7874,4.748,4.7443,4.7783,4.7672,4.6883,4.6333,4.592,4.5333,4.4589,4.402,4.3928,4.425,4.4745,4.4745,4.4709,4.4965,4.5423,4.5061,4.477,4.5843,4.6841,4.7626,4.8355,4.8933,4.9086,4.9086,4.9591,5.0322,4.9018,4.9018,4.9018,4.9018,4.9018,4.9018,4.9018,4.8951,4.8715,4.8054,4.7259,4.6701,4.5957,4.5128,4.4702,4.4584,4.4584,4.4584,4.4584,4.4584,4.4584,4.4584,4.4584,4.4584,4.4584,4.4584,4.4584,4.4584,4.4618,4.4888,4.5396,4.621,4.7227,4.716,4.6805,4.6718,4.638,4.5737,4.5348,4.499,4.4685,4.4584,4.4584,4.4584,4.4584,4.4584,4.4465,4.4147,4.3792,4.3778,4.3792,4.3809,4.4148,4.4902,4.58,4.6394,4.7158,4.7687,4.7929,4.7893,4.7636,4.7544,4.6755,4.6773,4.7177,4.6755,4.6663,4.6627,4.6333,4.6085,4.5957,4.603,4.6535,4.7131,4.7489,4.7838,4.8003,4.826,4.8315,4.8315,4.8315,4.8315,4.8315,4.8315,4.8315,4.8315,4.826,4.7893,4.7553,4.7893,4.815,4.7526,4.6883,4.648,4.5984,4.5333,4.4809,4.4406,4.48,4.5379,4.5617,4.57,4.5893,4.6065,4.5935,4.6105,4.7023,4.7924,4.8654,4.9341,4.9976,4.9918,4.9534,4.9957,5.063,4.9018,4.9018,4.9018,4.9018,4.9018,4.9018,4.8984,4.8868,4.8174,4.7802,4.7635,4.6227,4.5602,4.5449,4.4871,4.4601,4.4584,4.4584,4.4584,4.4584,4.4584,4.4584,4.4584,4.4584,4.4584,4.4584,4.4584,4.4601,4.4685,4.5399,4.6109,4.6752,4.7616,4.7701,4.7532,4.7143,4.6684,4.621,4.5616,4.5244,4.4939,4.4651,4.4601,4.4584,4.4584,4.4584,4.4533,4.4432,4.4432,4.4465,4.4499,4.4558,4.4977,4.5735,4.6179,4.6806,4.7725,4.8078,4.8241,4.8131,4.815,4.8003,4.7526,4.7709,4.7746,4.7507,4.7361,4.714,4.6847,4.6471,4.6214,4.6663,4.714,4.7544,4.7893,4.8095,4.8223,4.8315,4.8315,4.8315,4.8315,4.8315,4.8315,4.8315,4.8388,4.8315,4.8315,4.826,4.8003,4.8039,4.8223,4.8095,4.7526,4.7094,4.6544,4.5902,4.5516,4.5066,4.559,4.6113,4.637,4.6516,4.648,4.6577,4.692,4.7358,4.7974,4.875,4.961,5.0245,5.0572,5.0418,4.9938,5.0188,5.0688,4.9018,4.9018,4.9018,4.9018,4.9018,4.9001,4.8714,4.8157,4.7445,4.687,4.6295,4.5906,4.5415,4.4905,4.4668,4.4601,4.4584,4.4584,4.4584,4.4584,4.4584,4.4584,4.4584,4.4584,4.4584,4.4584,4.4584,4.4601,4.4888,4.572,4.6464,4.6904,4.802,4.8208,4.7971,4.7684,4.7396,4.6938,4.6225,4.5703,4.5193,4.4838,4.4702,4.4584,4.4584,4.4584,4.4584,4.4584,4.4584,4.4584,4.4584,4.472,4.5307,4.5996,4.6588,4.7669,4.8143,4.8296,4.8315,4.8315,4.8315,4.8315,4.8021,4.8076,4.8168,4.8076,4.7856,4.7636,4.7507,4.726,4.7168,4.7489,4.7746,4.7929,4.8168,4.8223,4.8315,4.8315,4.8315,4.8315,4.8315,4.8315,4.8315,4.848,4.8526,4.8388,4.8351,4.8406,4.8351,4.837,4.8296,4.8205,4.7929,4.7443,4.6966,4.6379,4.6067,4.5865,4.6416,4.6792,4.692,4.7012,4.6947,4.7172,4.7614,4.8096,4.8613,4.9431,5.0216,5.0399,5.0649,5.0534,5.0481,5.0611,5.0784,4.9018,4.9018,4.9018,4.9018,4.89,4.8376,4.7836,4.7428,4.6989,4.638,4.5703,4.5382,4.5024,4.4685,4.4601,4.4584,4.4584,4.4584,4.4584,4.4584,4.4584,4.4584,4.4584,4.4584,4.4584,4.4584,4.4584,4.4584,4.4956,4.5988,4.6868,4.7378,4.8494,4.8377,4.8174,4.809,4.7904,4.731,4.6667,4.6177,4.5618,4.5024,4.4702,4.4618,4.4618,4.4584,4.4584,4.4584,4.4584,4.4584,4.4584,4.4879,4.5545,4.6288,4.7132,4.8065,4.8267,4.8315,4.8315,4.8315,4.8315,4.8315,4.8315,4.8296,4.8278,4.8223,4.8205,4.8131,4.8205,4.8241,4.826,4.8296,4.8296,4.8296,4.8296,4.8296,4.8315,4.8315,4.8315,4.8315,4.8315,4.8315,4.8406,4.8618,4.882,4.8912,4.8967,4.8985,4.8783,4.8526,4.8406,4.826,4.8039,4.7709,4.7305,4.714,4.704,4.7003,4.7297,4.7581,4.7581,4.76,4.7638,4.7971,4.8378,4.8819,4.9219,4.9917,5.0592,5.0688,5.0707,5.0649,5.0592,5.063,5.0842,4.9018,4.9018,4.9018,4.9018,4.8815,4.7714,4.7056,4.6802,4.6802,4.6346,4.5568,4.4905,4.4651,4.4584,4.4584,4.4584,4.4584,4.4584,4.4584,4.4584,4.4584,4.4584,4.4584,4.4584,4.4584,4.4584,4.4584,4.4601,4.4973,4.5819,4.6836,4.7752,4.8291,4.8191,4.7785,4.8293,4.8073,4.7346,4.6786,4.6261,4.5754,4.5176,4.4649,4.4702,4.4651,4.4584,4.4584,4.4584,4.4584,4.4584,4.4665,4.4906,4.5783,4.6796,4.7705,4.8055,4.8277,4.8315,4.8315,4.8315,4.8315,4.8315,4.8315,4.8315,4.8315,4.8315,4.8315,4.8315,4.8315,4.8315,4.8315,4.8315,4.8315,4.8315,4.8315,4.8315,4.8315,4.8315,4.8315,4.8315,4.8315,4.837,4.8802,4.905,4.9417,4.9545,4.9674,4.9674,4.9509,4.9095,4.8691,4.8498,4.8205,4.8095,4.8288,4.8159,4.8177,4.8251,4.8288,4.8131,4.7966,4.8134,4.8393,4.8533,4.8674,4.9282,4.9797,5.0361,5.0678,5.0688,5.0707,5.0765,5.0803,5.0957,5.1087,4.9018,4.9018,4.9018,4.9018,4.8968,4.8629,4.7767,4.6819,4.6786,4.6058,4.5007,4.4685,4.4618,4.4668,4.4601,4.4584,4.4584,4.4584,4.4584,4.4584,4.4584,4.4584,4.4618,4.4685,4.4618,4.4584,4.4584,4.4601,4.4838,4.5517,4.6075,4.6397,4.7158,4.7479,4.7363,4.802,4.8005,4.7361,4.7278,4.6788,4.6329,4.543,4.4784,4.4956,4.5024,4.4635,4.4584,4.4584,4.4584,4.4584,4.4584,4.5152,4.6143,4.7396,4.8045,4.8259,4.8315,4.8315,4.8315,4.8315,4.8315,4.8315,4.8315,4.8315,4.8315,4.8315,4.8315,4.8315,4.8315,4.8315,4.8315,4.8315,4.8315,4.8315,4.8315,4.8315,4.8315,4.8315,4.8315,4.8315,4.8315,4.8673,4.9123,4.9582,4.9913,5.0206,5.0417,5.049,5.0453,5.0141,4.9352,4.903,4.8517,4.8443,4.8838,4.8967,4.8893,4.882,4.8783,4.86,4.8388,4.8344,4.8402,4.8613,4.8886,4.957,5.0113,5.0401,5.0631,5.0966,5.113,5.1361,5.1606,5.1774,5.1774,4.9018,4.9018,4.9018,4.9018,4.8968,4.8648,4.7851,4.6885,4.6447,4.5684,4.4702,4.4601,4.4753,4.4888,4.4753,4.4618,4.4618,4.4584,4.4584,4.4584,4.4584,4.4584,4.4668,4.4888,4.4787,4.4719,4.4618,4.4635,4.4719,4.5331,4.5838,4.6177,4.6819,4.7242,4.7344,4.7904,4.7988,4.7428,4.7768,4.7481,4.6819,4.5836,4.5007,4.5142,4.4871,4.4598,4.4584,4.4584,4.4584,4.4852,4.5129,4.5883,4.6801,4.7718,4.8209,4.8296,4.8315,4.8315,4.8315,4.8315,4.8315,4.8315,4.8315,4.8315,4.8315,4.8315,4.8315,4.8315,4.8315,4.8315,4.8315,4.8315,4.8315,4.8315,4.8315,4.8315,4.8315,4.8315,4.8315,4.8315,4.8563,4.9123,4.9721,5.061,5.0904,5.1124,5.1298,5.1334,5.1298,5.1206,5.0398,4.9866,4.9544,4.9434,4.9848,4.9738,4.9417,4.9362,4.9389,4.9187,4.9003,4.8553,4.8382,4.8835,4.9352,4.9988,5.0459,5.0947,5.1567,5.213,5.2125,5.2087,5.2351,5.2678,5.2909,4.9018,4.9001,4.89,4.8917,4.8868,4.8225,4.7496,4.68,4.6143,4.5481,4.4821,4.4668,4.5043,4.5246,4.5077,4.4871,4.4787,4.4939,4.4838,4.4601,4.4584,4.4584,4.4855,4.5227,4.5142,4.4922,4.4702,4.4649,4.4649,4.5328,4.6024,4.6718,4.7276,4.7768,4.8056,4.8293,4.8259,4.7868,4.7784,4.7549,4.6887,4.6126,4.5466,4.4973,4.4649,4.4601,4.4584,4.4584,4.4584,4.5178,4.5808,4.6577,4.7205,4.7897,4.8152,4.8315,4.8315,4.8315,4.8315,4.8315,4.8315,4.8315,4.8315,4.8315,4.8315,4.8315,4.8315,4.8315,4.8315,4.8315,4.8315,4.8315,4.8315,4.8315,4.8315,4.8333,4.8333,4.8406,4.848,4.8498,4.9022,4.961,5.0335,5.1253,5.1767,5.1987,5.2134,5.2152,5.2123,5.1995,5.1555,5.1316,5.1159,5.1132,5.1004,5.0472,5.0013,5.0288,5.0325,4.9986,4.9695,4.9572,4.9446,4.9353,4.9906,5.0828,5.1449,5.1991,5.2609,5.3087,5.2818,5.2702,5.328,5.364,5.4184,4.9018,4.8968,4.8377,4.8445,4.8815,4.8191,4.7479,4.6868,4.6616,4.616,4.5365,4.4871,4.5007,4.5689,4.5602,4.5382,4.5159,4.528,4.5007,4.4682,4.4601,4.4584,4.4753,4.5176,4.55,4.5297,4.4905,4.4618,4.4649,4.5277,4.5788,4.6109,4.6733,4.7327,4.7922,4.8191,4.836,4.8223,4.824,4.8105,4.6904,4.6227,4.5771,4.5314,4.4922,4.4719,4.4584,4.4584,4.4893,4.5537,4.6413,4.7084,4.7572,4.7985,4.8229,4.8315,4.8315,4.8315,4.8315,4.8315,4.8315,4.8315,4.8315,4.8315,4.8315,4.8315,4.8315,4.8333,4.8333,4.837,4.837,4.8315,4.8315,4.8315,4.8315,4.8388,4.8443,4.8802,4.9087,4.9334,4.9756,5.0233,5.0702,5.1536,5.227,5.2509,5.2774,5.2792,5.2737,5.2682,5.2553,5.2498,5.2443,5.2252,5.1885,5.1132,5.0747,5.1096,5.1206,5.0794,5.0667,5.0907,5.0794,5.0367,5.108,5.2103,5.2633,5.2996,5.324,5.3568,5.326,5.3255,5.3933,5.4434,5.4818]}]]